<?xml version="1.0"?>
<gpx xmlns="http://www.topografix.com/GPX/1/1" xmlns:xsi="http://www.w3.org/2001/XMLSchema-instance" version="1.1" creator="GPX RubyGem 1.0.0 -- http://dougfales.github.io/gpx/" xsi:schemaLocation="http://www.topografix.com/GPX/1/1 http://www.topografix.com/GPX/1/1/gpx.xsd">
  <metadata>
    <name/>
    <time>2026-05-08T04:19:07+00:00</time>
    <bound minlat="90.0" minlon="180.0" maxlat="-90.0" maxlon="-180.0"/>
  </metadata>
  <trk>
    <name/>
    <trkseg>
      <trkpt lat="45.4133565723896" lon="6.147434469312429">
        <time>2023-05-03T04:34:10+00:00</time>
        <ele>823.0</ele>
      </trkpt>
      <trkpt lat="45.413357159122825" lon="6.147434217855334">
        <time>2023-05-03T04:34:11+00:00</time>
        <ele>823.0</ele>
      </trkpt>
      <trkpt lat="45.41330376639962" lon="6.147611914202571">
        <time>2023-05-03T04:34:35+00:00</time>
        <ele>826.0</ele>
      </trkpt>
      <trkpt lat="45.41323863901198" lon="6.147760692983866">
        <time>2023-05-03T04:34:48+00:00</time>
        <ele>828.0</ele>
      </trkpt>
      <trkpt lat="45.41314643807709" lon="6.147973760962486">
        <time>2023-05-03T04:35:03+00:00</time>
        <ele>831.0</ele>
      </trkpt>
      <trkpt lat="45.41308097541332" lon="6.148118767887354">
        <time>2023-05-03T04:35:11+00:00</time>
        <ele>836.0</ele>
      </trkpt>
      <trkpt lat="45.41296052746475" lon="6.148267965763807">
        <time>2023-05-03T04:35:24+00:00</time>
        <ele>843.0</ele>
      </trkpt>
      <trkpt lat="45.412830859422684" lon="6.148367039859295">
        <time>2023-05-03T04:35:40+00:00</time>
        <ele>844.0</ele>
      </trkpt>
      <trkpt lat="45.412669675424695" lon="6.148467203602195">
        <time>2023-05-03T04:35:57+00:00</time>
        <ele>844.0</ele>
      </trkpt>
      <trkpt lat="45.41261016391218" lon="6.148586394265294">
        <time>2023-05-03T04:36:12+00:00</time>
        <ele>847.0</ele>
      </trkpt>
      <trkpt lat="45.41258820332587" lon="6.148703489452601">
        <time>2023-05-03T04:36:26+00:00</time>
        <ele>849.0</ele>
      </trkpt>
      <trkpt lat="45.41255501098931" lon="6.148879341781139">
        <time>2023-05-03T04:36:47+00:00</time>
        <ele>853.0</ele>
      </trkpt>
      <trkpt lat="45.41252441704273" lon="6.149001466110349">
        <time>2023-05-03T04:37:08+00:00</time>
        <ele>856.0</ele>
      </trkpt>
      <trkpt lat="45.41248175315559" lon="6.149133397266269">
        <time>2023-05-03T04:37:30+00:00</time>
        <ele>858.0</ele>
      </trkpt>
      <trkpt lat="45.41242718696594" lon="6.149282846599817">
        <time>2023-05-03T04:37:48+00:00</time>
        <ele>860.0</ele>
      </trkpt>
      <trkpt lat="45.41235233657062" lon="6.149469511583448">
        <time>2023-05-03T04:38:07+00:00</time>
        <ele>861.0</ele>
      </trkpt>
      <trkpt lat="45.412353510037065" lon="6.149516282603145">
        <time>2023-05-03T04:38:27+00:00</time>
        <ele>863.0</ele>
      </trkpt>
      <trkpt lat="45.41232509538531" lon="6.149658691138029">
        <time>2023-05-03T04:38:43+00:00</time>
        <ele>866.0</ele>
      </trkpt>
      <trkpt lat="45.41227547451854" lon="6.149772433564067">
        <time>2023-05-03T04:38:48+00:00</time>
        <ele>868.0</ele>
      </trkpt>
      <trkpt lat="45.412263488397" lon="6.149804033339024">
        <time>2023-05-03T04:38:49+00:00</time>
        <ele>868.0</ele>
      </trkpt>
      <trkpt lat="45.412104902789" lon="6.150056077167392">
        <time>2023-05-03T04:39:00+00:00</time>
        <ele>867.0</ele>
      </trkpt>
      <trkpt lat="45.412071542814374" lon="6.150182224810123">
        <time>2023-05-03T04:39:09+00:00</time>
        <ele>868.0</ele>
      </trkpt>
      <trkpt lat="45.412048073485494" lon="6.150330165401101">
        <time>2023-05-03T04:39:27+00:00</time>
        <ele>870.0</ele>
      </trkpt>
      <trkpt lat="45.41196048259735" lon="6.150460839271545">
        <time>2023-05-03T04:39:49+00:00</time>
        <ele>868.0</ele>
      </trkpt>
      <trkpt lat="45.41192729026079" lon="6.150739872828126">
        <time>2023-05-03T04:40:11+00:00</time>
        <ele>875.0</ele>
      </trkpt>
      <trkpt lat="45.411909352988005" lon="6.150995856150985">
        <time>2023-05-03T04:40:32+00:00</time>
        <ele>880.0</ele>
      </trkpt>
      <trkpt lat="45.41184414178133" lon="6.151198195293546">
        <time>2023-05-03T04:40:52+00:00</time>
        <ele>881.0</ele>
      </trkpt>
      <trkpt lat="45.41181086562574" lon="6.151427524164319">
        <time>2023-05-03T04:41:16+00:00</time>
        <ele>886.0</ele>
      </trkpt>
      <trkpt lat="45.41174590587616" lon="6.151612345129252">
        <time>2023-05-03T04:41:36+00:00</time>
        <ele>888.0</ele>
      </trkpt>
      <trkpt lat="45.41159796528518" lon="6.151894731447101">
        <time>2023-05-03T04:42:00+00:00</time>
        <ele>888.0</ele>
      </trkpt>
      <trkpt lat="45.41149671189487" lon="6.152144763618708">
        <time>2023-05-03T04:42:22+00:00</time>
        <ele>892.0</ele>
      </trkpt>
      <trkpt lat="45.41143166832626" lon="6.152380211278796">
        <time>2023-05-03T04:42:42+00:00</time>
        <ele>898.0</ele>
      </trkpt>
      <trkpt lat="45.411444241181016" lon="6.15279084071517">
        <time>2023-05-03T04:43:06+00:00</time>
        <ele>910.0</ele>
      </trkpt>
      <trkpt lat="45.41144407354295" lon="6.152803329750896">
        <time>2023-05-03T04:43:07+00:00</time>
        <ele>910.0</ele>
      </trkpt>
      <trkpt lat="45.411393446847796" lon="6.152962921187282">
        <time>2023-05-03T04:43:24+00:00</time>
        <ele>911.0</ele>
      </trkpt>
      <trkpt lat="45.41133837774396" lon="6.15321203134954">
        <time>2023-05-03T04:43:46+00:00</time>
        <ele>914.0</ele>
      </trkpt>
      <trkpt lat="45.41127140633762" lon="6.153474384918809">
        <time>2023-05-03T04:44:09+00:00</time>
        <ele>916.0</ele>
      </trkpt>
      <trkpt lat="45.41123385541141" lon="6.153650740161538">
        <time>2023-05-03T04:44:25+00:00</time>
        <ele>919.0</ele>
      </trkpt>
      <trkpt lat="45.411202339455485" lon="6.153863640502095">
        <time>2023-05-03T04:44:48+00:00</time>
        <ele>923.0</ele>
      </trkpt>
      <trkpt lat="45.41124693118036" lon="6.153900772333145">
        <time>2023-05-03T04:45:22+00:00</time>
        <ele>925.0</ele>
      </trkpt>
      <trkpt lat="45.411250703036785" lon="6.153904879465699">
        <time>2023-05-03T04:45:25+00:00</time>
        <ele>925.0</ele>
      </trkpt>
      <trkpt lat="45.411207703873515" lon="6.154150636866689">
        <time>2023-05-03T04:45:44+00:00</time>
        <ele>928.0</ele>
      </trkpt>
      <trkpt lat="45.411169063299894" lon="6.154225571081042">
        <time>2023-05-03T04:45:53+00:00</time>
        <ele>928.0</ele>
      </trkpt>
      <trkpt lat="45.41097979992628" lon="6.154430424794555">
        <time>2023-05-03T04:46:14+00:00</time>
        <ele>933.0</ele>
      </trkpt>
      <trkpt lat="45.4107922129333" lon="6.154510220512748">
        <time>2023-05-03T04:46:34+00:00</time>
        <ele>936.0</ele>
      </trkpt>
      <trkpt lat="45.41066204197705" lon="6.154648857191205">
        <time>2023-05-03T04:46:51+00:00</time>
        <ele>941.0</ele>
      </trkpt>
      <trkpt lat="45.41055651381612" lon="6.154748937115073">
        <time>2023-05-03T04:47:12+00:00</time>
        <ele>942.0</ele>
      </trkpt>
      <trkpt lat="45.4104536678642" lon="6.154839629307389">
        <time>2023-05-03T04:47:35+00:00</time>
        <ele>946.0</ele>
      </trkpt>
      <trkpt lat="45.410305727273226" lon="6.154932165518403">
        <time>2023-05-03T04:47:55+00:00</time>
        <ele>948.0</ele>
      </trkpt>
      <trkpt lat="45.41012015193701" lon="6.155010368674994">
        <time>2023-05-03T04:48:14+00:00</time>
        <ele>951.0</ele>
      </trkpt>
      <trkpt lat="45.40993424132466" lon="6.155134420841932">
        <time>2023-05-03T04:48:37+00:00</time>
        <ele>954.0</ele>
      </trkpt>
      <trkpt lat="45.40992200374603" lon="6.155163254588842">
        <time>2023-05-03T04:48:39+00:00</time>
        <ele>954.0</ele>
      </trkpt>
      <trkpt lat="45.40985310450196" lon="6.155293844640255">
        <time>2023-05-03T04:48:46+00:00</time>
        <ele>955.0</ele>
      </trkpt>
      <trkpt lat="45.409840950742364" lon="6.155342794954777">
        <time>2023-05-03T04:48:48+00:00</time>
        <ele>956.0</ele>
      </trkpt>
      <trkpt lat="45.40973475202918" lon="6.155521580949426">
        <time>2023-05-03T04:48:56+00:00</time>
        <ele>956.0</ele>
      </trkpt>
      <trkpt lat="45.40955303236842" lon="6.155672622844577">
        <time>2023-05-03T04:49:05+00:00</time>
        <ele>956.0</ele>
      </trkpt>
      <trkpt lat="45.4095299821347" lon="6.155690476298332">
        <time>2023-05-03T04:49:06+00:00</time>
        <ele>956.0</ele>
      </trkpt>
      <trkpt lat="45.40951145812869" lon="6.155711263418198">
        <time>2023-05-03T04:49:07+00:00</time>
        <ele>956.0</ele>
      </trkpt>
      <trkpt lat="45.40930048562586" lon="6.155876638367772">
        <time>2023-05-03T04:49:19+00:00</time>
        <ele>959.0</ele>
      </trkpt>
      <trkpt lat="45.40916536934674" lon="6.156000103801489">
        <time>2023-05-03T04:49:29+00:00</time>
        <ele>962.0</ele>
      </trkpt>
      <trkpt lat="45.40915472432971" lon="6.156014353036881">
        <time>2023-05-03T04:49:30+00:00</time>
        <ele>963.0</ele>
      </trkpt>
      <trkpt lat="45.40913519449532" lon="6.15603044629097">
        <time>2023-05-03T04:49:31+00:00</time>
        <ele>963.0</ele>
      </trkpt>
      <trkpt lat="45.40908146649599" lon="6.156060285866261">
        <time>2023-05-03T04:49:35+00:00</time>
        <ele>963.0</ele>
      </trkpt>
      <trkpt lat="45.40905145928264" lon="6.156152067705989">
        <time>2023-05-03T04:49:39+00:00</time>
        <ele>967.0</ele>
      </trkpt>
      <trkpt lat="45.40881257504225" lon="6.156525565311313">
        <time>2023-05-03T04:49:59+00:00</time>
        <ele>974.0</ele>
      </trkpt>
      <trkpt lat="45.408570589497685" lon="6.156765036284924">
        <time>2023-05-03T04:50:18+00:00</time>
        <ele>973.0</ele>
      </trkpt>
      <trkpt lat="45.4083850979805" lon="6.157017415389419">
        <time>2023-05-03T04:50:32+00:00</time>
        <ele>973.0</ele>
      </trkpt>
      <trkpt lat="45.40825023315847" lon="6.157176587730646">
        <time>2023-05-03T04:50:40+00:00</time>
        <ele>970.0</ele>
      </trkpt>
      <trkpt lat="45.40819440968335" lon="6.15747925825417">
        <time>2023-05-03T04:50:57+00:00</time>
        <ele>978.0</ele>
      </trkpt>
      <trkpt lat="45.408032555133104" lon="6.157964738085866">
        <time>2023-05-03T04:51:18+00:00</time>
        <ele>978.0</ele>
      </trkpt>
      <trkpt lat="45.40801143273711" lon="6.157998684793711">
        <time>2023-05-03T04:51:20+00:00</time>
        <ele>978.0</ele>
      </trkpt>
      <trkpt lat="45.40799408219755" lon="6.158015783876181">
        <time>2023-05-03T04:51:21+00:00</time>
        <ele>978.0</ele>
      </trkpt>
      <trkpt lat="45.4079757258296" lon="6.15804260596633">
        <time>2023-05-03T04:51:22+00:00</time>
        <ele>978.0</ele>
      </trkpt>
      <trkpt lat="45.40796357207" lon="6.158068422228098">
        <time>2023-05-03T04:51:23+00:00</time>
        <ele>978.0</ele>
      </trkpt>
      <trkpt lat="45.4079463891685" lon="6.158084515482187">
        <time>2023-05-03T04:51:24+00:00</time>
        <ele>978.0</ele>
      </trkpt>
      <trkpt lat="45.40792744606733" lon="6.158105889335275">
        <time>2023-05-03T04:51:25+00:00</time>
        <ele>978.0</ele>
      </trkpt>
      <trkpt lat="45.40790439583361" lon="6.158124497160316">
        <time>2023-05-03T04:51:26+00:00</time>
        <ele>978.0</ele>
      </trkpt>
      <trkpt lat="45.407882519066334" lon="6.158135645091534">
        <time>2023-05-03T04:51:27+00:00</time>
        <ele>978.0</ele>
      </trkpt>
      <trkpt lat="45.407863073050976" lon="6.158164059743285">
        <time>2023-05-03T04:51:28+00:00</time>
        <ele>978.0</ele>
      </trkpt>
      <trkpt lat="45.40785192511976" lon="6.158202700316906">
        <time>2023-05-03T04:51:29+00:00</time>
        <ele>979.0</ele>
      </trkpt>
      <trkpt lat="45.40784035809338" lon="6.158234048634768">
        <time>2023-05-03T04:51:30+00:00</time>
        <ele>979.0</ele>
      </trkpt>
      <trkpt lat="45.40781915187836" lon="6.158244861289859">
        <time>2023-05-03T04:51:31+00:00</time>
        <ele>979.0</ele>
      </trkpt>
      <trkpt lat="45.407800041139126" lon="6.158257266506553">
        <time>2023-05-03T04:51:32+00:00</time>
        <ele>978.0</ele>
      </trkpt>
      <trkpt lat="45.40777682326734" lon="6.158272689208388">
        <time>2023-05-03T04:51:33+00:00</time>
        <ele>978.0</ele>
      </trkpt>
      <trkpt lat="45.40775972418487" lon="6.15828450769186">
        <time>2023-05-03T04:51:34+00:00</time>
        <ele>978.0</ele>
      </trkpt>
      <trkpt lat="45.40773876942694" lon="6.158294063061476">
        <time>2023-05-03T04:51:35+00:00</time>
        <ele>978.0</ele>
      </trkpt>
      <trkpt lat="45.407721754163504" lon="6.158317280933261">
        <time>2023-05-03T04:51:36+00:00</time>
        <ele>978.0</ele>
      </trkpt>
      <trkpt lat="45.40765914134681" lon="6.158366817981005">
        <time>2023-05-03T04:51:40+00:00</time>
        <ele>978.0</ele>
      </trkpt>
      <trkpt lat="45.40765059180558" lon="6.158383414149284">
        <time>2023-05-03T04:51:41+00:00</time>
        <ele>978.0</ele>
      </trkpt>
      <trkpt lat="45.40763466618955" lon="6.158396825194359">
        <time>2023-05-03T04:51:42+00:00</time>
        <ele>979.0</ele>
      </trkpt>
      <trkpt lat="45.40761178359389" lon="6.158402860164642">
        <time>2023-05-03T04:51:43+00:00</time>
        <ele>978.0</ele>
      </trkpt>
      <trkpt lat="45.407591331750154" lon="6.158413589000702">
        <time>2023-05-03T04:51:44+00:00</time>
        <ele>978.0</ele>
      </trkpt>
      <trkpt lat="45.40756911970675" lon="6.158425491303206">
        <time>2023-05-03T04:51:45+00:00</time>
        <ele>978.0</ele>
      </trkpt>
      <trkpt lat="45.407539531588554" lon="6.158409649506211">
        <time>2023-05-03T04:51:46+00:00</time>
        <ele>977.0</ele>
      </trkpt>
      <trkpt lat="45.40752268396318" lon="6.158424653112888">
        <time>2023-05-03T04:51:47+00:00</time>
        <ele>977.0</ele>
      </trkpt>
      <trkpt lat="45.4075076803565" lon="6.158439489081502">
        <time>2023-05-03T04:51:48+00:00</time>
        <ele>977.0</ele>
      </trkpt>
      <trkpt lat="45.40749250911176" lon="6.158460276201367">
        <time>2023-05-03T04:51:49+00:00</time>
        <ele>978.0</ele>
      </trkpt>
      <trkpt lat="45.4074751585722" lon="6.158487349748612">
        <time>2023-05-03T04:51:50+00:00</time>
        <ele>978.0</ele>
      </trkpt>
      <trkpt lat="45.40745579637587" lon="6.158515848219395">
        <time>2023-05-03T04:51:51+00:00</time>
        <ele>979.0</ele>
      </trkpt>
      <trkpt lat="45.40743978694081" lon="6.158538060262799">
        <time>2023-05-03T04:51:52+00:00</time>
        <ele>979.0</ele>
      </trkpt>
      <trkpt lat="45.40742210112512" lon="6.158555578440428">
        <time>2023-05-03T04:51:53+00:00</time>
        <ele>980.0</ele>
      </trkpt>
      <trkpt lat="45.40740148164332" lon="6.158570749685168">
        <time>2023-05-03T04:51:54+00:00</time>
        <ele>980.0</ele>
      </trkpt>
      <trkpt lat="45.407386645674706" lon="6.158588854596019">
        <time>2023-05-03T04:51:55+00:00</time>
        <ele>980.0</ele>
      </trkpt>
      <trkpt lat="45.40735370479524" lon="6.15864216350019">
        <time>2023-05-03T04:51:58+00:00</time>
        <ele>981.0</ele>
      </trkpt>
      <trkpt lat="45.40733962319791" lon="6.158661106601358">
        <time>2023-05-03T04:51:59+00:00</time>
        <ele>982.0</ele>
      </trkpt>
      <trkpt lat="45.407298132777214" lon="6.158704441040754">
        <time>2023-05-03T04:52:03+00:00</time>
        <ele>982.0</ele>
      </trkpt>
      <trkpt lat="45.40727558545768" lon="6.158757247030735">
        <time>2023-05-03T04:52:07+00:00</time>
        <ele>983.0</ele>
      </trkpt>
      <trkpt lat="45.40713585913181" lon="6.158934691920877">
        <time>2023-05-03T04:52:27+00:00</time>
        <ele>985.0</ele>
      </trkpt>
      <trkpt lat="45.40698858909309" lon="6.159110041335225">
        <time>2023-05-03T04:52:51+00:00</time>
        <ele>987.0</ele>
      </trkpt>
      <trkpt lat="45.40676638484001" lon="6.159303914755583">
        <time>2023-05-03T04:53:12+00:00</time>
        <ele>988.0</ele>
      </trkpt>
      <trkpt lat="45.40663981810212" lon="6.159437019377947">
        <time>2023-05-03T04:53:32+00:00</time>
        <ele>990.0</ele>
      </trkpt>
      <trkpt lat="45.40649908594787" lon="6.159471888095141">
        <time>2023-05-03T04:53:46+00:00</time>
        <ele>990.0</ele>
      </trkpt>
      <trkpt lat="45.40647955611348" lon="6.159488148987293">
        <time>2023-05-03T04:53:48+00:00</time>
        <ele>990.0</ele>
      </trkpt>
      <trkpt lat="45.40624838322401" lon="6.159825939685106">
        <time>2023-05-03T04:54:01+00:00</time>
        <ele>995.0</ele>
      </trkpt>
      <trkpt lat="45.406009163707495" lon="6.160170519724488">
        <time>2023-05-03T04:54:11+00:00</time>
        <ele>995.0</ele>
      </trkpt>
      <trkpt lat="45.40580062195659" lon="6.16046916693449">
        <time>2023-05-03T04:54:21+00:00</time>
        <ele>998.0</ele>
      </trkpt>
      <trkpt lat="45.40575427003205" lon="6.160592045634985">
        <time>2023-05-03T04:54:25+00:00</time>
        <ele>1002.0</ele>
      </trkpt>
      <trkpt lat="45.405742451548576" lon="6.160637391731143">
        <time>2023-05-03T04:54:26+00:00</time>
        <ele>1003.0</ele>
      </trkpt>
      <trkpt lat="45.40571806021035" lon="6.160671086981893">
        <time>2023-05-03T04:54:27+00:00</time>
        <ele>1003.0</ele>
      </trkpt>
      <trkpt lat="45.40569802746177" lon="6.160705788061023">
        <time>2023-05-03T04:54:28+00:00</time>
        <ele>1003.0</ele>
      </trkpt>
      <trkpt lat="45.40567757561803" lon="6.160743674263358">
        <time>2023-05-03T04:54:29+00:00</time>
        <ele>1003.0</ele>
      </trkpt>
      <trkpt lat="45.405478002503514" lon="6.160932015627623">
        <time>2023-05-03T04:54:38+00:00</time>
        <ele>998.0</ele>
      </trkpt>
      <trkpt lat="45.40545872412622" lon="6.160951377823949">
        <time>2023-05-03T04:54:39+00:00</time>
        <ele>997.0</ele>
      </trkpt>
      <trkpt lat="45.4054441396147" lon="6.160977361723781">
        <time>2023-05-03T04:54:40+00:00</time>
        <ele>997.0</ele>
      </trkpt>
      <trkpt lat="45.40543098002672" lon="6.161016169935465">
        <time>2023-05-03T04:54:41+00:00</time>
        <ele>998.0</ele>
      </trkpt>
      <trkpt lat="45.405421424657106" lon="6.161055732518435">
        <time>2023-05-03T04:54:42+00:00</time>
        <ele>998.0</ele>
      </trkpt>
      <trkpt lat="45.40540348738432" lon="6.161089679226279">
        <time>2023-05-03T04:54:43+00:00</time>
        <ele>998.0</ele>
      </trkpt>
      <trkpt lat="45.40539376437664" lon="6.161121446639299">
        <time>2023-05-03T04:54:44+00:00</time>
        <ele>999.0</ele>
      </trkpt>
      <trkpt lat="45.40538244880736" lon="6.161150699481368">
        <time>2023-05-03T04:54:45+00:00</time>
        <ele>999.0</ele>
      </trkpt>
      <trkpt lat="45.40525546297431" lon="6.161530483514071">
        <time>2023-05-03T04:54:57+00:00</time>
        <ele>1001.0</ele>
      </trkpt>
      <trkpt lat="45.40509629063308" lon="6.161930300295353">
        <time>2023-05-03T04:55:09+00:00</time>
        <ele>1000.0</ele>
      </trkpt>
      <trkpt lat="45.40490518324077" lon="6.162140099331737">
        <time>2023-05-03T04:55:21+00:00</time>
        <ele>999.0</ele>
      </trkpt>
      <trkpt lat="45.404754308983684" lon="6.162328440696001">
        <time>2023-05-03T04:55:32+00:00</time>
        <ele>999.0</ele>
      </trkpt>
      <trkpt lat="45.40475078858435" lon="6.16234160028398">
        <time>2023-05-03T04:55:33+00:00</time>
        <ele>999.0</ele>
      </trkpt>
      <trkpt lat="45.4047363717109" lon="6.162379737943411">
        <time>2023-05-03T04:55:35+00:00</time>
        <ele>999.0</ele>
      </trkpt>
      <trkpt lat="45.404728911817074" lon="6.162400608882308">
        <time>2023-05-03T04:55:36+00:00</time>
        <ele>999.0</ele>
      </trkpt>
      <trkpt lat="45.40472254157066" lon="6.162422904744744">
        <time>2023-05-03T04:55:37+00:00</time>
        <ele>1000.0</ele>
      </trkpt>
      <trkpt lat="45.404718182981014" lon="6.162446457892656">
        <time>2023-05-03T04:55:38+00:00</time>
        <ele>1000.0</ele>
      </trkpt>
      <trkpt lat="45.404705023393035" lon="6.162468921393156">
        <time>2023-05-03T04:55:39+00:00</time>
        <ele>1000.0</ele>
      </trkpt>
      <trkpt lat="45.40469245053828" lon="6.162487361580133">
        <time>2023-05-03T04:55:40+00:00</time>
        <ele>1000.0</ele>
      </trkpt>
      <trkpt lat="45.404674680903554" lon="6.162542849779129">
        <time>2023-05-03T04:55:43+00:00</time>
        <ele>1000.0</ele>
      </trkpt>
      <trkpt lat="45.404659593477845" lon="6.162578724324703">
        <time>2023-05-03T04:55:45+00:00</time>
        <ele>1000.0</ele>
      </trkpt>
      <trkpt lat="45.40465649217367" lon="6.162599511444569">
        <time>2023-05-03T04:55:46+00:00</time>
        <ele>1001.0</ele>
      </trkpt>
      <trkpt lat="45.40465020574629" lon="6.162623148411512">
        <time>2023-05-03T04:55:47+00:00</time>
        <ele>1001.0</ele>
      </trkpt>
      <trkpt lat="45.40464324876666" lon="6.162647875025868">
        <time>2023-05-03T04:55:48+00:00</time>
        <ele>1002.0</ele>
      </trkpt>
      <trkpt lat="45.404634112492204" lon="6.162670338526368">
        <time>2023-05-03T04:55:49+00:00</time>
        <ele>1002.0</ele>
      </trkpt>
      <trkpt lat="45.40461827069521" lon="6.162690874189138">
        <time>2023-05-03T04:55:50+00:00</time>
        <ele>1003.0</ele>
      </trkpt>
      <trkpt lat="45.404604356735945" lon="6.162713170051575">
        <time>2023-05-03T04:55:51+00:00</time>
        <ele>1003.0</ele>
      </trkpt>
      <trkpt lat="45.40458013303578" lon="6.162750888615847">
        <time>2023-05-03T04:55:53+00:00</time>
        <ele>1004.0</ele>
      </trkpt>
      <trkpt lat="45.40456688962877" lon="6.162792546674609">
        <time>2023-05-03T04:55:54+00:00</time>
        <ele>1004.0</ele>
      </trkpt>
      <trkpt lat="45.40455020964146" lon="6.1628223862499">
        <time>2023-05-03T04:55:55+00:00</time>
        <ele>1005.0</ele>
      </trkpt>
      <trkpt lat="45.40453336201608" lon="6.162863373756409">
        <time>2023-05-03T04:55:56+00:00</time>
        <ele>1005.0</ele>
      </trkpt>
      <trkpt lat="45.40450930595398" lon="6.162889692932367">
        <time>2023-05-03T04:55:57+00:00</time>
        <ele>1005.0</ele>
      </trkpt>
      <trkpt lat="45.40447661653161" lon="6.162918694317341">
        <time>2023-05-03T04:55:58+00:00</time>
        <ele>1005.0</ele>
      </trkpt>
      <trkpt lat="45.40445557795465" lon="6.162948533892632">
        <time>2023-05-03T04:55:59+00:00</time>
        <ele>1005.0</ele>
      </trkpt>
      <trkpt lat="45.4044358804822" lon="6.162988767027855">
        <time>2023-05-03T04:56:00+00:00</time>
        <ele>1005.0</ele>
      </trkpt>
      <trkpt lat="45.404413836076856" lon="6.163023468106985">
        <time>2023-05-03T04:56:01+00:00</time>
        <ele>1006.0</ele>
      </trkpt>
      <trkpt lat="45.40439313277602" lon="6.163052218034864">
        <time>2023-05-03T04:56:02+00:00</time>
        <ele>1006.0</ele>
      </trkpt>
      <trkpt lat="45.40415408089757" lon="6.163270985707641">
        <time>2023-05-03T04:56:13+00:00</time>
        <ele>1007.0</ele>
      </trkpt>
      <trkpt lat="45.4038692638278" lon="6.163291186094284">
        <time>2023-05-03T04:56:24+00:00</time>
        <ele>1005.0</ele>
      </trkpt>
      <trkpt lat="45.403744373470545" lon="6.163275428116322">
        <time>2023-05-03T04:56:38+00:00</time>
        <ele>1006.0</ele>
      </trkpt>
      <trkpt lat="45.40373054333031" lon="6.163295209407806">
        <time>2023-05-03T04:57:09+00:00</time>
        <ele>1006.0</ele>
      </trkpt>
      <trkpt lat="45.40369626134634" lon="6.163297472521663">
        <time>2023-05-03T04:57:39+00:00</time>
        <ele>1007.0</ele>
      </trkpt>
      <trkpt lat="45.403687711805105" lon="6.163313230499625">
        <time>2023-05-03T04:57:55+00:00</time>
        <ele>1007.0</ele>
      </trkpt>
      <trkpt lat="45.40362979285419" lon="6.163356648758054">
        <time>2023-05-03T04:58:32+00:00</time>
        <ele>1007.0</ele>
      </trkpt>
      <trkpt lat="45.403593331575394" lon="6.163490088656545">
        <time>2023-05-03T04:58:40+00:00</time>
        <ele>1008.0</ele>
      </trkpt>
      <trkpt lat="45.403580674901605" lon="6.163594359531999">
        <time>2023-05-03T04:58:44+00:00</time>
        <ele>1009.0</ele>
      </trkpt>
      <trkpt lat="45.40357505902648" lon="6.163625624030829">
        <time>2023-05-03T04:58:45+00:00</time>
        <ele>1009.0</ele>
      </trkpt>
      <trkpt lat="45.403569443151355" lon="6.163654960691929">
        <time>2023-05-03T04:58:46+00:00</time>
        <ele>1010.0</ele>
      </trkpt>
      <trkpt lat="45.40343281812966" lon="6.163937514647842">
        <time>2023-05-03T04:58:57+00:00</time>
        <ele>1015.0</ele>
      </trkpt>
      <trkpt lat="45.403422843664885" lon="6.163957044482231">
        <time>2023-05-03T04:58:58+00:00</time>
        <ele>1015.0</ele>
      </trkpt>
      <trkpt lat="45.40340926498175" lon="6.163967773318291">
        <time>2023-05-03T04:58:59+00:00</time>
        <ele>1015.0</ele>
      </trkpt>
      <trkpt lat="45.40339342318475" lon="6.163977161049843">
        <time>2023-05-03T04:59:00+00:00</time>
        <ele>1015.0</ele>
      </trkpt>
      <trkpt lat="45.40336190722883" lon="6.164001636207104">
        <time>2023-05-03T04:59:03+00:00</time>
        <ele>1015.0</ele>
      </trkpt>
      <trkpt lat="45.40335142984986" lon="6.164013873785734">
        <time>2023-05-03T04:59:04+00:00</time>
        <ele>1015.0</ele>
      </trkpt>
      <trkpt lat="45.40321061387658" lon="6.164244376122952">
        <time>2023-05-03T04:59:15+00:00</time>
        <ele>1017.0</ele>
      </trkpt>
      <trkpt lat="45.40311665274203" lon="6.164493821561337">
        <time>2023-05-03T04:59:27+00:00</time>
        <ele>1019.0</ele>
      </trkpt>
      <trkpt lat="45.40304490365088" lon="6.164669506251812">
        <time>2023-05-03T04:59:36+00:00</time>
        <ele>1022.0</ele>
      </trkpt>
      <trkpt lat="45.403033923357725" lon="6.164690209552646">
        <time>2023-05-03T04:59:37+00:00</time>
        <ele>1022.0</ele>
      </trkpt>
      <trkpt lat="45.40299788117409" lon="6.164753576740623">
        <time>2023-05-03T04:59:40+00:00</time>
        <ele>1022.0</ele>
      </trkpt>
      <trkpt lat="45.40298631414771" lon="6.16477788425982">
        <time>2023-05-03T04:59:41+00:00</time>
        <ele>1023.0</ele>
      </trkpt>
      <trkpt lat="45.402974328026175" lon="6.164796240627766">
        <time>2023-05-03T04:59:42+00:00</time>
        <ele>1023.0</ele>
      </trkpt>
      <trkpt lat="45.40296225808561" lon="6.164817027747631">
        <time>2023-05-03T04:59:43+00:00</time>
        <ele>1023.0</ele>
      </trkpt>
      <trkpt lat="45.402951361611485" lon="6.164838317781687">
        <time>2023-05-03T04:59:44+00:00</time>
        <ele>1023.0</ele>
      </trkpt>
      <trkpt lat="45.402941135689616" lon="6.164852315559983">
        <time>2023-05-03T04:59:45+00:00</time>
        <ele>1023.0</ele>
      </trkpt>
      <trkpt lat="45.402934681624174" lon="6.164869666099548">
        <time>2023-05-03T04:59:46+00:00</time>
        <ele>1023.0</ele>
      </trkpt>
      <trkpt lat="45.40291733108461" lon="6.164903277531266">
        <time>2023-05-03T04:59:48+00:00</time>
        <ele>1024.0</ele>
      </trkpt>
      <trkpt lat="45.40290769189596" lon="6.164918784052134">
        <time>2023-05-03T04:59:49+00:00</time>
        <ele>1024.0</ele>
      </trkpt>
      <trkpt lat="45.40289830416441" lon="6.164937056601048">
        <time>2023-05-03T04:59:50+00:00</time>
        <ele>1024.0</ele>
      </trkpt>
      <trkpt lat="45.402891179546714" lon="6.16495817899704">
        <time>2023-05-03T04:59:51+00:00</time>
        <ele>1024.0</ele>
      </trkpt>
      <trkpt lat="45.40288304910064" lon="6.164975194260478">
        <time>2023-05-03T04:59:52+00:00</time>
        <ele>1024.0</ele>
      </trkpt>
      <trkpt lat="45.402872655540705" lon="6.164994556456804">
        <time>2023-05-03T04:59:53+00:00</time>
        <ele>1024.0</ele>
      </trkpt>
      <trkpt lat="45.40283594280481" lon="6.165067479014397">
        <time>2023-05-03T04:59:57+00:00</time>
        <ele>1026.0</ele>
      </trkpt>
      <trkpt lat="45.4028295725584" lon="6.165086925029755">
        <time>2023-05-03T04:59:58+00:00</time>
        <ele>1026.0</ele>
      </trkpt>
      <trkpt lat="45.40282152593136" lon="6.16510477848351">
        <time>2023-05-03T04:59:59+00:00</time>
        <ele>1026.0</ele>
      </trkpt>
      <trkpt lat="45.40280409157276" lon="6.165139982476831">
        <time>2023-05-03T05:00:01+00:00</time>
        <ele>1027.0</ele>
      </trkpt>
      <trkpt lat="45.40279436856508" lon="6.165154315531254">
        <time>2023-05-03T05:00:02+00:00</time>
        <ele>1027.0</ele>
      </trkpt>
      <trkpt lat="45.40278347209096" lon="6.165170576423407">
        <time>2023-05-03T05:00:03+00:00</time>
        <ele>1027.0</ele>
      </trkpt>
      <trkpt lat="45.40277232415974" lon="6.16518784314394">
        <time>2023-05-03T05:00:04+00:00</time>
        <ele>1027.0</ele>
      </trkpt>
      <trkpt lat="45.40265548042953" lon="6.165348691865802">
        <time>2023-05-03T05:00:15+00:00</time>
        <ele>1029.0</ele>
      </trkpt>
      <trkpt lat="45.40263888426125" lon="6.165346596390009">
        <time>2023-05-03T05:00:16+00:00</time>
        <ele>1029.0</ele>
      </trkpt>
      <trkpt lat="45.40262622758746" lon="6.165361348539591">
        <time>2023-05-03T05:00:17+00:00</time>
        <ele>1029.0</ele>
      </trkpt>
      <trkpt lat="45.40261331945658" lon="6.165370987728238">
        <time>2023-05-03T05:00:18+00:00</time>
        <ele>1029.0</ele>
      </trkpt>
      <trkpt lat="45.40260133333504" lon="6.165382722392678">
        <time>2023-05-03T05:00:19+00:00</time>
        <ele>1029.0</ele>
      </trkpt>
      <trkpt lat="45.40259093977511" lon="6.165394121780992">
        <time>2023-05-03T05:00:20+00:00</time>
        <ele>1029.0</ele>
      </trkpt>
      <trkpt lat="45.40257870219648" lon="6.165404012426734">
        <time>2023-05-03T05:00:21+00:00</time>
        <ele>1029.0</ele>
      </trkpt>
      <trkpt lat="45.402395809069276" lon="6.165473079308868">
        <time>2023-05-03T05:00:34+00:00</time>
        <ele>1032.0</ele>
      </trkpt>
      <trkpt lat="45.40221434086561" lon="6.165535692125559">
        <time>2023-05-03T05:00:46+00:00</time>
        <ele>1035.0</ele>
      </trkpt>
      <trkpt lat="45.40201300755143" lon="6.165550611913204">
        <time>2023-05-03T05:01:01+00:00</time>
        <ele>1037.0</ele>
      </trkpt>
      <trkpt lat="45.40181024931371" lon="6.165605932474136">
        <time>2023-05-03T05:01:14+00:00</time>
        <ele>1037.0</ele>
      </trkpt>
      <trkpt lat="45.401622243225574" lon="6.165723111480475">
        <time>2023-05-03T05:01:27+00:00</time>
        <ele>1040.0</ele>
      </trkpt>
      <trkpt lat="45.40148260071874" lon="6.165832411497831">
        <time>2023-05-03T05:01:42+00:00</time>
        <ele>1042.0</ele>
      </trkpt>
      <trkpt lat="45.401357375085354" lon="6.165933413431048">
        <time>2023-05-03T05:01:58+00:00</time>
        <ele>1045.0</ele>
      </trkpt>
      <trkpt lat="45.40119652636349" lon="6.165969036519527">
        <time>2023-05-03T05:02:14+00:00</time>
        <ele>1046.0</ele>
      </trkpt>
      <trkpt lat="45.401148833334446" lon="6.165984878316522">
        <time>2023-05-03T05:02:19+00:00</time>
        <ele>1047.0</ele>
      </trkpt>
      <trkpt lat="45.40112896822393" lon="6.166011113673449">
        <time>2023-05-03T05:02:21+00:00</time>
        <ele>1047.0</ele>
      </trkpt>
      <trkpt lat="45.40097205899656" lon="6.166116809472442">
        <time>2023-05-03T05:02:39+00:00</time>
        <ele>1050.0</ele>
      </trkpt>
      <trkpt lat="45.400899136438966" lon="6.166257290169597">
        <time>2023-05-03T05:02:55+00:00</time>
        <ele>1053.0</ele>
      </trkpt>
      <trkpt lat="45.40084817446768" lon="6.166420485824347">
        <time>2023-05-03T05:03:08+00:00</time>
        <ele>1055.0</ele>
      </trkpt>
      <trkpt lat="45.400761840865016" lon="6.166585022583604">
        <time>2023-05-03T05:03:24+00:00</time>
        <ele>1056.0</ele>
      </trkpt>
      <trkpt lat="45.40070727467537" lon="6.166705638170242">
        <time>2023-05-03T05:03:39+00:00</time>
        <ele>1057.0</ele>
      </trkpt>
      <trkpt lat="45.40069989860058" lon="6.16671871393919">
        <time>2023-05-03T05:03:40+00:00</time>
        <ele>1057.0</ele>
      </trkpt>
      <trkpt lat="45.400682212784886" lon="6.166750313714147">
        <time>2023-05-03T05:03:43+00:00</time>
        <ele>1057.0</ele>
      </trkpt>
      <trkpt lat="45.40066394023597" lon="6.166822481900454">
        <time>2023-05-03T05:03:48+00:00</time>
        <ele>1058.0</ele>
      </trkpt>
      <trkpt lat="45.40065270848572" lon="6.166840922087431">
        <time>2023-05-03T05:03:49+00:00</time>
        <ele>1057.0</ele>
      </trkpt>
      <trkpt lat="45.40064332075417" lon="6.166857266798616">
        <time>2023-05-03T05:03:50+00:00</time>
        <ele>1057.0</ele>
      </trkpt>
      <trkpt lat="45.40054701268673" lon="6.167188435792923">
        <time>2023-05-03T05:04:03+00:00</time>
        <ele>1060.0</ele>
      </trkpt>
      <trkpt lat="45.40054114535451" lon="6.167213916778565">
        <time>2023-05-03T05:04:05+00:00</time>
        <ele>1060.0</ele>
      </trkpt>
      <trkpt lat="45.400540474802256" lon="6.167264543473721">
        <time>2023-05-03T05:04:09+00:00</time>
        <ele>1061.0</ele>
      </trkpt>
      <trkpt lat="45.40053351782262" lon="6.167494878172875">
        <time>2023-05-03T05:04:27+00:00</time>
        <ele>1064.0</ele>
      </trkpt>
      <trkpt lat="45.40056033991277" lon="6.167687410488725">
        <time>2023-05-03T05:04:46+00:00</time>
        <ele>1067.0</ele>
      </trkpt>
      <trkpt lat="45.400605937466025" lon="6.167869297787547">
        <time>2023-05-03T05:05:05+00:00</time>
        <ele>1070.0</ele>
      </trkpt>
      <trkpt lat="45.400635190308094" lon="6.168058728799224">
        <time>2023-05-03T05:05:24+00:00</time>
        <ele>1074.0</ele>
      </trkpt>
      <trkpt lat="45.40064952336252" lon="6.168211279436946">
        <time>2023-05-03T05:05:43+00:00</time>
        <ele>1077.0</ele>
      </trkpt>
      <trkpt lat="45.40065404959023" lon="6.168340612202883">
        <time>2023-05-03T05:06:01+00:00</time>
        <ele>1079.0</ele>
      </trkpt>
      <trkpt lat="45.4006434045732" lon="6.168514117598534">
        <time>2023-05-03T05:06:19+00:00</time>
        <ele>1082.0</ele>
      </trkpt>
      <trkpt lat="45.400621527805924" lon="6.16867178119719">
        <time>2023-05-03T05:06:39+00:00</time>
        <ele>1085.0</ele>
      </trkpt>
      <trkpt lat="45.40057140402496" lon="6.168836737051606">
        <time>2023-05-03T05:06:57+00:00</time>
        <ele>1087.0</ele>
      </trkpt>
      <trkpt lat="45.400534607470036" lon="6.16898451000452">
        <time>2023-05-03T05:07:16+00:00</time>
        <ele>1089.0</ele>
      </trkpt>
      <trkpt lat="45.40051029995084" lon="6.169213587418199">
        <time>2023-05-03T05:07:38+00:00</time>
        <ele>1092.0</ele>
      </trkpt>
      <trkpt lat="45.40042472071946" lon="6.169390277937055">
        <time>2023-05-03T05:07:56+00:00</time>
        <ele>1095.0</ele>
      </trkpt>
      <trkpt lat="45.400361604988575" lon="6.169535452499986">
        <time>2023-05-03T05:08:17+00:00</time>
        <ele>1098.0</ele>
      </trkpt>
      <trkpt lat="45.40025096386671" lon="6.16969739086926">
        <time>2023-05-03T05:08:33+00:00</time>
        <ele>1101.0</ele>
      </trkpt>
      <trkpt lat="45.400169156491756" lon="6.169814066961408">
        <time>2023-05-03T05:08:54+00:00</time>
        <ele>1102.0</ele>
      </trkpt>
      <trkpt lat="45.40011417120695" lon="6.170003330335021">
        <time>2023-05-03T05:09:14+00:00</time>
        <ele>1106.0</ele>
      </trkpt>
      <trkpt lat="45.400078631937504" lon="6.170147331431508">
        <time>2023-05-03T05:09:30+00:00</time>
        <ele>1108.0</ele>
      </trkpt>
      <trkpt lat="45.40005390532315" lon="6.170294852927327">
        <time>2023-05-03T05:09:46+00:00</time>
        <ele>1111.0</ele>
      </trkpt>
      <trkpt lat="45.400019120424986" lon="6.170421419665217">
        <time>2023-05-03T05:10:02+00:00</time>
        <ele>1114.0</ele>
      </trkpt>
      <trkpt lat="45.400018617510796" lon="6.170533401891589">
        <time>2023-05-03T05:10:20+00:00</time>
        <ele>1118.0</ele>
      </trkpt>
      <trkpt lat="45.39988777600229" lon="6.170660303905606">
        <time>2023-05-03T05:10:48+00:00</time>
        <ele>1121.0</ele>
      </trkpt>
      <trkpt lat="45.39979859255254" lon="6.1707694362849">
        <time>2023-05-03T05:11:02+00:00</time>
        <ele>1123.0</ele>
      </trkpt>
      <trkpt lat="45.39970848709345" lon="6.170926848426461">
        <time>2023-05-03T05:11:20+00:00</time>
        <ele>1126.0</ele>
      </trkpt>
      <trkpt lat="45.39956917986274" lon="6.171149220317602">
        <time>2023-05-03T05:11:39+00:00</time>
        <ele>1130.0</ele>
      </trkpt>
      <trkpt lat="45.399551996961236" lon="6.171169923618436">
        <time>2023-05-03T05:11:41+00:00</time>
        <ele>1130.0</ele>
      </trkpt>
      <trkpt lat="45.399425346404314" lon="6.171337980777025">
        <time>2023-05-03T05:11:59+00:00</time>
        <ele>1134.0</ele>
      </trkpt>
      <trkpt lat="45.3993862029165" lon="6.171360611915588">
        <time>2023-05-03T05:12:05+00:00</time>
        <ele>1134.0</ele>
      </trkpt>
      <trkpt lat="45.39920733310282" lon="6.171463206410408">
        <time>2023-05-03T05:12:23+00:00</time>
        <ele>1137.0</ele>
      </trkpt>
      <trkpt lat="45.39919652044773" lon="6.171474354341626">
        <time>2023-05-03T05:12:24+00:00</time>
        <ele>1137.0</ele>
      </trkpt>
      <trkpt lat="45.39904220961034" lon="6.171583235263825">
        <time>2023-05-03T05:12:39+00:00</time>
        <ele>1139.0</ele>
      </trkpt>
      <trkpt lat="45.398884546011686" lon="6.171660348773003">
        <time>2023-05-03T05:12:55+00:00</time>
        <ele>1141.0</ele>
      </trkpt>
      <trkpt lat="45.39868472144008" lon="6.171768559142947">
        <time>2023-05-03T05:13:17+00:00</time>
        <ele>1143.0</ele>
      </trkpt>
      <trkpt lat="45.398541893810034" lon="6.171904010698199">
        <time>2023-05-03T05:13:32+00:00</time>
        <ele>1145.0</ele>
      </trkpt>
      <trkpt lat="45.39838498458266" lon="6.172056058421731">
        <time>2023-05-03T05:13:50+00:00</time>
        <ele>1148.0</ele>
      </trkpt>
      <trkpt lat="45.39831759408116" lon="6.172174075618386">
        <time>2023-05-03T05:14:08+00:00</time>
        <ele>1151.0</ele>
      </trkpt>
      <trkpt lat="45.39826311171055" lon="6.172320256009698">
        <time>2023-05-03T05:14:27+00:00</time>
        <ele>1154.0</ele>
      </trkpt>
      <trkpt lat="45.398147692903876" lon="6.172449421137571">
        <time>2023-05-03T05:14:48+00:00</time>
        <ele>1156.0</ele>
      </trkpt>
      <trkpt lat="45.39808843284845" lon="6.172616640105844">
        <time>2023-05-03T05:15:06+00:00</time>
        <ele>1160.0</ele>
      </trkpt>
      <trkpt lat="45.39805054664612" lon="6.172740440815687">
        <time>2023-05-03T05:15:20+00:00</time>
        <ele>1162.0</ele>
      </trkpt>
      <trkpt lat="45.39799204096198" lon="6.172871785238385">
        <time>2023-05-03T05:15:37+00:00</time>
        <ele>1165.0</ele>
      </trkpt>
      <trkpt lat="45.39791534654796" lon="6.172942612320185">
        <time>2023-05-03T05:15:54+00:00</time>
        <ele>1165.0</ele>
      </trkpt>
      <trkpt lat="45.39786698296666" lon="6.173090804368258">
        <time>2023-05-03T05:16:15+00:00</time>
        <ele>1167.0</ele>
      </trkpt>
      <trkpt lat="45.39781962521374" lon="6.173240756615996">
        <time>2023-05-03T05:16:29+00:00</time>
        <ele>1169.0</ele>
      </trkpt>
      <trkpt lat="45.39777059108019" lon="6.173437898978591">
        <time>2023-05-03T05:16:46+00:00</time>
        <ele>1173.0</ele>
      </trkpt>
      <trkpt lat="45.39765860885382" lon="6.173649458214641">
        <time>2023-05-03T05:17:05+00:00</time>
        <ele>1179.0</ele>
      </trkpt>
      <trkpt lat="45.397548638284206" lon="6.173788597807288">
        <time>2023-05-03T05:17:20+00:00</time>
        <ele>1182.0</ele>
      </trkpt>
      <trkpt lat="45.397432297468185" lon="6.173985237255693">
        <time>2023-05-03T05:17:39+00:00</time>
        <ele>1185.0</ele>
      </trkpt>
      <trkpt lat="45.397340347990394" lon="6.174143236130476">
        <time>2023-05-03T05:17:54+00:00</time>
        <ele>1187.0</ele>
      </trkpt>
      <trkpt lat="45.39721101522446" lon="6.174330906942487">
        <time>2023-05-03T05:18:11+00:00</time>
        <ele>1190.0</ele>
      </trkpt>
      <trkpt lat="45.39708218537271" lon="6.174539783969522">
        <time>2023-05-03T05:18:27+00:00</time>
        <ele>1196.0</ele>
      </trkpt>
      <trkpt lat="45.39693173021078" lon="6.174623938277364">
        <time>2023-05-03T05:18:42+00:00</time>
        <ele>1198.0</ele>
      </trkpt>
      <trkpt lat="45.39681782014668" lon="6.174674648791552">
        <time>2023-05-03T05:18:55+00:00</time>
        <ele>1197.0</ele>
      </trkpt>
      <trkpt lat="45.396709609776735" lon="6.174712115898728">
        <time>2023-05-03T05:19:14+00:00</time>
        <ele>1195.0</ele>
      </trkpt>
      <trkpt lat="45.39664448238909" lon="6.17485829629004">
        <time>2023-05-03T05:19:32+00:00</time>
        <ele>1197.0</ele>
      </trkpt>
      <trkpt lat="45.396569883450866" lon="6.175026353448629">
        <time>2023-05-03T05:19:48+00:00</time>
        <ele>1200.0</ele>
      </trkpt>
      <trkpt lat="45.396513137966394" lon="6.175137329846621">
        <time>2023-05-03T05:20:05+00:00</time>
        <ele>1202.0</ele>
      </trkpt>
      <trkpt lat="45.396483382210135" lon="6.175321061164141">
        <time>2023-05-03T05:20:24+00:00</time>
        <ele>1205.0</ele>
      </trkpt>
      <trkpt lat="45.396418841555715" lon="6.175529519096017">
        <time>2023-05-03T05:20:44+00:00</time>
        <ele>1208.0</ele>
      </trkpt>
      <trkpt lat="45.39639662951231" lon="6.175588108599186">
        <time>2023-05-03T05:20:50+00:00</time>
        <ele>1209.0</ele>
      </trkpt>
      <trkpt lat="45.39636796340346" lon="6.175692211836577">
        <time>2023-05-03T05:21:08+00:00</time>
        <ele>1210.0</ele>
      </trkpt>
      <trkpt lat="45.39639419876039" lon="6.175738982856274">
        <time>2023-05-03T05:21:49+00:00</time>
        <ele>1213.0</ele>
      </trkpt>
      <trkpt lat="45.39636821486056" lon="6.175804529339075">
        <time>2023-05-03T05:22:35+00:00</time>
        <ele>1213.0</ele>
      </trkpt>
      <trkpt lat="45.396275175735354" lon="6.175974346697331">
        <time>2023-05-03T05:22:53+00:00</time>
        <ele>1215.0</ele>
      </trkpt>
      <trkpt lat="45.396210215985775" lon="6.176097895950079">
        <time>2023-05-03T05:23:04+00:00</time>
        <ele>1216.0</ele>
      </trkpt>
      <trkpt lat="45.39612145163119" lon="6.176305934786797">
        <time>2023-05-03T05:23:19+00:00</time>
        <ele>1216.0</ele>
      </trkpt>
      <trkpt lat="45.39609110914171" lon="6.176513889804483">
        <time>2023-05-03T05:23:32+00:00</time>
        <ele>1221.0</ele>
      </trkpt>
      <trkpt lat="45.3960638679564" lon="6.176606677472591">
        <time>2023-05-03T05:23:40+00:00</time>
        <ele>1223.0</ele>
      </trkpt>
      <trkpt lat="45.39595942944288" lon="6.176727041602135">
        <time>2023-05-03T05:23:55+00:00</time>
        <ele>1225.0</ele>
      </trkpt>
      <trkpt lat="45.39592741057277" lon="6.176764508709312">
        <time>2023-05-03T05:24:00+00:00</time>
        <ele>1225.0</ele>
      </trkpt>
      <trkpt lat="45.39587762206793" lon="6.176826031878591">
        <time>2023-05-03T05:24:04+00:00</time>
        <ele>1226.0</ele>
      </trkpt>
      <trkpt lat="45.39570570923388" lon="6.176954945549369">
        <time>2023-05-03T05:24:15+00:00</time>
        <ele>1228.0</ele>
      </trkpt>
      <trkpt lat="45.39553044363856" lon="6.177116967737675">
        <time>2023-05-03T05:24:26+00:00</time>
        <ele>1228.0</ele>
      </trkpt>
      <trkpt lat="45.39545349776745" lon="6.177240097895265">
        <time>2023-05-03T05:24:33+00:00</time>
        <ele>1230.0</ele>
      </trkpt>
      <trkpt lat="45.39527705870569" lon="6.177436904981732">
        <time>2023-05-03T05:24:45+00:00</time>
        <ele>1233.0</ele>
      </trkpt>
      <trkpt lat="45.395127357915044" lon="6.177554838359356">
        <time>2023-05-03T05:24:54+00:00</time>
        <ele>1234.0</ele>
      </trkpt>
      <trkpt lat="45.39486223831773" lon="6.177778635174036">
        <time>2023-05-03T05:25:10+00:00</time>
        <ele>1235.0</ele>
      </trkpt>
      <trkpt lat="45.394628047943115" lon="6.178047945722938">
        <time>2023-05-03T05:25:26+00:00</time>
        <ele>1235.0</ele>
      </trkpt>
      <trkpt lat="45.394380362704396" lon="6.178395543247461">
        <time>2023-05-03T05:25:42+00:00</time>
        <ele>1237.0</ele>
      </trkpt>
      <trkpt lat="45.39419445209205" lon="6.17862612940371">
        <time>2023-05-03T05:25:54+00:00</time>
        <ele>1241.0</ele>
      </trkpt>
      <trkpt lat="45.393884405493736" lon="6.178820421919227">
        <time>2023-05-03T05:26:08+00:00</time>
        <ele>1242.0</ele>
      </trkpt>
      <trkpt lat="45.3935357183218" lon="6.179116303101182">
        <time>2023-05-03T05:26:24+00:00</time>
        <ele>1241.0</ele>
      </trkpt>
      <trkpt lat="45.3932939004153" lon="6.179383266717196">
        <time>2023-05-03T05:26:35+00:00</time>
        <ele>1242.0</ele>
      </trkpt>
      <trkpt lat="45.39302425459027" lon="6.179533889517188">
        <time>2023-05-03T05:26:46+00:00</time>
        <ele>1242.0</ele>
      </trkpt>
      <trkpt lat="45.392760476097465" lon="6.179734049364924">
        <time>2023-05-03T05:27:00+00:00</time>
        <ele>1241.0</ele>
      </trkpt>
      <trkpt lat="45.39268344640732" lon="6.179784927517176">
        <time>2023-05-03T05:27:04+00:00</time>
        <ele>1241.0</ele>
      </trkpt>
      <trkpt lat="45.39266609586775" lon="6.179793477058411">
        <time>2023-05-03T05:27:05+00:00</time>
        <ele>1241.0</ele>
      </trkpt>
      <trkpt lat="45.392329981550574" lon="6.18000109679997">
        <time>2023-05-03T05:27:19+00:00</time>
        <ele>1246.0</ele>
      </trkpt>
      <trkpt lat="45.39202840067446" lon="6.179973101243377">
        <time>2023-05-03T05:27:32+00:00</time>
        <ele>1248.0</ele>
      </trkpt>
      <trkpt lat="45.39168884977698" lon="6.180000426247716">
        <time>2023-05-03T05:27:47+00:00</time>
        <ele>1245.0</ele>
      </trkpt>
      <trkpt lat="45.39148977957666" lon="6.180192288011313">
        <time>2023-05-03T05:27:59+00:00</time>
        <ele>1246.0</ele>
      </trkpt>
      <trkpt lat="45.39123807102442" lon="6.180399069562554">
        <time>2023-05-03T05:28:10+00:00</time>
        <ele>1247.0</ele>
      </trkpt>
      <trkpt lat="45.390893910080194" lon="6.180524379014969">
        <time>2023-05-03T05:28:23+00:00</time>
        <ele>1248.0</ele>
      </trkpt>
      <trkpt lat="45.39049954153597" lon="6.180609371513128">
        <time>2023-05-03T05:28:37+00:00</time>
        <ele>1249.0</ele>
      </trkpt>
      <trkpt lat="45.39017549715936" lon="6.180690005421639">
        <time>2023-05-03T05:28:48+00:00</time>
        <ele>1248.0</ele>
      </trkpt>
      <trkpt lat="45.389829659834504" lon="6.180524630472064">
        <time>2023-05-03T05:29:00+00:00</time>
        <ele>1246.0</ele>
      </trkpt>
      <trkpt lat="45.38946236483753" lon="6.180306198075414">
        <time>2023-05-03T05:29:15+00:00</time>
        <ele>1247.0</ele>
      </trkpt>
      <trkpt lat="45.38916187360883" lon="6.180182984098792">
        <time>2023-05-03T05:29:28+00:00</time>
        <ele>1247.0</ele>
      </trkpt>
      <trkpt lat="45.388844199478626" lon="6.18020536378026">
        <time>2023-05-03T05:29:39+00:00</time>
        <ele>1248.0</ele>
      </trkpt>
      <trkpt lat="45.38845335133374" lon="6.180254817008972">
        <time>2023-05-03T05:29:52+00:00</time>
        <ele>1248.0</ele>
      </trkpt>
      <trkpt lat="45.388197703287005" lon="6.180380713194609">
        <time>2023-05-03T05:30:04+00:00</time>
        <ele>1248.0</ele>
      </trkpt>
      <trkpt lat="45.38791556842625" lon="6.18052831850946">
        <time>2023-05-03T05:30:16+00:00</time>
        <ele>1249.0</ele>
      </trkpt>
      <trkpt lat="45.387629410251975" lon="6.180669134482741">
        <time>2023-05-03T05:30:29+00:00</time>
        <ele>1253.0</ele>
      </trkpt>
      <trkpt lat="45.387613736093044" lon="6.180669218301773">
        <time>2023-05-03T05:30:30+00:00</time>
        <ele>1253.0</ele>
      </trkpt>
      <trkpt lat="45.38759730756283" lon="6.180684054270387">
        <time>2023-05-03T05:30:31+00:00</time>
        <ele>1253.0</ele>
      </trkpt>
      <trkpt lat="45.38757526315749" lon="6.180683886632323">
        <time>2023-05-03T05:30:32+00:00</time>
        <ele>1253.0</ele>
      </trkpt>
      <trkpt lat="45.387539975345135" lon="6.1806954536587">
        <time>2023-05-03T05:30:34+00:00</time>
        <ele>1253.0</ele>
      </trkpt>
      <trkpt lat="45.38752078078687" lon="6.18070375174284">
        <time>2023-05-03T05:30:35+00:00</time>
        <ele>1254.0</ele>
      </trkpt>
      <trkpt lat="45.387499406933784" lon="6.180712720379233">
        <time>2023-05-03T05:30:36+00:00</time>
        <ele>1254.0</ele>
      </trkpt>
      <trkpt lat="45.38747820071876" lon="6.180718000978231">
        <time>2023-05-03T05:30:37+00:00</time>
        <ele>1254.0</ele>
      </trkpt>
      <trkpt lat="45.38745976053178" lon="6.180723365396261">
        <time>2023-05-03T05:30:38+00:00</time>
        <ele>1254.0</ele>
      </trkpt>
      <trkpt lat="45.38744140416384" lon="6.180736776441336">
        <time>2023-05-03T05:30:39+00:00</time>
        <ele>1255.0</ele>
      </trkpt>
      <trkpt lat="45.38742447271943" lon="6.180745661258698">
        <time>2023-05-03T05:30:40+00:00</time>
        <ele>1255.0</ele>
      </trkpt>
      <trkpt lat="45.387406619265676" lon="6.18075211532414">
        <time>2023-05-03T05:30:41+00:00</time>
        <ele>1255.0</ele>
      </trkpt>
      <trkpt lat="45.38738960400224" lon="6.180759826675057">
        <time>2023-05-03T05:30:42+00:00</time>
        <ele>1255.0</ele>
      </trkpt>
      <trkpt lat="45.38737175054848" lon="6.180767621845007">
        <time>2023-05-03T05:30:43+00:00</time>
        <ele>1256.0</ele>
      </trkpt>
      <trkpt lat="45.38719422183931" lon="6.180835012346506">
        <time>2023-05-03T05:30:56+00:00</time>
        <ele>1258.0</ele>
      </trkpt>
      <trkpt lat="45.387159772217274" lon="6.180813135579228">
        <time>2023-05-03T05:31:25+00:00</time>
        <ele>1257.0</ele>
      </trkpt>
      <trkpt lat="45.3871532343328" lon="6.180769549682736">
        <time>2023-05-03T05:32:16+00:00</time>
        <ele>1256.0</ele>
      </trkpt>
      <trkpt lat="45.38709120824933" lon="6.180844567716122">
        <time>2023-05-03T05:32:39+00:00</time>
        <ele>1259.0</ele>
      </trkpt>
      <trkpt lat="45.386952906847" lon="6.180930649861693">
        <time>2023-05-03T05:33:00+00:00</time>
        <ele>1261.0</ele>
      </trkpt>
      <trkpt lat="45.386920385062695" lon="6.180955627933145">
        <time>2023-05-03T05:33:09+00:00</time>
        <ele>1261.0</ele>
      </trkpt>
      <trkpt lat="45.38688828237355" lon="6.180978594347835">
        <time>2023-05-03T05:33:12+00:00</time>
        <ele>1262.0</ele>
      </trkpt>
      <trkpt lat="45.38687713444233" lon="6.18098814971745">
        <time>2023-05-03T05:33:13+00:00</time>
        <ele>1262.0</ele>
      </trkpt>
      <trkpt lat="45.386865735054016" lon="6.180993681773543">
        <time>2023-05-03T05:33:14+00:00</time>
        <ele>1262.0</ele>
      </trkpt>
      <trkpt lat="45.386855425313115" lon="6.181002818048">
        <time>2023-05-03T05:33:15+00:00</time>
        <ele>1262.0</ele>
      </trkpt>
      <trkpt lat="45.38684352301061" lon="6.181009355932474">
        <time>2023-05-03T05:33:16+00:00</time>
        <ele>1262.0</ele>
      </trkpt>
      <trkpt lat="45.38683069869876" lon="6.181013630703092">
        <time>2023-05-03T05:33:17+00:00</time>
        <ele>1262.0</ele>
      </trkpt>
      <trkpt lat="45.38681896403432" lon="6.181018659844995">
        <time>2023-05-03T05:33:18+00:00</time>
        <ele>1262.0</ele>
      </trkpt>
      <trkpt lat="45.386808570474386" lon="6.18102578446269">
        <time>2023-05-03T05:33:19+00:00</time>
        <ele>1262.0</ele>
      </trkpt>
      <trkpt lat="45.38666951470077" lon="6.181108681485057">
        <time>2023-05-03T05:33:34+00:00</time>
        <ele>1264.0</ele>
      </trkpt>
      <trkpt lat="45.38656407035887" lon="6.181218652054668">
        <time>2023-05-03T05:33:47+00:00</time>
        <ele>1267.0</ele>
      </trkpt>
      <trkpt lat="45.38645510561764" lon="6.181298112496734">
        <time>2023-05-03T05:33:56+00:00</time>
        <ele>1269.0</ele>
      </trkpt>
      <trkpt lat="45.386257292702794" lon="6.181398192420602">
        <time>2023-05-03T05:34:13+00:00</time>
        <ele>1274.0</ele>
      </trkpt>
      <trkpt lat="45.38609929382801" lon="6.181432642042637">
        <time>2023-05-03T05:34:32+00:00</time>
        <ele>1276.0</ele>
      </trkpt>
      <trkpt lat="45.386051097884774" lon="6.181449657306075">
        <time>2023-05-03T05:35:01+00:00</time>
        <ele>1276.0</ele>
      </trkpt>
      <trkpt lat="45.38603466935456" lon="6.181458542123437">
        <time>2023-05-03T05:35:03+00:00</time>
        <ele>1277.0</ele>
      </trkpt>
      <trkpt lat="45.38590877316892" lon="6.181519394740462">
        <time>2023-05-03T05:35:18+00:00</time>
        <ele>1280.0</ele>
      </trkpt>
      <trkpt lat="45.38580517284572" lon="6.181556358933449">
        <time>2023-05-03T05:35:30+00:00</time>
        <ele>1282.0</ele>
      </trkpt>
      <trkpt lat="45.385657316073775" lon="6.181625677272677">
        <time>2023-05-03T05:35:45+00:00</time>
        <ele>1285.0</ele>
      </trkpt>
      <trkpt lat="45.38560836575925" lon="6.181634310632944">
        <time>2023-05-03T05:35:50+00:00</time>
        <ele>1285.0</ele>
      </trkpt>
      <trkpt lat="45.38547442294657" lon="6.181655516847968">
        <time>2023-05-03T05:36:06+00:00</time>
        <ele>1286.0</ele>
      </trkpt>
      <trkpt lat="45.385314328595996" lon="6.181720895692706">
        <time>2023-05-03T05:36:26+00:00</time>
        <ele>1287.0</ele>
      </trkpt>
      <trkpt lat="45.385169154033065" lon="6.181842852383852">
        <time>2023-05-03T05:36:45+00:00</time>
        <ele>1289.0</ele>
      </trkpt>
      <trkpt lat="45.38514635525644" lon="6.181850899010897">
        <time>2023-05-03T05:36:47+00:00</time>
        <ele>1289.0</ele>
      </trkpt>
      <trkpt lat="45.38504786789417" lon="6.181909572333098">
        <time>2023-05-03T05:37:06+00:00</time>
        <ele>1290.0</ele>
      </trkpt>
      <trkpt lat="45.38499204441905" lon="6.181898508220911">
        <time>2023-05-03T05:37:17+00:00</time>
        <ele>1289.0</ele>
      </trkpt>
      <trkpt lat="45.38491300307214" lon="6.181880570948124">
        <time>2023-05-03T05:40:36+00:00</time>
        <ele>1288.0</ele>
      </trkpt>
      <trkpt lat="45.38493890315294" lon="6.18199959397316">
        <time>2023-05-03T05:42:59+00:00</time>
        <ele>1291.0</ele>
      </trkpt>
      <trkpt lat="45.38487327285111" lon="6.182107636705041">
        <time>2023-05-03T05:43:09+00:00</time>
        <ele>1294.0</ele>
      </trkpt>
      <trkpt lat="45.38477453403175" lon="6.182247195392847">
        <time>2023-05-03T05:43:23+00:00</time>
        <ele>1297.0</ele>
      </trkpt>
      <trkpt lat="45.38474494591355" lon="6.182323805987835">
        <time>2023-05-03T05:43:32+00:00</time>
        <ele>1299.0</ele>
      </trkpt>
      <trkpt lat="45.38473119959235" lon="6.18236605077982">
        <time>2023-05-03T05:43:35+00:00</time>
        <ele>1300.0</ele>
      </trkpt>
      <trkpt lat="45.38467235863209" lon="6.182474847882986">
        <time>2023-05-03T05:43:55+00:00</time>
        <ele>1303.0</ele>
      </trkpt>
      <trkpt lat="45.38455576635897" lon="6.182577274739742">
        <time>2023-05-03T05:44:18+00:00</time>
        <ele>1305.0</ele>
      </trkpt>
      <trkpt lat="45.38455358706415" lon="6.182607030496001">
        <time>2023-05-03T05:44:21+00:00</time>
        <ele>1305.0</ele>
      </trkpt>
      <trkpt lat="45.38444805890322" lon="6.182855386286974">
        <time>2023-05-03T05:44:40+00:00</time>
        <ele>1310.0</ele>
      </trkpt>
      <trkpt lat="45.38443598896265" lon="6.183000896126032">
        <time>2023-05-03T05:44:57+00:00</time>
        <ele>1314.0</ele>
      </trkpt>
      <trkpt lat="45.38443565368652" lon="6.183005841448903">
        <time>2023-05-03T05:44:58+00:00</time>
        <ele>1314.0</ele>
      </trkpt>
      <trkpt lat="45.38445602171123" lon="6.183144981041551">
        <time>2023-05-03T05:45:33+00:00</time>
        <ele>1318.0</ele>
      </trkpt>
      <trkpt lat="45.38442433811724" lon="6.183350589126349">
        <time>2023-05-03T05:45:53+00:00</time>
        <ele>1323.0</ele>
      </trkpt>
      <trkpt lat="45.38442534394562" lon="6.183353858068585">
        <time>2023-05-03T05:45:54+00:00</time>
        <ele>1323.0</ele>
      </trkpt>
      <trkpt lat="45.38439298979938" lon="6.183424852788448">
        <time>2023-05-03T05:46:04+00:00</time>
        <ele>1325.0</ele>
      </trkpt>
      <trkpt lat="45.384368263185024" lon="6.183466259390116">
        <time>2023-05-03T05:46:12+00:00</time>
        <ele>1326.0</ele>
      </trkpt>
      <trkpt lat="45.3843610547483" lon="6.183478413149715">
        <time>2023-05-03T05:46:14+00:00</time>
        <ele>1326.0</ele>
      </trkpt>
      <trkpt lat="45.38432409055531" lon="6.183503475040197">
        <time>2023-05-03T05:46:17+00:00</time>
        <ele>1326.0</ele>
      </trkpt>
      <trkpt lat="45.38426348939538" lon="6.183620905503631">
        <time>2023-05-03T05:46:27+00:00</time>
        <ele>1330.0</ele>
      </trkpt>
      <trkpt lat="45.38424144499004" lon="6.183730289340019">
        <time>2023-05-03T05:46:38+00:00</time>
        <ele>1334.0</ele>
      </trkpt>
      <trkpt lat="45.38407891988754" lon="6.183887617662549">
        <time>2023-05-03T05:46:58+00:00</time>
        <ele>1341.0</ele>
      </trkpt>
      <trkpt lat="45.38404514081776" lon="6.183981159701943">
        <time>2023-05-03T05:47:12+00:00</time>
        <ele>1345.0</ele>
      </trkpt>
      <trkpt lat="45.383975403383374" lon="6.184028349816799">
        <time>2023-05-03T05:47:27+00:00</time>
        <ele>1347.0</ele>
      </trkpt>
      <trkpt lat="45.38394103758037" lon="6.184056093916297">
        <time>2023-05-03T05:47:40+00:00</time>
        <ele>1349.0</ele>
      </trkpt>
      <trkpt lat="45.38381597958505" lon="6.184129687026143">
        <time>2023-05-03T05:47:58+00:00</time>
        <ele>1352.0</ele>
      </trkpt>
      <trkpt lat="45.38371363654733" lon="6.184119796380401">
        <time>2023-05-03T05:48:15+00:00</time>
        <ele>1353.0</ele>
      </trkpt>
      <trkpt lat="45.383571814745665" lon="6.184118706732988">
        <time>2023-05-03T05:48:30+00:00</time>
        <ele>1354.0</ele>
      </trkpt>
      <trkpt lat="45.38352663628757" lon="6.184120550751686">
        <time>2023-05-03T05:48:33+00:00</time>
        <ele>1355.0</ele>
      </trkpt>
      <trkpt lat="45.38335371762514" lon="6.184160532429814">
        <time>2023-05-03T05:48:51+00:00</time>
        <ele>1359.0</ele>
      </trkpt>
      <trkpt lat="45.38317836821079" lon="6.184173775836825">
        <time>2023-05-03T05:49:02+00:00</time>
        <ele>1362.0</ele>
      </trkpt>
      <trkpt lat="45.38301668129861" lon="6.184072941541672">
        <time>2023-05-03T05:49:26+00:00</time>
        <ele>1361.0</ele>
      </trkpt>
      <trkpt lat="45.382920037955046" lon="6.184045197442174">
        <time>2023-05-03T05:49:47+00:00</time>
        <ele>1363.0</ele>
      </trkpt>
      <trkpt lat="45.382820293307304" lon="6.184030193835497">
        <time>2023-05-03T05:50:02+00:00</time>
        <ele>1364.0</ele>
      </trkpt>
      <trkpt lat="45.38281626999378" lon="6.184055171906948">
        <time>2023-05-03T05:50:05+00:00</time>
        <ele>1365.0</ele>
      </trkpt>
      <trkpt lat="45.382767068222165" lon="6.184164304286242">
        <time>2023-05-03T05:50:20+00:00</time>
        <ele>1368.0</ele>
      </trkpt>
      <trkpt lat="45.382777210325" lon="6.184252481907606">
        <time>2023-05-03T05:50:32+00:00</time>
        <ele>1370.0</ele>
      </trkpt>
      <trkpt lat="45.38274527527392" lon="6.184297744184732">
        <time>2023-05-03T05:50:46+00:00</time>
        <ele>1372.0</ele>
      </trkpt>
      <trkpt lat="45.38266112096608" lon="6.184338564053178">
        <time>2023-05-03T05:51:03+00:00</time>
        <ele>1375.0</ele>
      </trkpt>
      <trkpt lat="45.38247847929597" lon="6.184418527409434">
        <time>2023-05-03T05:51:21+00:00</time>
        <ele>1380.0</ele>
      </trkpt>
      <trkpt lat="45.38235082291067" lon="6.184373097494245">
        <time>2023-05-03T05:51:36+00:00</time>
        <ele>1382.0</ele>
      </trkpt>
      <trkpt lat="45.38233296945691" lon="6.184375192970038">
        <time>2023-05-03T05:51:40+00:00</time>
        <ele>1383.0</ele>
      </trkpt>
      <trkpt lat="45.38223188370466" lon="6.184367733076215">
        <time>2023-05-03T05:51:56+00:00</time>
        <ele>1384.0</ele>
      </trkpt>
      <trkpt lat="45.38212669081986" lon="6.184381898492575">
        <time>2023-05-03T05:52:12+00:00</time>
        <ele>1386.0</ele>
      </trkpt>
      <trkpt lat="45.382004817947745" lon="6.184442583471537">
        <time>2023-05-03T05:52:31+00:00</time>
        <ele>1388.0</ele>
      </trkpt>
      <trkpt lat="45.38185444660485" lon="6.184552386403084">
        <time>2023-05-03T05:52:47+00:00</time>
        <ele>1391.0</ele>
      </trkpt>
      <trkpt lat="45.38173877634108" lon="6.184641066938639">
        <time>2023-05-03T05:52:59+00:00</time>
        <ele>1393.0</ele>
      </trkpt>
      <trkpt lat="45.381698878481984" lon="6.184665793552995">
        <time>2023-05-03T05:53:02+00:00</time>
        <ele>1394.0</ele>
      </trkpt>
      <trkpt lat="45.381607515737414" lon="6.184711726382375">
        <time>2023-05-03T05:53:09+00:00</time>
        <ele>1396.0</ele>
      </trkpt>
      <trkpt lat="45.3815028257668" lon="6.184719437733293">
        <time>2023-05-03T05:53:23+00:00</time>
        <ele>1398.0</ele>
      </trkpt>
      <trkpt lat="45.381467370316386" lon="6.18471541441977">
        <time>2023-05-03T05:53:27+00:00</time>
        <ele>1398.0</ele>
      </trkpt>
      <trkpt lat="45.38140366785228" lon="6.184706278145313">
        <time>2023-05-03T05:53:34+00:00</time>
        <ele>1399.0</ele>
      </trkpt>
      <trkpt lat="45.38126461207867" lon="6.184661099687219">
        <time>2023-05-03T05:53:50+00:00</time>
        <ele>1400.0</ele>
      </trkpt>
      <trkpt lat="45.38111021742225" lon="6.184634529054165">
        <time>2023-05-03T05:54:05+00:00</time>
        <ele>1401.0</ele>
      </trkpt>
      <trkpt lat="45.38094769231975" lon="6.18463528342545">
        <time>2023-05-03T05:54:23+00:00</time>
        <ele>1403.0</ele>
      </trkpt>
      <trkpt lat="45.38076966069639" lon="6.184755060821772">
        <time>2023-05-03T05:54:38+00:00</time>
        <ele>1408.0</ele>
      </trkpt>
      <trkpt lat="45.38063948974013" lon="6.184858912602067">
        <time>2023-05-03T05:54:53+00:00</time>
        <ele>1410.0</ele>
      </trkpt>
      <trkpt lat="45.380486603826284" lon="6.184939630329609">
        <time>2023-05-03T05:55:10+00:00</time>
        <ele>1414.0</ele>
      </trkpt>
      <trkpt lat="45.3803494758904" lon="6.185034262016416">
        <time>2023-05-03T05:55:25+00:00</time>
        <ele>1419.0</ele>
      </trkpt>
      <trkpt lat="45.38022433407605" lon="6.185065945610404">
        <time>2023-05-03T05:55:42+00:00</time>
        <ele>1422.0</ele>
      </trkpt>
      <trkpt lat="45.38020304404199" lon="6.185047002509236">
        <time>2023-05-03T05:55:58+00:00</time>
        <ele>1422.0</ele>
      </trkpt>
      <trkpt lat="45.38014395162463" lon="6.185074578970671">
        <time>2023-05-03T05:56:05+00:00</time>
        <ele>1423.0</ele>
      </trkpt>
      <trkpt lat="45.37998293526471" lon="6.185203995555639">
        <time>2023-05-03T05:56:24+00:00</time>
        <ele>1428.0</ele>
      </trkpt>
      <trkpt lat="45.3798761498183" lon="6.185265854001045">
        <time>2023-05-03T05:56:39+00:00</time>
        <ele>1431.0</ele>
      </trkpt>
      <trkpt lat="45.37973307073116" lon="6.185358725488186">
        <time>2023-05-03T05:56:56+00:00</time>
        <ele>1435.0</ele>
      </trkpt>
      <trkpt lat="45.379671547561884" lon="6.185391079634428">
        <time>2023-05-03T06:00:33+00:00</time>
        <ele>1437.0</ele>
      </trkpt>
      <trkpt lat="45.37955990061164" lon="6.185526866465807">
        <time>2023-05-03T12:39:40+00:00</time>
        <ele>1442.0</ele>
      </trkpt>
      <trkpt lat="45.379480607807636" lon="6.185602135956287">
        <time>2023-05-03T12:39:31+00:00</time>
        <ele>1445.0</ele>
      </trkpt>
      <trkpt lat="45.379383377730846" lon="6.185696851462126">
        <time>2023-05-03T12:39:20+00:00</time>
        <ele>1448.0</ele>
      </trkpt>
      <trkpt lat="45.379276340827346" lon="6.185829704627395">
        <time>2023-05-03T12:39:07+00:00</time>
        <ele>1453.0</ele>
      </trkpt>
      <trkpt lat="45.37922571413219" lon="6.185908829793334">
        <time>2023-05-03T12:38:59+00:00</time>
        <ele>1455.0</ele>
      </trkpt>
      <trkpt lat="45.37909923121333" lon="6.18589885532856">
        <time>2023-05-03T12:38:40+00:00</time>
        <ele>1456.0</ele>
      </trkpt>
      <trkpt lat="45.37894542329013" lon="6.185934981331229">
        <time>2023-05-03T12:38:27+00:00</time>
        <ele>1457.0</ele>
      </trkpt>
      <trkpt lat="45.37883369252086" lon="6.186012765392661">
        <time>2023-05-03T12:38:14+00:00</time>
        <ele>1459.0</ele>
      </trkpt>
      <trkpt lat="45.37875062786043" lon="6.186125418171287">
        <time>2023-05-03T12:38:03+00:00</time>
        <ele>1464.0</ele>
      </trkpt>
      <trkpt lat="45.37868742831051" lon="6.186232790350914">
        <time>2023-05-03T12:37:51+00:00</time>
        <ele>1467.0</ele>
      </trkpt>
      <trkpt lat="45.378654822707176" lon="6.186339491978288">
        <time>2023-05-03T12:37:42+00:00</time>
        <ele>1471.0</ele>
      </trkpt>
      <trkpt lat="45.37861534394324" lon="6.186425657942891">
        <time>2023-05-03T12:37:31+00:00</time>
        <ele>1474.0</ele>
      </trkpt>
      <trkpt lat="45.37861282937229" lon="6.186450133100152">
        <time>2023-05-03T12:37:29+00:00</time>
        <ele>1474.0</ele>
      </trkpt>
      <trkpt lat="45.37853043526411" lon="6.18657217361033">
        <time>2023-05-03T12:37:13+00:00</time>
        <ele>1478.0</ele>
      </trkpt>
      <trkpt lat="45.37841853685677" lon="6.186664793640375">
        <time>2023-05-03T12:36:55+00:00</time>
        <ele>1481.0</ele>
      </trkpt>
      <trkpt lat="45.37829431705177" lon="6.186729753389955">
        <time>2023-05-03T12:36:38+00:00</time>
        <ele>1483.0</ele>
      </trkpt>
      <trkpt lat="45.37820806726813" lon="6.186925303190947">
        <time>2023-05-03T12:36:23+00:00</time>
        <ele>1489.0</ele>
      </trkpt>
      <trkpt lat="45.378189627081156" lon="6.186996381729841">
        <time>2023-05-03T12:36:17+00:00</time>
        <ele>1492.0</ele>
      </trkpt>
      <trkpt lat="45.37812433205545" lon="6.187044242396951">
        <time>2023-05-03T12:36:10+00:00</time>
        <ele>1493.0</ele>
      </trkpt>
      <trkpt lat="45.378103544935584" lon="6.18712822906673">
        <time>2023-05-03T12:35:59+00:00</time>
        <ele>1495.0</ele>
      </trkpt>
      <trkpt lat="45.37808761931956" lon="6.187260914593935">
        <time>2023-05-03T12:35:49+00:00</time>
        <ele>1499.0</ele>
      </trkpt>
      <trkpt lat="45.378035232424736" lon="6.187341464683414">
        <time>2023-05-03T12:35:37+00:00</time>
        <ele>1501.0</ele>
      </trkpt>
      <trkpt lat="45.37802726961672" lon="6.187420589849353">
        <time>2023-05-03T12:35:29+00:00</time>
        <ele>1504.0</ele>
      </trkpt>
      <trkpt lat="45.3780076559633" lon="6.187441376969218">
        <time>2023-05-03T12:35:26+00:00</time>
        <ele>1504.0</ele>
      </trkpt>
      <trkpt lat="45.37791671231389" lon="6.187516311183572">
        <time>2023-05-03T12:35:11+00:00</time>
        <ele>1506.0</ele>
      </trkpt>
      <trkpt lat="45.37791377864778" lon="6.187556963413954">
        <time>2023-05-03T12:35:06+00:00</time>
        <ele>1507.0</ele>
      </trkpt>
      <trkpt lat="45.377891063690186" lon="6.187711106613278">
        <time>2023-05-03T12:34:51+00:00</time>
        <ele>1512.0</ele>
      </trkpt>
      <trkpt lat="45.37786642089486" lon="6.187733318656683">
        <time>2023-05-03T12:34:46+00:00</time>
        <ele>1513.0</ele>
      </trkpt>
      <trkpt lat="45.37777690216899" lon="6.187808336690068">
        <time>2023-05-03T12:34:33+00:00</time>
        <ele>1516.0</ele>
      </trkpt>
      <trkpt lat="45.37771965377033" lon="6.187884612008929">
        <time>2023-05-03T12:34:22+00:00</time>
        <ele>1518.0</ele>
      </trkpt>
      <trkpt lat="45.377709260210395" lon="6.187890563160181">
        <time>2023-05-03T12:34:20+00:00</time>
        <ele>1518.0</ele>
      </trkpt>
      <trkpt lat="45.37754321470857" lon="6.187994834035635">
        <time>2023-05-03T12:34:00+00:00</time>
        <ele>1520.0</ele>
      </trkpt>
      <trkpt lat="45.377473812550306" lon="6.188075887039304">
        <time>2023-05-03T12:33:51+00:00</time>
        <ele>1522.0</ele>
      </trkpt>
      <trkpt lat="45.377419078722596" lon="6.188167836517096">
        <time>2023-05-03T12:33:39+00:00</time>
        <ele>1525.0</ele>
      </trkpt>
      <trkpt lat="45.377330146729946" lon="6.188231371343136">
        <time>2023-05-03T12:33:27+00:00</time>
        <ele>1527.0</ele>
      </trkpt>
      <trkpt lat="45.37720324471593" lon="6.188297253102064">
        <time>2023-05-03T12:33:09+00:00</time>
        <ele>1530.0</ele>
      </trkpt>
      <trkpt lat="45.377187402918935" lon="6.188297756016254">
        <time>2023-05-03T12:33:07+00:00</time>
        <ele>1530.0</ele>
      </trkpt>
      <trkpt lat="45.37716703489423" lon="6.188294487074018">
        <time>2023-05-03T12:33:05+00:00</time>
        <ele>1530.0</ele>
      </trkpt>
      <trkpt lat="45.377088664099574" lon="6.188354082405567">
        <time>2023-05-03T12:32:55+00:00</time>
        <ele>1534.0</ele>
      </trkpt>
      <trkpt lat="45.377048179507256" lon="6.188444271683693">
        <time>2023-05-03T12:32:46+00:00</time>
        <ele>1537.0</ele>
      </trkpt>
      <trkpt lat="45.37704214453697" lon="6.188544854521751">
        <time>2023-05-03T12:32:36+00:00</time>
        <ele>1539.0</ele>
      </trkpt>
      <trkpt lat="45.376999229192734" lon="6.188675025478005">
        <time>2023-05-03T12:32:26+00:00</time>
        <ele>1542.0</ele>
      </trkpt>
      <trkpt lat="45.376940639689565" lon="6.188765214756131">
        <time>2023-05-03T12:32:14+00:00</time>
        <ele>1545.0</ele>
      </trkpt>
      <trkpt lat="45.37689353339374" lon="6.188862947747111">
        <time>2023-05-03T12:32:02+00:00</time>
        <ele>1547.0</ele>
      </trkpt>
      <trkpt lat="45.37681004963815" lon="6.188944922760129">
        <time>2023-05-03T12:31:51+00:00</time>
        <ele>1551.0</ele>
      </trkpt>
      <trkpt lat="45.37674089893699" lon="6.189026646316052">
        <time>2023-05-03T12:31:38+00:00</time>
        <ele>1555.0</ele>
      </trkpt>
      <trkpt lat="45.37666236050427" lon="6.189019605517387">
        <time>2023-05-03T12:31:28+00:00</time>
        <ele>1558.0</ele>
      </trkpt>
      <trkpt lat="45.37656814791262" lon="6.189033100381494">
        <time>2023-05-03T12:31:17+00:00</time>
        <ele>1561.0</ele>
      </trkpt>
      <trkpt lat="45.37651240825653" lon="6.189102167263627">
        <time>2023-05-03T12:30:55+00:00</time>
        <ele>1565.0</ele>
      </trkpt>
      <trkpt lat="45.376481395214796" lon="6.189146507531405">
        <time>2023-05-03T12:30:44+00:00</time>
        <ele>1567.0</ele>
      </trkpt>
      <trkpt lat="45.3764364682138" lon="6.18919076398015">
        <time>2023-05-03T12:30:34+00:00</time>
        <ele>1570.0</ele>
      </trkpt>
      <trkpt lat="45.37638332694769" lon="6.189216831699014">
        <time>2023-05-03T12:30:22+00:00</time>
        <ele>1572.0</ele>
      </trkpt>
      <trkpt lat="45.37632029503584" lon="6.189261926338077">
        <time>2023-05-03T12:30:12+00:00</time>
        <ele>1575.0</ele>
      </trkpt>
      <trkpt lat="45.37627729587257" lon="6.189365778118372">
        <time>2023-05-03T12:30:03+00:00</time>
        <ele>1580.0</ele>
      </trkpt>
      <trkpt lat="45.37622733972967" lon="6.189400311559439">
        <time>2023-05-03T12:29:54+00:00</time>
        <ele>1582.0</ele>
      </trkpt>
      <trkpt lat="45.37617864087224" lon="6.189455715939403">
        <time>2023-05-03T12:29:45+00:00</time>
        <ele>1585.0</ele>
      </trkpt>
      <trkpt lat="45.376124661415815" lon="6.189497793093324">
        <time>2023-05-03T12:29:34+00:00</time>
        <ele>1588.0</ele>
      </trkpt>
      <trkpt lat="45.37385115399957" lon="6.190032307058573">
        <time>2023-05-03T06:32:38+00:00</time>
        <ele>1670.0</ele>
      </trkpt>
      <trkpt lat="45.37372341379523" lon="6.189983021467924">
        <time>2023-05-03T06:32:53+00:00</time>
        <ele>1675.0</ele>
      </trkpt>
      <trkpt lat="45.37366063334048" lon="6.189935579895973">
        <time>2023-05-03T06:33:08+00:00</time>
        <ele>1677.0</ele>
      </trkpt>
      <trkpt lat="45.37359290756285" lon="6.189881265163422">
        <time>2023-05-03T06:33:20+00:00</time>
        <ele>1680.0</ele>
      </trkpt>
      <trkpt lat="45.37351252511144" lon="6.189799876883626">
        <time>2023-05-03T06:33:33+00:00</time>
        <ele>1684.0</ele>
      </trkpt>
      <trkpt lat="45.37346290424466" lon="6.189692756161094">
        <time>2023-05-03T06:33:49+00:00</time>
        <ele>1687.0</ele>
      </trkpt>
      <trkpt lat="45.37344220094383" lon="6.189594939351082">
        <time>2023-05-03T06:34:03+00:00</time>
        <ele>1688.0</ele>
      </trkpt>
      <trkpt lat="45.37344438023865" lon="6.18949075229466">
        <time>2023-05-03T06:34:21+00:00</time>
        <ele>1687.0</ele>
      </trkpt>
      <trkpt lat="45.37342761643231" lon="6.189407603815198">
        <time>2023-05-03T06:34:34+00:00</time>
        <ele>1688.0</ele>
      </trkpt>
      <trkpt lat="45.373362405225635" lon="6.189249102026224">
        <time>2023-05-03T06:34:53+00:00</time>
        <ele>1694.0</ele>
      </trkpt>
      <trkpt lat="45.37328730337322" lon="6.189199481159449">
        <time>2023-05-03T06:35:07+00:00</time>
        <ele>1698.0</ele>
      </trkpt>
      <trkpt lat="45.37325914017856" lon="6.18918682448566">
        <time>2023-05-03T06:35:13+00:00</time>
        <ele>1700.0</ele>
      </trkpt>
      <trkpt lat="45.37318278104067" lon="6.189143573865295">
        <time>2023-05-03T06:35:19+00:00</time>
        <ele>1701.0</ele>
      </trkpt>
      <trkpt lat="45.37312913686037" lon="6.189142987132072">
        <time>2023-05-03T06:35:31+00:00</time>
        <ele>1702.0</ele>
      </trkpt>
      <trkpt lat="45.37311698310077" lon="6.189231583848596">
        <time>2023-05-03T06:35:44+00:00</time>
        <ele>1706.0</ele>
      </trkpt>
      <trkpt lat="45.373056968674064" lon="6.189280617982149">
        <time>2023-05-03T06:35:59+00:00</time>
        <ele>1709.0</ele>
      </trkpt>
      <trkpt lat="45.37305663339794" lon="6.189371896907687">
        <time>2023-05-03T06:36:10+00:00</time>
        <ele>1713.0</ele>
      </trkpt>
      <trkpt lat="45.37300240248442" lon="6.189437694847584">
        <time>2023-05-03T06:36:24+00:00</time>
        <ele>1717.0</ele>
      </trkpt>
      <trkpt lat="45.37300223484635" lon="6.189442472532392">
        <time>2023-05-03T06:36:26+00:00</time>
        <ele>1717.0</ele>
      </trkpt>
      <trkpt lat="45.37302553653717" lon="6.189474072307348">
        <time>2023-05-03T06:36:38+00:00</time>
        <ele>1718.0</ele>
      </trkpt>
      <trkpt lat="45.37302000448108" lon="6.189490500837565">
        <time>2023-05-03T06:36:43+00:00</time>
        <ele>1718.0</ele>
      </trkpt>
      <trkpt lat="45.37299184128642" lon="6.189491171389818">
        <time>2023-05-03T06:36:47+00:00</time>
        <ele>1719.0</ele>
      </trkpt>
      <trkpt lat="45.37292394787073" lon="6.18947365321219">
        <time>2023-05-03T06:36:56+00:00</time>
        <ele>1721.0</ele>
      </trkpt>
      <trkpt lat="45.37289016880095" lon="6.189449094235897">
        <time>2023-05-03T06:37:06+00:00</time>
        <ele>1721.0</ele>
      </trkpt>
      <trkpt lat="45.37286368198693" lon="6.189440209418535">
        <time>2023-05-03T06:37:12+00:00</time>
        <ele>1721.0</ele>
      </trkpt>
      <trkpt lat="45.372802410274744" lon="6.189414812251926">
        <time>2023-05-03T06:37:17+00:00</time>
        <ele>1722.0</ele>
      </trkpt>
      <trkpt lat="45.37272387184203" lon="6.189356138929725">
        <time>2023-05-03T06:37:27+00:00</time>
        <ele>1723.0</ele>
      </trkpt>
      <trkpt lat="45.37269956432283" lon="6.189346583560109">
        <time>2023-05-03T06:37:31+00:00</time>
        <ele>1723.0</ele>
      </trkpt>
      <trkpt lat="45.37265723571181" lon="6.189337782561779">
        <time>2023-05-03T06:37:55+00:00</time>
        <ele>1724.0</ele>
      </trkpt>
      <trkpt lat="45.37267852574587" lon="6.189389079809189">
        <time>2023-05-03T06:37:59+00:00</time>
        <ele>1725.0</ele>
      </trkpt>
      <trkpt lat="45.372726721689105" lon="6.18945655412972">
        <time>2023-05-03T06:38:06+00:00</time>
        <ele>1726.0</ele>
      </trkpt>
      <trkpt lat="45.372754549607635" lon="6.189496703445911">
        <time>2023-05-03T06:38:10+00:00</time>
        <ele>1727.0</ele>
      </trkpt>
      <trkpt lat="45.37278656847775" lon="6.189546743407846">
        <time>2023-05-03T06:38:20+00:00</time>
        <ele>1727.0</ele>
      </trkpt>
      <trkpt lat="45.37279687821865" lon="6.189587228000164">
        <time>2023-05-03T06:38:24+00:00</time>
        <ele>1728.0</ele>
      </trkpt>
      <trkpt lat="45.37279821932316" lon="6.189602399244905">
        <time>2023-05-03T06:38:27+00:00</time>
        <ele>1728.0</ele>
      </trkpt>
      <trkpt lat="45.37275278940797" lon="6.189595945179462">
        <time>2023-05-03T06:38:36+00:00</time>
        <ele>1729.0</ele>
      </trkpt>
      <trkpt lat="45.37267140112817" lon="6.189577169716358">
        <time>2023-05-03T06:38:47+00:00</time>
        <ele>1731.0</ele>
      </trkpt>
      <trkpt lat="45.37261800840497" lon="6.189583372324705">
        <time>2023-05-03T06:39:01+00:00</time>
        <ele>1732.0</ele>
      </trkpt>
      <trkpt lat="45.372633850201964" lon="6.189656630158424">
        <time>2023-05-03T06:39:09+00:00</time>
        <ele>1734.0</ele>
      </trkpt>
      <trkpt lat="45.3726442437619" lon="6.189694348722696">
        <time>2023-05-03T06:39:12+00:00</time>
        <ele>1735.0</ele>
      </trkpt>
      <trkpt lat="45.372649943456054" lon="6.189713291823864">
        <time>2023-05-03T06:39:14+00:00</time>
        <ele>1735.0</ele>
      </trkpt>
      <trkpt lat="45.37267131730914" lon="6.189760146662593">
        <time>2023-05-03T06:39:18+00:00</time>
        <ele>1736.0</ele>
      </trkpt>
      <trkpt lat="45.37262052297592" lon="6.189808929339051">
        <time>2023-05-03T06:39:31+00:00</time>
        <ele>1738.0</ele>
      </trkpt>
      <trkpt lat="45.372570315375924" lon="6.189862573519349">
        <time>2023-05-03T06:39:42+00:00</time>
        <ele>1740.0</ele>
      </trkpt>
      <trkpt lat="45.37254625931382" lon="6.189859220758081">
        <time>2023-05-03T06:39:44+00:00</time>
        <ele>1740.0</ele>
      </trkpt>
      <trkpt lat="45.37252597510815" lon="6.189861735329032">
        <time>2023-05-03T06:39:46+00:00</time>
        <ele>1741.0</ele>
      </trkpt>
      <trkpt lat="45.3725023381412" lon="6.189886126667261">
        <time>2023-05-03T06:39:50+00:00</time>
        <ele>1742.0</ele>
      </trkpt>
      <trkpt lat="45.37251113913953" lon="6.189935663715005">
        <time>2023-05-03T06:39:54+00:00</time>
        <ele>1743.0</ele>
      </trkpt>
      <trkpt lat="45.3725612629205" lon="6.190051836892963">
        <time>2023-05-03T06:40:04+00:00</time>
        <ele>1743.0</ele>
      </trkpt>
      <trkpt lat="45.37255447357893" lon="6.19007857516408">
        <time>2023-05-03T06:40:08+00:00</time>
        <ele>1743.0</ele>
      </trkpt>
      <trkpt lat="45.37251424044371" lon="6.190079748630524">
        <time>2023-05-03T06:40:15+00:00</time>
        <ele>1745.0</ele>
      </trkpt>
      <trkpt lat="45.37244785577059" lon="6.190091986209154">
        <time>2023-05-03T06:40:27+00:00</time>
        <ele>1747.0</ele>
      </trkpt>
      <trkpt lat="45.37247618660331" lon="6.190119814127684">
        <time>2023-05-03T06:40:40+00:00</time>
        <ele>1746.0</ele>
      </trkpt>
      <trkpt lat="45.37249437533319" lon="6.190138924866915">
        <time>2023-05-03T06:40:42+00:00</time>
        <ele>1746.0</ele>
      </trkpt>
      <trkpt lat="45.37257207557559" lon="6.190195670351386">
        <time>2023-05-03T06:40:52+00:00</time>
        <ele>1742.0</ele>
      </trkpt>
      <trkpt lat="45.37257442250848" lon="6.19024864397943">
        <time>2023-05-03T06:41:13+00:00</time>
        <ele>1742.0</ele>
      </trkpt>
      <trkpt lat="45.37250963039696" lon="6.190284853801131">
        <time>2023-05-03T06:41:25+00:00</time>
        <ele>1745.0</ele>
      </trkpt>
      <trkpt lat="45.372430086135864" lon="6.190321398898959">
        <time>2023-05-03T06:41:39+00:00</time>
        <ele>1748.0</ele>
      </trkpt>
      <trkpt lat="45.37239454686642" lon="6.1903952434659">
        <time>2023-05-03T06:41:50+00:00</time>
        <ele>1751.0</ele>
      </trkpt>
      <trkpt lat="45.372316762804985" lon="6.19046657346189">
        <time>2023-05-03T06:42:04+00:00</time>
        <ele>1755.0</ele>
      </trkpt>
      <trkpt lat="45.37230519577861" lon="6.190475542098284">
        <time>2023-05-03T06:42:06+00:00</time>
        <ele>1755.0</ele>
      </trkpt>
      <trkpt lat="45.37221978418529" lon="6.190542681142688">
        <time>2023-05-03T06:42:17+00:00</time>
        <ele>1759.0</ele>
      </trkpt>
      <trkpt lat="45.37221450358629" lon="6.190620800480247">
        <time>2023-05-03T06:42:24+00:00</time>
        <ele>1761.0</ele>
      </trkpt>
      <trkpt lat="45.37221592850983" lon="6.190727334469557">
        <time>2023-05-03T06:42:35+00:00</time>
        <ele>1763.0</ele>
      </trkpt>
      <trkpt lat="45.372150298208" lon="6.190797910094261">
        <time>2023-05-03T06:42:47+00:00</time>
        <ele>1767.0</ele>
      </trkpt>
      <trkpt lat="45.372134456411004" lon="6.190902264788747">
        <time>2023-05-03T06:42:58+00:00</time>
        <ele>1771.0</ele>
      </trkpt>
      <trkpt lat="45.37214049138129" lon="6.191054228693247">
        <time>2023-05-03T06:43:18+00:00</time>
        <ele>1775.0</ele>
      </trkpt>
      <trkpt lat="45.37208676338196" lon="6.191078452393413">
        <time>2023-05-03T06:43:36+00:00</time>
        <ele>1777.0</ele>
      </trkpt>
      <trkpt lat="45.37206840701401" lon="6.19111156091094">
        <time>2023-05-03T06:43:48+00:00</time>
        <ele>1779.0</ele>
      </trkpt>
      <trkpt lat="45.3720363881439" lon="6.19116771966219">
        <time>2023-05-03T06:43:59+00:00</time>
        <ele>1782.0</ele>
      </trkpt>
      <trkpt lat="45.37200998514891" lon="6.191215328872204">
        <time>2023-05-03T06:44:09+00:00</time>
        <ele>1785.0</ele>
      </trkpt>
      <trkpt lat="45.371982576325536" lon="6.191224129870534">
        <time>2023-05-03T06:44:12+00:00</time>
        <ele>1787.0</ele>
      </trkpt>
      <trkpt lat="45.37204250693321" lon="6.191429737955332">
        <time>2023-05-03T06:44:33+00:00</time>
        <ele>1793.0</ele>
      </trkpt>
      <trkpt lat="45.37203177809715" lon="6.191464187577367">
        <time>2023-05-03T06:44:43+00:00</time>
        <ele>1795.0</ele>
      </trkpt>
      <trkpt lat="45.372010236606" lon="6.19145262055099">
        <time>2023-05-03T06:44:45+00:00</time>
        <ele>1796.0</ele>
      </trkpt>
      <trkpt lat="45.371893057599664" lon="6.191417835652828">
        <time>2023-05-03T06:45:03+00:00</time>
        <ele>1800.0</ele>
      </trkpt>
      <trkpt lat="45.37183413282037" lon="6.191426888108254">
        <time>2023-05-03T06:45:17+00:00</time>
        <ele>1804.0</ele>
      </trkpt>
      <trkpt lat="45.37178493104875" lon="6.191435437649488">
        <time>2023-05-03T06:45:29+00:00</time>
        <ele>1806.0</ele>
      </trkpt>
      <trkpt lat="45.37168242037296" lon="6.191406939178705">
        <time>2023-05-03T06:45:45+00:00</time>
        <ele>1809.0</ele>
      </trkpt>
      <trkpt lat="45.37168242037296" lon="6.191406939178705">
        <time>2023-05-03T06:45:45+00:00</time>
        <ele>1809.0</ele>
      </trkpt>
      <trkpt lat="45.37158451974392" lon="6.191354552283883">
        <time>2023-05-03T06:46:02+00:00</time>
        <ele>1810.0</ele>
      </trkpt>
      <trkpt lat="45.37156172096729" lon="6.191305769607425">
        <time>2023-05-03T06:46:35+00:00</time>
        <ele>1808.0</ele>
      </trkpt>
      <trkpt lat="45.37153724581003" lon="6.191287077963352">
        <time>2023-05-03T06:47:25+00:00</time>
        <ele>1809.0</ele>
      </trkpt>
      <trkpt lat="45.37145468406379" lon="6.191252460703254">
        <time>2023-05-03T06:47:46+00:00</time>
        <ele>1811.0</ele>
      </trkpt>
      <trkpt lat="45.371398190036416" lon="6.191233601421118">
        <time>2023-05-03T06:48:02+00:00</time>
        <ele>1813.0</ele>
      </trkpt>
      <trkpt lat="45.371321411803365" lon="6.191145591437817">
        <time>2023-05-03T06:48:18+00:00</time>
        <ele>1814.0</ele>
      </trkpt>
      <trkpt lat="45.37123809568584" lon="6.191060682758689">
        <time>2023-05-03T06:48:36+00:00</time>
        <ele>1816.0</ele>
      </trkpt>
      <trkpt lat="45.371165005490184" lon="6.191009720787406">
        <time>2023-05-03T06:48:51+00:00</time>
        <ele>1819.0</ele>
      </trkpt>
      <trkpt lat="45.371109852567315" lon="6.190982395783067">
        <time>2023-05-03T06:49:03+00:00</time>
        <ele>1821.0</ele>
      </trkpt>
      <trkpt lat="45.371027709916234" lon="6.190907964482904">
        <time>2023-05-03T06:49:18+00:00</time>
        <ele>1822.0</ele>
      </trkpt>
      <trkpt lat="45.370991080999374" lon="6.191004607826471">
        <time>2023-05-03T06:49:33+00:00</time>
        <ele>1826.0</ele>
      </trkpt>
      <trkpt lat="45.37099041044712" lon="6.191050037741661">
        <time>2023-05-03T06:49:38+00:00</time>
        <ele>1827.0</ele>
      </trkpt>
      <trkpt lat="45.37098152562976" lon="6.191114578396082">
        <time>2023-05-03T06:49:53+00:00</time>
        <ele>1829.0</ele>
      </trkpt>
      <trkpt lat="45.370919331908226" lon="6.191101167351008">
        <time>2023-05-03T06:50:09+00:00</time>
        <ele>1830.0</ele>
      </trkpt>
      <trkpt lat="45.37092478014529" lon="6.191187081858516">
        <time>2023-05-03T06:50:32+00:00</time>
        <ele>1833.0</ele>
      </trkpt>
      <trkpt lat="45.370937855914235" lon="6.191285653039813">
        <time>2023-05-03T06:50:54+00:00</time>
        <ele>1836.0</ele>
      </trkpt>
      <trkpt lat="45.37088043987751" lon="6.191352372989059">
        <time>2023-05-03T06:51:13+00:00</time>
        <ele>1839.0</ele>
      </trkpt>
      <trkpt lat="45.370841631665826" lon="6.191425044089556">
        <time>2023-05-03T06:51:28+00:00</time>
        <ele>1842.0</ele>
      </trkpt>
      <trkpt lat="45.37077256478369" lon="6.191528895869851">
        <time>2023-05-03T06:51:48+00:00</time>
        <ele>1846.0</ele>
      </trkpt>
      <trkpt lat="45.37074591033161" lon="6.191634340211749">
        <time>2023-05-03T06:52:05+00:00</time>
        <ele>1849.0</ele>
      </trkpt>
      <trkpt lat="45.37070450372994" lon="6.191743221133947">
        <time>2023-05-03T06:52:23+00:00</time>
        <ele>1851.0</ele>
      </trkpt>
      <trkpt lat="45.370682794600725" lon="6.191923934966326">
        <time>2023-05-03T06:52:43+00:00</time>
        <ele>1858.0</ele>
      </trkpt>
      <trkpt lat="45.37062579765916" lon="6.192066259682179">
        <time>2023-05-03T06:53:03+00:00</time>
        <ele>1862.0</ele>
      </trkpt>
      <trkpt lat="45.370551366358995" lon="6.192132560536265">
        <time>2023-05-03T06:55:28+00:00</time>
        <ele>1865.0</ele>
      </trkpt>
      <trkpt lat="45.3704596683383" lon="6.192151084542275">
        <time>2023-05-03T06:55:48+00:00</time>
        <ele>1868.0</ele>
      </trkpt>
      <trkpt lat="45.37049529142678" lon="6.192273460328579">
        <time>2023-05-03T06:56:04+00:00</time>
        <ele>1872.0</ele>
      </trkpt>
      <trkpt lat="45.37053644657135" lon="6.192404637113214">
        <time>2023-05-03T06:56:19+00:00</time>
        <ele>1878.0</ele>
      </trkpt>
      <trkpt lat="45.37047634832561" lon="6.192430118098855">
        <time>2023-05-03T06:56:38+00:00</time>
        <ele>1879.0</ele>
      </trkpt>
      <trkpt lat="45.370452208444476" lon="6.192464483901858">
        <time>2023-05-03T06:56:58+00:00</time>
        <ele>1881.0</ele>
      </trkpt>
      <trkpt lat="45.37045832723379" lon="6.192511674016714">
        <time>2023-05-03T06:57:16+00:00</time>
        <ele>1883.0</ele>
      </trkpt>
      <trkpt lat="45.37038238719106" lon="6.19249583221972">
        <time>2023-05-03T06:57:33+00:00</time>
        <ele>1884.0</ele>
      </trkpt>
      <trkpt lat="45.370330000296235" lon="6.192497927695513">
        <time>2023-05-03T06:57:55+00:00</time>
        <ele>1885.0</ele>
      </trkpt>
      <trkpt lat="45.370342237874866" lon="6.192572861909866">
        <time>2023-05-03T06:58:16+00:00</time>
        <ele>1888.0</ele>
      </trkpt>
      <trkpt lat="45.3702905215323" lon="6.192554840818048">
        <time>2023-05-03T06:58:32+00:00</time>
        <ele>1888.0</ele>
      </trkpt>
      <trkpt lat="45.37028758786619" lon="6.192626673728228">
        <time>2023-05-03T06:58:51+00:00</time>
        <ele>1892.0</ele>
      </trkpt>
      <trkpt lat="45.370212234556675" lon="6.19259549304843">
        <time>2023-05-03T06:59:13+00:00</time>
        <ele>1892.0</ele>
      </trkpt>
      <trkpt lat="45.37023754790425" lon="6.19268300011754">
        <time>2023-05-03T06:59:33+00:00</time>
        <ele>1895.0</ele>
      </trkpt>
      <trkpt lat="45.37019739858806" lon="6.192737063392997">
        <time>2023-05-03T06:59:53+00:00</time>
        <ele>1898.0</ele>
      </trkpt>
      <trkpt lat="45.37013579159975" lon="6.192710408940911">
        <time>2023-05-03T07:00:08+00:00</time>
        <ele>1897.0</ele>
      </trkpt>
      <trkpt lat="45.370095474645495" lon="6.192693477496505">
        <time>2023-05-03T07:00:27+00:00</time>
        <ele>1897.0</ele>
      </trkpt>
      <trkpt lat="45.370056917890906" lon="6.192683503031731">
        <time>2023-05-03T07:00:54+00:00</time>
        <ele>1898.0</ele>
      </trkpt>
      <trkpt lat="45.370000172406435" lon="6.192698590457439">
        <time>2023-05-03T07:01:13+00:00</time>
        <ele>1899.0</ele>
      </trkpt>
      <trkpt lat="45.370001094415784" lon="6.192674618214369">
        <time>2023-05-03T07:01:38+00:00</time>
        <ele>1898.0</ele>
      </trkpt>
      <trkpt lat="45.36998248659074" lon="6.192694148048759">
        <time>2023-05-03T07:01:40+00:00</time>
        <ele>1899.0</ele>
      </trkpt>
      <trkpt lat="45.36991484463215" lon="6.192716527730227">
        <time>2023-05-03T07:01:46+00:00</time>
        <ele>1900.0</ele>
      </trkpt>
      <trkpt lat="45.3697738610208" lon="6.192688615992665">
        <time>2023-05-03T07:02:00+00:00</time>
        <ele>1903.0</ele>
      </trkpt>
      <trkpt lat="45.369631201028824" lon="6.192649137228727">
        <time>2023-05-03T07:02:17+00:00</time>
        <ele>1907.0</ele>
      </trkpt>
      <trkpt lat="45.369466161355376" lon="6.192592810839415">
        <time>2023-05-03T07:02:38+00:00</time>
        <ele>1909.0</ele>
      </trkpt>
      <trkpt lat="45.36929517053068" lon="6.19260429404676">
        <time>2023-05-03T07:02:57+00:00</time>
        <ele>1912.0</ele>
      </trkpt>
      <trkpt lat="45.36915804259479" lon="6.192566659301519">
        <time>2023-05-03T07:03:12+00:00</time>
        <ele>1913.0</ele>
      </trkpt>
      <trkpt lat="45.369026446715" lon="6.192499352619052">
        <time>2023-05-03T07:03:29+00:00</time>
        <ele>1914.0</ele>
      </trkpt>
      <trkpt lat="45.368880685418844" lon="6.192462975159288">
        <time>2023-05-03T07:03:46+00:00</time>
        <ele>1915.0</ele>
      </trkpt>
      <trkpt lat="45.36875193938613" lon="6.192508740350604">
        <time>2023-05-03T07:04:08+00:00</time>
        <ele>1915.0</ele>
      </trkpt>
      <trkpt lat="45.368722854182124" lon="6.192520642653108">
        <time>2023-05-03T07:04:12+00:00</time>
        <ele>1915.0</ele>
      </trkpt>
      <trkpt lat="45.36869125440717" lon="6.192528773099184">
        <time>2023-05-03T07:04:15+00:00</time>
        <ele>1915.0</ele>
      </trkpt>
      <trkpt lat="45.36850525997579" lon="6.192543776705861">
        <time>2023-05-03T07:04:33+00:00</time>
        <ele>1915.0</ele>
      </trkpt>
      <trkpt lat="45.36839193664491" lon="6.192569928243756">
        <time>2023-05-03T07:04:42+00:00</time>
        <ele>1917.0</ele>
      </trkpt>
      <trkpt lat="45.3682113904506" lon="6.192574119195342">
        <time>2023-05-03T07:04:57+00:00</time>
        <ele>1918.0</ele>
      </trkpt>
      <trkpt lat="45.36814567632973" lon="6.192579483613372">
        <time>2023-05-03T07:05:04+00:00</time>
        <ele>1919.0</ele>
      </trkpt>
      <trkpt lat="45.36804148927331" lon="6.192527431994677">
        <time>2023-05-03T07:05:18+00:00</time>
        <ele>1921.0</ele>
      </trkpt>
      <trkpt lat="45.36790385842323" lon="6.192547967657447">
        <time>2023-05-03T07:05:35+00:00</time>
        <ele>1924.0</ele>
      </trkpt>
      <trkpt lat="45.36772306077182" lon="6.192610077559948">
        <time>2023-05-03T07:05:55+00:00</time>
        <ele>1928.0</ele>
      </trkpt>
      <trkpt lat="45.36759146489203" lon="6.19263413362205">
        <time>2023-05-03T07:06:12+00:00</time>
        <ele>1931.0</ele>
      </trkpt>
      <trkpt lat="45.36756657063961" lon="6.19263606145978">
        <time>2023-05-03T07:06:15+00:00</time>
        <ele>1932.0</ele>
      </trkpt>
      <trkpt lat="45.36745953373611" lon="6.192638911306858">
        <time>2023-05-03T07:06:30+00:00</time>
        <ele>1935.0</ele>
      </trkpt>
      <trkpt lat="45.36733481101692" lon="6.192653076723218">
        <time>2023-05-03T07:06:47+00:00</time>
        <ele>1938.0</ele>
      </trkpt>
      <trkpt lat="45.367204220965505" lon="6.1926453653723">
        <time>2023-05-03T07:07:02+00:00</time>
        <ele>1940.0</ele>
      </trkpt>
      <trkpt lat="45.3670731279999" lon="6.192616615444422">
        <time>2023-05-03T07:07:16+00:00</time>
        <ele>1941.0</ele>
      </trkpt>
      <trkpt lat="45.36701772361994" lon="6.192593649029732">
        <time>2023-05-03T07:07:23+00:00</time>
        <ele>1942.0</ele>
      </trkpt>
      <trkpt lat="45.36688185296953" lon="6.192585099488497">
        <time>2023-05-03T07:07:40+00:00</time>
        <ele>1942.0</ele>
      </trkpt>
      <trkpt lat="45.36687162704766" lon="6.192592978477478">
        <time>2023-05-03T07:07:41+00:00</time>
        <ele>1942.0</ele>
      </trkpt>
      <trkpt lat="45.36680121906102" lon="6.192661207169294">
        <time>2023-05-03T07:07:52+00:00</time>
        <ele>1942.0</ele>
      </trkpt>
      <trkpt lat="45.366779174655676" lon="6.192723568528891">
        <time>2023-05-03T07:07:55+00:00</time>
        <ele>1942.0</ele>
      </trkpt>
      <trkpt lat="45.366739528253675" lon="6.192813757807016">
        <time>2023-05-03T07:08:01+00:00</time>
        <ele>1941.0</ele>
      </trkpt>
      <trkpt lat="45.36659468896687" lon="6.192996734753251">
        <time>2023-05-03T07:08:17+00:00</time>
        <ele>1941.0</ele>
      </trkpt>
      <trkpt lat="45.36646326072514" lon="6.193120619282126">
        <time>2023-05-03T07:08:31+00:00</time>
        <ele>1943.0</ele>
      </trkpt>
      <trkpt lat="45.3663169965148" lon="6.193168563768268">
        <time>2023-05-03T07:08:46+00:00</time>
        <ele>1945.0</ele>
      </trkpt>
      <trkpt lat="45.36626972258091" lon="6.193171245977283">
        <time>2023-05-03T07:08:51+00:00</time>
        <ele>1946.0</ele>
      </trkpt>
      <trkpt lat="45.36614357493818" lon="6.193141406401992">
        <time>2023-05-03T07:09:07+00:00</time>
        <ele>1949.0</ele>
      </trkpt>
      <trkpt lat="45.366088757291436" lon="6.193129839375615">
        <time>2023-05-03T07:09:13+00:00</time>
        <ele>1950.0</ele>
      </trkpt>
      <trkpt lat="45.366055900231004" lon="6.193121960386634">
        <time>2023-05-03T07:09:16+00:00</time>
        <ele>1951.0</ele>
      </trkpt>
      <trkpt lat="45.3659126535058" lon="6.193108968436718">
        <time>2023-05-03T07:09:30+00:00</time>
        <ele>1952.0</ele>
      </trkpt>
      <trkpt lat="45.365774519741535" lon="6.193121625110507">
        <time>2023-05-03T07:09:46+00:00</time>
        <ele>1954.0</ele>
      </trkpt>
      <trkpt lat="45.3656364697963" lon="6.19310712441802">
        <time>2023-05-03T07:10:03+00:00</time>
        <ele>1957.0</ele>
      </trkpt>
      <trkpt lat="45.36551124416292" lon="6.193121373653412">
        <time>2023-05-03T07:10:18+00:00</time>
        <ele>1960.0</ele>
      </trkpt>
      <trkpt lat="45.36550470627844" lon="6.193120451644063">
        <time>2023-05-03T07:10:19+00:00</time>
        <ele>1960.0</ele>
      </trkpt>
      <trkpt lat="45.3654860984534" lon="6.193122044205666">
        <time>2023-05-03T07:10:21+00:00</time>
        <ele>1961.0</ele>
      </trkpt>
      <trkpt lat="45.36540823057294" lon="6.193154733628035">
        <time>2023-05-03T07:10:42+00:00</time>
        <ele>1962.0</ele>
      </trkpt>
      <trkpt lat="45.365297589451075" lon="6.193179041147232">
        <time>2023-05-03T07:10:58+00:00</time>
        <ele>1965.0</ele>
      </trkpt>
      <trkpt lat="45.365181835368276" lon="6.193216172978282">
        <time>2023-05-03T07:11:12+00:00</time>
        <ele>1968.0</ele>
      </trkpt>
      <trkpt lat="45.36509701050818" lon="6.193246683105826">
        <time>2023-05-03T07:11:24+00:00</time>
        <ele>1970.0</ele>
      </trkpt>
      <trkpt lat="45.36501771770418" lon="6.193296052515507">
        <time>2023-05-03T07:11:45+00:00</time>
        <ele>1973.0</ele>
      </trkpt>
      <trkpt lat="45.36502811126411" lon="6.193258166313171">
        <time>2023-05-03T07:12:15+00:00</time>
        <ele>1973.0</ele>
      </trkpt>
      <trkpt lat="45.365002043545246" lon="6.193259255960584">
        <time>2023-05-03T07:13:08+00:00</time>
        <ele>1973.0</ele>
      </trkpt>
      <trkpt lat="45.364855863153934" lon="6.193299740552902">
        <time>2023-05-03T07:13:25+00:00</time>
        <ele>1978.0</ele>
      </trkpt>
      <trkpt lat="45.36478637717664" lon="6.193328658118844">
        <time>2023-05-03T07:13:37+00:00</time>
        <ele>1981.0</ele>
      </trkpt>
      <trkpt lat="45.36470373161137" lon="6.193332178518176">
        <time>2023-05-03T07:13:50+00:00</time>
        <ele>1984.0</ele>
      </trkpt>
      <trkpt lat="45.364628629758954" lon="6.193340811878443">
        <time>2023-05-03T07:14:01+00:00</time>
        <ele>1987.0</ele>
      </trkpt>
      <trkpt lat="45.364551935344934" lon="6.193332178518176">
        <time>2023-05-03T07:14:19+00:00</time>
        <ele>1990.0</ele>
      </trkpt>
      <trkpt lat="45.36446660757065" lon="6.1933309212327">
        <time>2023-05-03T07:14:33+00:00</time>
        <ele>1994.0</ele>
      </trkpt>
      <trkpt lat="45.364485047757626" lon="6.193307200446725">
        <time>2023-05-03T07:14:56+00:00</time>
        <ele>1993.0</ele>
      </trkpt>
      <trkpt lat="45.36437884904444" lon="6.193341733887792">
        <time>2023-05-03T07:15:21+00:00</time>
        <ele>1997.0</ele>
      </trkpt>
      <trkpt lat="45.36430140025914" lon="6.193358581513166">
        <time>2023-05-03T07:15:35+00:00</time>
        <ele>2000.0</ele>
      </trkpt>
      <trkpt lat="45.36421808414161" lon="6.193330585956574">
        <time>2023-05-03T07:15:48+00:00</time>
        <ele>2004.0</ele>
      </trkpt>
      <trkpt lat="45.364183969795704" lon="6.193434353917837">
        <time>2023-05-03T07:16:05+00:00</time>
        <ele>2006.0</ele>
      </trkpt>
      <trkpt lat="45.36414767615497" lon="6.193541055545211">
        <time>2023-05-03T07:16:18+00:00</time>
        <ele>2007.0</ele>
      </trkpt>
      <trkpt lat="45.364124374464154" lon="6.193611463531852">
        <time>2023-05-03T07:16:25+00:00</time>
        <ele>2009.0</ele>
      </trkpt>
      <trkpt lat="45.36411766894162" lon="6.193713219836354">
        <time>2023-05-03T07:16:33+00:00</time>
        <ele>2010.0</ele>
      </trkpt>
      <trkpt lat="45.36407341249287" lon="6.193875409662724">
        <time>2023-05-03T07:16:48+00:00</time>
        <ele>2014.0</ele>
      </trkpt>
      <trkpt lat="45.36399629898369" lon="6.193764433264732">
        <time>2023-05-03T07:17:06+00:00</time>
        <ele>2018.0</ele>
      </trkpt>
      <trkpt lat="45.36396050825715" lon="6.193698970600963">
        <time>2023-05-03T07:17:24+00:00</time>
        <ele>2020.0</ele>
      </trkpt>
      <trkpt lat="45.363963106647134" lon="6.193807097151876">
        <time>2023-05-03T07:17:48+00:00</time>
        <ele>2020.0</ele>
      </trkpt>
      <trkpt lat="45.363934859633446" lon="6.193975489586592">
        <time>2023-05-03T07:18:03+00:00</time>
        <ele>2024.0</ele>
      </trkpt>
      <trkpt lat="45.36390317603946" lon="6.194076407700777">
        <time>2023-05-03T07:18:16+00:00</time>
        <ele>2027.0</ele>
      </trkpt>
      <trkpt lat="45.36389739252627" lon="6.194176990538836">
        <time>2023-05-03T07:18:30+00:00</time>
        <ele>2029.0</ele>
      </trkpt>
      <trkpt lat="45.36386067979038" lon="6.194179421290755">
        <time>2023-05-03T07:18:51+00:00</time>
        <ele>2032.0</ele>
      </trkpt>
      <trkpt lat="45.36383620463312" lon="6.194182857871056">
        <time>2023-05-03T07:19:18+00:00</time>
        <ele>2033.0</ele>
      </trkpt>
      <trkpt lat="45.3638440836221" lon="6.194148324429989">
        <time>2023-05-03T07:19:45+00:00</time>
        <ele>2032.0</ele>
      </trkpt>
      <trkpt lat="45.36385137587786" lon="6.194141367450357">
        <time>2023-05-03T07:20:18+00:00</time>
        <ele>2031.0</ele>
      </trkpt>
      <trkpt lat="45.363838551566005" lon="6.194134745746851">
        <time>2023-05-03T07:20:49+00:00</time>
        <ele>2032.0</ele>
      </trkpt>
      <trkpt lat="45.36386235617101" lon="6.19415083900094">
        <time>2023-05-03T07:21:19+00:00</time>
        <ele>2031.0</ele>
      </trkpt>
      <trkpt lat="45.36387073807418" lon="6.194169446825981">
        <time>2023-05-03T07:21:53+00:00</time>
        <ele>2031.0</ele>
      </trkpt>
      <trkpt lat="45.36384869366884" lon="6.194145726040006">
        <time>2023-05-03T07:22:26+00:00</time>
        <ele>2032.0</ele>
      </trkpt>
      <trkpt lat="45.363843496888876" lon="6.194136841222644">
        <time>2023-05-03T07:22:55+00:00</time>
        <ele>2032.0</ele>
      </trkpt>
      <trkpt lat="45.36385263316333" lon="6.194128124043346">
        <time>2023-05-03T07:23:26+00:00</time>
        <ele>2031.0</ele>
      </trkpt>
      <trkpt lat="45.363836623728275" lon="6.194130387157202">
        <time>2023-05-03T07:23:53+00:00</time>
        <ele>2032.0</ele>
      </trkpt>
      <trkpt lat="45.363793540745974" lon="6.194114042446017">
        <time>2023-05-03T07:24:24+00:00</time>
        <ele>2034.0</ele>
      </trkpt>
      <trkpt lat="45.36369815468788" lon="6.194030977785587">
        <time>2023-05-03T07:24:39+00:00</time>
        <ele>2039.0</ele>
      </trkpt>
      <trkpt lat="45.36362866871059" lon="6.193959144875407">
        <time>2023-05-03T07:24:52+00:00</time>
        <ele>2042.0</ele>
      </trkpt>
      <trkpt lat="45.363567899912596" lon="6.193893179297447">
        <time>2023-05-03T07:25:08+00:00</time>
        <ele>2045.0</ele>
      </trkpt>
      <trkpt lat="45.36357359960675" lon="6.193962329998612">
        <time>2023-05-03T07:25:30+00:00</time>
        <ele>2045.0</ele>
      </trkpt>
      <trkpt lat="45.363541916012764" lon="6.194065762683749">
        <time>2023-05-03T07:25:46+00:00</time>
        <ele>2048.0</ele>
      </trkpt>
      <trkpt lat="45.363526325672865" lon="6.194164417684078">
        <time>2023-05-03T07:26:02+00:00</time>
        <ele>2051.0</ele>
      </trkpt>
      <trkpt lat="45.363524900749326" lon="6.194223677739501">
        <time>2023-05-03T07:26:23+00:00</time>
        <ele>2052.0</ele>
      </trkpt>
      <trkpt lat="45.36355348303914" lon="6.194407911971211">
        <time>2023-05-03T07:26:41+00:00</time>
        <ele>2055.0</ele>
      </trkpt>
      <trkpt lat="45.36356387659907" lon="6.194490557536483">
        <time>2023-05-03T07:27:03+00:00</time>
        <ele>2058.0</ele>
      </trkpt>
      <trkpt lat="45.36341484636068" lon="6.194413527846336">
        <time>2023-05-03T07:27:24+00:00</time>
        <ele>2062.0</ele>
      </trkpt>
      <trkpt lat="45.36331074312329" lon="6.194309089332819">
        <time>2023-05-03T07:27:40+00:00</time>
        <ele>2064.0</ele>
      </trkpt>
      <trkpt lat="45.363293224945664" lon="6.194287715479732">
        <time>2023-05-03T07:27:59+00:00</time>
        <ele>2065.0</ele>
      </trkpt>
      <trkpt lat="45.363304037600756" lon="6.19444009847939">
        <time>2023-05-03T07:28:24+00:00</time>
        <ele>2067.0</ele>
      </trkpt>
      <trkpt lat="45.363357765600085" lon="6.194630032405257">
        <time>2023-05-03T07:28:44+00:00</time>
        <ele>2070.0</ele>
      </trkpt>
      <trkpt lat="45.36333303898573" lon="6.194630870595574">
        <time>2023-05-03T07:29:02+00:00</time>
        <ele>2071.0</ele>
      </trkpt>
      <trkpt lat="45.36322843283415" lon="6.194557445123792">
        <time>2023-05-03T07:29:29+00:00</time>
        <ele>2073.0</ele>
      </trkpt>
      <trkpt lat="45.36310882307589" lon="6.194424256682396">
        <time>2023-05-03T07:29:51+00:00</time>
        <ele>2075.0</ele>
      </trkpt>
      <trkpt lat="45.3630184661597" lon="6.194348568096757">
        <time>2023-05-03T07:30:05+00:00</time>
        <ele>2078.0</ele>
      </trkpt>
      <trkpt lat="45.362979071214795" lon="6.194320321083069">
        <time>2023-05-03T07:30:19+00:00</time>
        <ele>2079.0</ele>
      </trkpt>
      <trkpt lat="45.36291176453233" lon="6.194285620003939">
        <time>2023-05-03T07:30:47+00:00</time>
        <ele>2082.0</ele>
      </trkpt>
      <trkpt lat="45.36282450892031" lon="6.19430816732347">
        <time>2023-05-03T07:31:08+00:00</time>
        <ele>2085.0</ele>
      </trkpt>
      <trkpt lat="45.36273398436606" lon="6.194327278062701">
        <time>2023-05-03T07:31:21+00:00</time>
        <ele>2088.0</ele>
      </trkpt>
      <trkpt lat="45.36269500851631" lon="6.194330295547843">
        <time>2023-05-03T07:31:41+00:00</time>
        <ele>2089.0</ele>
      </trkpt>
      <trkpt lat="45.36253809928894" lon="6.194370863959193">
        <time>2023-05-03T07:32:50+00:00</time>
        <ele>2095.0</ele>
      </trkpt>
      <trkpt lat="45.362501721829176" lon="6.194366002455354">
        <time>2023-05-03T07:33:22+00:00</time>
        <ele>2096.0</ele>
      </trkpt>
      <trkpt lat="45.36239921115339" lon="6.194441607221961">
        <time>2023-05-03T07:34:29+00:00</time>
        <ele>2101.0</ele>
      </trkpt>
      <trkpt lat="45.36232830025256" lon="6.194522492587566">
        <time>2023-05-03T07:34:47+00:00</time>
        <ele>2105.0</ele>
      </trkpt>
      <trkpt lat="45.36228513345122" lon="6.19461989030242">
        <time>2023-05-03T07:35:01+00:00</time>
        <ele>2108.0</ele>
      </trkpt>
      <trkpt lat="45.362242721021175" lon="6.194687196984887">
        <time>2023-05-03T07:35:17+00:00</time>
        <ele>2111.0</ele>
      </trkpt>
      <trkpt lat="45.362192345783114" lon="6.194810159504414">
        <time>2023-05-03T07:35:42+00:00</time>
        <ele>2114.0</ele>
      </trkpt>
      <trkpt lat="45.362153705209494" lon="6.194930858910084">
        <time>2023-05-03T07:35:59+00:00</time>
        <ele>2118.0</ele>
      </trkpt>
      <trkpt lat="45.36211674101651" lon="6.195025155320764">
        <time>2023-05-03T07:36:17+00:00</time>
        <ele>2121.0</ele>
      </trkpt>
      <trkpt lat="45.36210726946592" lon="6.195152392610908">
        <time>2023-05-03T07:36:34+00:00</time>
        <ele>2123.0</ele>
      </trkpt>
      <trkpt lat="45.36206460557878" lon="6.195323299616575">
        <time>2023-05-03T07:37:10+00:00</time>
        <ele>2128.0</ele>
      </trkpt>
      <trkpt lat="45.36206267774105" lon="6.195458415895701">
        <time>2023-05-03T07:37:33+00:00</time>
        <ele>2131.0</ele>
      </trkpt>
      <trkpt lat="45.36204264499247" lon="6.195573918521404">
        <time>2023-05-03T07:37:47+00:00</time>
        <ele>2134.0</ele>
      </trkpt>
      <trkpt lat="45.3620239533484" lon="6.195763936266303">
        <time>2023-05-03T07:38:20+00:00</time>
        <ele>2139.0</ele>
      </trkpt>
      <trkpt lat="45.36203870549798" lon="6.195926126092672">
        <time>2023-05-03T07:38:39+00:00</time>
        <ele>2141.0</ele>
      </trkpt>
      <trkpt lat="45.36204021424055" lon="6.196046825498343">
        <time>2023-05-03T07:38:54+00:00</time>
        <ele>2143.0</ele>
      </trkpt>
      <trkpt lat="45.36202143877745" lon="6.196242291480303">
        <time>2023-05-03T07:39:13+00:00</time>
        <ele>2147.0</ele>
      </trkpt>
      <trkpt lat="45.361993024125695" lon="6.196357626467943">
        <time>2023-05-03T07:39:30+00:00</time>
        <ele>2150.0</ele>
      </trkpt>
      <trkpt lat="45.36192043684423" lon="6.196453515440226">
        <time>2023-05-03T07:39:55+00:00</time>
        <ele>2154.0</ele>
      </trkpt>
      <trkpt lat="45.36184508353472" lon="6.196510596200824">
        <time>2023-05-03T07:40:08+00:00</time>
        <ele>2158.0</ele>
      </trkpt>
      <trkpt lat="45.361784398555756" lon="6.196591313928366">
        <time>2023-05-03T07:40:20+00:00</time>
        <ele>2161.0</ele>
      </trkpt>
      <trkpt lat="45.36171524785459" lon="6.196672199293971">
        <time>2023-05-03T07:40:35+00:00</time>
        <ele>2164.0</ele>
      </trkpt>
      <trkpt lat="45.36161407828331" lon="6.196724586188793">
        <time>2023-05-03T07:40:50+00:00</time>
        <ele>2168.0</ele>
      </trkpt>
      <trkpt lat="45.36157929338515" lon="6.196745708584786">
        <time>2023-05-03T07:41:07+00:00</time>
        <ele>2169.0</ele>
      </trkpt>
      <trkpt lat="45.36147519014776" lon="6.196849979460239">
        <time>2023-05-03T07:42:37+00:00</time>
        <ele>2174.0</ele>
      </trkpt>
      <trkpt lat="45.36137267947197" lon="6.196905802935362">
        <time>2023-05-03T07:42:54+00:00</time>
        <ele>2178.0</ele>
      </trkpt>
      <trkpt lat="45.36134543828666" lon="6.197003703564405">
        <time>2023-05-03T07:43:15+00:00</time>
        <ele>2180.0</ele>
      </trkpt>
      <trkpt lat="45.36128466948867" lon="6.197137730196118">
        <time>2023-05-03T07:43:29+00:00</time>
        <ele>2184.0</ele>
      </trkpt>
      <trkpt lat="45.36118559539318" lon="6.197399664670229">
        <time>2023-05-03T07:44:42+00:00</time>
        <ele>2190.0</ele>
      </trkpt>
      <trkpt lat="45.3611240722239" lon="6.197612900286913">
        <time>2023-05-03T07:45:02+00:00</time>
        <ele>2196.0</ele>
      </trkpt>
      <trkpt lat="45.36105810664594" lon="6.19776763021946">
        <time>2023-05-03T07:45:19+00:00</time>
        <ele>2206.0</ele>
      </trkpt>
      <trkpt lat="45.36096112802625" lon="6.197760254144669">
        <time>2023-05-03T07:45:36+00:00</time>
        <ele>2209.0</ele>
      </trkpt>
      <trkpt lat="45.360894072800875" lon="6.197629328817129">
        <time>2023-05-03T07:45:52+00:00</time>
        <ele>2205.0</ele>
      </trkpt>
      <trkpt lat="45.36082869395614" lon="6.197489770129323">
        <time>2023-05-03T07:46:10+00:00</time>
        <ele>2207.0</ele>
      </trkpt>
      <trkpt lat="45.36073883995414" lon="6.197348618879914">
        <time>2023-05-03T07:46:29+00:00</time>
        <ele>2210.0</ele>
      </trkpt>
      <trkpt lat="45.36067899316549" lon="6.197211155667901">
        <time>2023-05-03T07:46:49+00:00</time>
        <ele>2212.0</ele>
      </trkpt>
      <trkpt lat="45.36060900427401" lon="6.197162372991443">
        <time>2023-05-03T07:47:03+00:00</time>
        <ele>2215.0</ele>
      </trkpt>
      <trkpt lat="45.36054287105799" lon="6.197091126814485">
        <time>2023-05-03T07:47:19+00:00</time>
        <ele>2217.0</ele>
      </trkpt>
      <trkpt lat="45.36046349443495" lon="6.196953495964408">
        <time>2023-05-03T07:47:38+00:00</time>
        <ele>2219.0</ele>
      </trkpt>
      <trkpt lat="45.36046274006367" lon="6.196956094354391">
        <time>2023-05-03T07:47:59+00:00</time>
        <ele>2219.0</ele>
      </trkpt>
      <trkpt lat="45.36044103093445" lon="6.196940839290619">
        <time>2023-05-03T07:48:31+00:00</time>
        <ele>2220.0</ele>
      </trkpt>
      <trkpt lat="45.360433822497725" lon="6.197103951126337">
        <time>2023-05-03T07:48:50+00:00</time>
        <ele>2222.0</ele>
      </trkpt>
      <trkpt lat="45.36042091436684" lon="6.197210317477584">
        <time>2023-05-03T07:49:40+00:00</time>
        <ele>2223.0</ele>
      </trkpt>
      <trkpt lat="45.36042141728103" lon="6.197392540052533">
        <time>2023-05-03T07:49:59+00:00</time>
        <ele>2225.0</ele>
      </trkpt>
      <trkpt lat="45.360380513593554" lon="6.197532517835498">
        <time>2023-05-03T07:50:17+00:00</time>
        <ele>2227.0</ele>
      </trkpt>
      <trkpt lat="45.36034606397152" lon="6.197706693783402">
        <time>2023-05-03T07:50:35+00:00</time>
        <ele>2230.0</ele>
      </trkpt>
      <trkpt lat="45.36034262739122" lon="6.197843905538321">
        <time>2023-05-03T07:50:58+00:00</time>
        <ele>2232.0</ele>
      </trkpt>
      <trkpt lat="45.36031002178788" lon="6.197998216375709">
        <time>2023-05-03T07:51:15+00:00</time>
        <ele>2238.0</ele>
      </trkpt>
      <trkpt lat="45.36030113697052" lon="6.19816635735333">
        <time>2023-05-03T07:51:36+00:00</time>
        <ele>2244.0</ele>
      </trkpt>
      <trkpt lat="45.36030105315149" lon="6.198216313496232">
        <time>2023-05-03T07:51:55+00:00</time>
        <ele>2247.0</ele>
      </trkpt>
      <trkpt lat="45.360196698457" lon="6.198191419243813">
        <time>2023-05-03T07:52:11+00:00</time>
        <ele>2248.0</ele>
      </trkpt>
      <trkpt lat="45.360106928274035" lon="6.198113635182381">
        <time>2023-05-03T07:52:22+00:00</time>
        <ele>2249.0</ele>
      </trkpt>
      <trkpt lat="45.36001590080559" lon="6.197995617985725">
        <time>2023-05-03T07:52:39+00:00</time>
        <ele>2251.0</ele>
      </trkpt>
      <trkpt lat="45.35995068959892" lon="6.197861591354013">
        <time>2023-05-03T07:52:55+00:00</time>
        <ele>2253.0</ele>
      </trkpt>
      <trkpt lat="45.35991573706269" lon="6.197768803685904">
        <time>2023-05-03T07:53:13+00:00</time>
        <ele>2254.0</ele>
      </trkpt>
      <trkpt lat="45.359958317130804" lon="6.198040461167693">
        <time>2023-05-03T07:53:54+00:00</time>
        <ele>2255.0</ele>
      </trkpt>
      <trkpt lat="45.35994155332446" lon="6.198227209970355">
        <time>2023-05-03T07:54:14+00:00</time>
        <ele>2258.0</ele>
      </trkpt>
      <trkpt lat="45.35993384197354" lon="6.198446480557323">
        <time>2023-05-03T07:54:35+00:00</time>
        <ele>2263.0</ele>
      </trkpt>
      <trkpt lat="45.35998354665935" lon="6.198566509410739">
        <time>2023-05-03T07:54:55+00:00</time>
        <ele>2265.0</ele>
      </trkpt>
      <trkpt lat="45.36002604290843" lon="6.198620572686195">
        <time>2023-05-03T07:55:24+00:00</time>
        <ele>2267.0</ele>
      </trkpt>
      <trkpt lat="45.35995320416987" lon="6.198699027299881">
        <time>2023-05-03T07:55:43+00:00</time>
        <ele>2271.0</ele>
      </trkpt>
      <trkpt lat="45.35985605791211" lon="6.198739428073168">
        <time>2023-05-03T07:55:57+00:00</time>
        <ele>2275.0</ele>
      </trkpt>
      <trkpt lat="45.35990769043565" lon="6.198838837444782">
        <time>2023-05-03T07:57:00+00:00</time>
        <ele>2278.0</ele>
      </trkpt>
      <trkpt lat="45.35995027050376" lon="6.198931373655796">
        <time>2023-05-03T07:57:14+00:00</time>
        <ele>2280.0</ele>
      </trkpt>
      <trkpt lat="45.36000416614115" lon="6.199008822441101">
        <time>2023-05-03T07:57:30+00:00</time>
        <ele>2282.0</ele>
      </trkpt>
      <trkpt lat="45.36007147282362" lon="6.199160702526569">
        <time>2023-05-03T07:57:47+00:00</time>
        <ele>2286.0</ele>
      </trkpt>
      <trkpt lat="45.36013685166836" lon="6.199238318949938">
        <time>2023-05-03T07:58:08+00:00</time>
        <ele>2288.0</ele>
      </trkpt>
      <trkpt lat="45.360199213027954" lon="6.199254496023059">
        <time>2023-05-03T07:58:27+00:00</time>
        <ele>2289.0</ele>
      </trkpt>
      <trkpt lat="45.36029250361025" lon="6.199221052229404">
        <time>2023-05-03T07:58:43+00:00</time>
        <ele>2289.0</ele>
      </trkpt>
      <trkpt lat="45.36026098765433" lon="6.199377458542585">
        <time>2023-05-03T07:59:00+00:00</time>
        <ele>2296.0</ele>
      </trkpt>
      <trkpt lat="45.36024305038154" lon="6.199478963389993">
        <time>2023-05-03T07:59:17+00:00</time>
        <ele>2300.0</ele>
      </trkpt>
      <trkpt lat="45.36016711033881" lon="6.199637716636062">
        <time>2023-05-03T07:59:35+00:00</time>
        <ele>2306.0</ele>
      </trkpt>
      <trkpt lat="45.36014640703797" lon="6.199660347774625">
        <time>2023-05-03T07:59:46+00:00</time>
        <ele>2307.0</ele>
      </trkpt>
      <trkpt lat="45.3601639252156" lon="6.199655821546912">
        <time>2023-05-03T07:59:48+00:00</time>
        <ele>2307.0</ele>
      </trkpt>
      <trkpt lat="45.360229555517435" lon="6.199597651138902">
        <time>2023-05-03T08:00:15+00:00</time>
        <ele>2305.0</ele>
      </trkpt>
      <trkpt lat="45.36032058298588" lon="6.199550125747919">
        <time>2023-05-03T08:00:34+00:00</time>
        <ele>2305.0</ele>
      </trkpt>
      <trkpt lat="45.3603071719408" lon="6.199574936181307">
        <time>2023-05-03T08:00:54+00:00</time>
        <ele>2305.0</ele>
      </trkpt>
      <trkpt lat="45.36025512032211" lon="6.199712231755257">
        <time>2023-05-03T08:01:13+00:00</time>
        <ele>2310.0</ele>
      </trkpt>
      <trkpt lat="45.360154788941145" lon="6.199895963072777">
        <time>2023-05-03T08:01:50+00:00</time>
        <ele>2317.0</ele>
      </trkpt>
      <trkpt lat="45.3602952696383" lon="6.199894538149238">
        <time>2023-05-03T08:02:40+00:00</time>
        <ele>2318.0</ele>
      </trkpt>
      <trkpt lat="45.36024254746735" lon="6.200008783489466">
        <time>2023-05-03T08:02:58+00:00</time>
        <ele>2322.0</ele>
      </trkpt>
      <trkpt lat="45.36012754775584" lon="6.200124621391296">
        <time>2023-05-03T08:03:34+00:00</time>
        <ele>2328.0</ele>
      </trkpt>
      <trkpt lat="45.36023776978254" lon="6.200117915868759">
        <time>2023-05-03T08:04:01+00:00</time>
        <ele>2327.0</ele>
      </trkpt>
      <trkpt lat="45.360339526087046" lon="6.200089082121849">
        <time>2023-05-03T08:04:21+00:00</time>
        <ele>2327.0</ele>
      </trkpt>
      <trkpt lat="45.36029954440892" lon="6.200249595567584">
        <time>2023-05-03T08:04:40+00:00</time>
        <ele>2334.0</ele>
      </trkpt>
      <trkpt lat="45.36027506925166" lon="6.200347999110818">
        <time>2023-05-03T08:05:01+00:00</time>
        <ele>2337.0</ele>
      </trkpt>
      <trkpt lat="45.3601779229939" lon="6.200413126498461">
        <time>2023-05-03T08:05:21+00:00</time>
        <ele>2338.0</ele>
      </trkpt>
      <trkpt lat="45.36017306149006" lon="6.200481774285436">
        <time>2023-05-03T08:05:38+00:00</time>
        <ele>2340.0</ele>
      </trkpt>
      <trkpt lat="45.36018194630742" lon="6.200513960793614">
        <time>2023-05-03T08:05:59+00:00</time>
        <ele>2341.0</ele>
      </trkpt>
      <trkpt lat="45.360170379281044" lon="6.200660141184926">
        <time>2023-05-03T08:06:15+00:00</time>
        <ele>2345.0</ele>
      </trkpt>
      <trkpt lat="45.36016970872879" lon="6.200737841427326">
        <time>2023-05-03T08:06:28+00:00</time>
        <ele>2346.0</ele>
      </trkpt>
      <trkpt lat="45.36015319637954" lon="6.200838591903448">
        <time>2023-05-03T08:06:41+00:00</time>
        <ele>2349.0</ele>
      </trkpt>
      <trkpt lat="45.36009393632412" lon="6.200889218598604">
        <time>2023-05-03T08:07:00+00:00</time>
        <ele>2352.0</ele>
      </trkpt>
      <trkpt lat="45.36008287221193" lon="6.201004134491086">
        <time>2023-05-03T08:07:25+00:00</time>
        <ele>2355.0</ele>
      </trkpt>
      <trkpt lat="45.36004699766636" lon="6.201115697622299">
        <time>2023-05-03T08:07:41+00:00</time>
        <ele>2358.0</ele>
      </trkpt>
      <trkpt lat="45.36001967266202" lon="6.201252238824964">
        <time>2023-05-03T08:07:59+00:00</time>
        <ele>2360.0</ele>
      </trkpt>
      <trkpt lat="45.36002210341394" lon="6.201275875791907">
        <time>2023-05-03T08:08:22+00:00</time>
        <ele>2361.0</ele>
      </trkpt>
      <trkpt lat="45.359903667122126" lon="6.201393725350499">
        <time>2023-05-03T08:08:49+00:00</time>
        <ele>2365.0</ele>
      </trkpt>
      <trkpt lat="45.359839126467705" lon="6.201464720070362">
        <time>2023-05-03T08:08:58+00:00</time>
        <ele>2370.0</ele>
      </trkpt>
      <trkpt lat="45.35980484448373" lon="6.201610313728452">
        <time>2023-05-03T08:09:12+00:00</time>
        <ele>2375.0</ele>
      </trkpt>
      <trkpt lat="45.359768299385905" lon="6.201714584603906">
        <time>2023-05-03T08:09:25+00:00</time>
        <ele>2377.0</ele>
      </trkpt>
      <trkpt lat="45.359695963561535" lon="6.201787171885371">
        <time>2023-05-03T08:09:39+00:00</time>
        <ele>2380.0</ele>
      </trkpt>
      <trkpt lat="45.35955489613116" lon="6.201868392527103">
        <time>2023-05-03T08:09:57+00:00</time>
        <ele>2384.0</ele>
      </trkpt>
      <trkpt lat="45.359438974410295" lon="6.201974842697382">
        <time>2023-05-03T08:10:16+00:00</time>
        <ele>2382.0</ele>
      </trkpt>
      <trkpt lat="45.35935280844569" lon="6.201986158266664">
        <time>2023-05-03T08:10:33+00:00</time>
        <ele>2382.0</ele>
      </trkpt>
      <trkpt lat="45.35928466357291" lon="6.201818184927106">
        <time>2023-05-03T08:10:50+00:00</time>
        <ele>2386.0</ele>
      </trkpt>
      <trkpt lat="45.35916019231081" lon="6.201761439442635">
        <time>2023-05-03T08:11:06+00:00</time>
        <ele>2388.0</ele>
      </trkpt>
      <trkpt lat="45.3591329511255" lon="6.201788177713752">
        <time>2023-05-03T08:11:21+00:00</time>
        <ele>2389.0</ele>
      </trkpt>
      <trkpt lat="45.359018202871084" lon="6.201904099434614">
        <time>2023-05-03T08:11:41+00:00</time>
        <ele>2392.0</ele>
      </trkpt>
      <trkpt lat="45.35893689841032" lon="6.202030414715409">
        <time>2023-05-03T08:11:58+00:00</time>
        <ele>2392.0</ele>
      </trkpt>
      <trkpt lat="45.35892424173653" lon="6.202129907906056">
        <time>2023-05-03T08:12:17+00:00</time>
        <ele>2391.0</ele>
      </trkpt>
      <trkpt lat="45.35904301330447" lon="6.202317662537098">
        <time>2023-05-03T08:24:31+00:00</time>
        <ele>2377.0</ele>
      </trkpt>
      <trkpt lat="45.35913856700063" lon="6.202406007796526">
        <time>2023-05-03T08:24:34+00:00</time>
        <ele>2368.0</ele>
      </trkpt>
      <trkpt lat="45.35917871631682" lon="6.20256207883358">
        <time>2023-05-03T08:24:37+00:00</time>
        <ele>2360.0</ele>
      </trkpt>
      <trkpt lat="45.35922272130847" lon="6.202590996399522">
        <time>2023-05-03T08:24:38+00:00</time>
        <ele>2356.0</ele>
      </trkpt>
      <trkpt lat="45.359337385743856" lon="6.202769363299012">
        <time>2023-05-03T08:24:42+00:00</time>
        <ele>2342.0</ele>
      </trkpt>
      <trkpt lat="45.35942321643233" lon="6.202841615304351">
        <time>2023-05-03T08:24:44+00:00</time>
        <ele>2334.0</ele>
      </trkpt>
      <trkpt lat="45.359540646895766" lon="6.20302970521152">
        <time>2023-05-03T08:24:48+00:00</time>
        <ele>2321.0</ele>
      </trkpt>
      <trkpt lat="45.35955506376922" lon="6.203120900318027">
        <time>2023-05-03T08:24:49+00:00</time>
        <ele>2316.0</ele>
      </trkpt>
      <trkpt lat="45.35973544232547" lon="6.203289711847901">
        <time>2023-05-03T08:24:52+00:00</time>
        <ele>2300.0</ele>
      </trkpt>
      <trkpt lat="45.359779531136155" lon="6.20336146093905">
        <time>2023-05-03T08:24:53+00:00</time>
        <ele>2295.0</ele>
      </trkpt>
      <trkpt lat="45.359764862805605" lon="6.203457769006491">
        <time>2023-05-03T08:24:54+00:00</time>
        <ele>2292.0</ele>
      </trkpt>
      <trkpt lat="45.35977743566036" lon="6.203549131751061">
        <time>2023-05-03T08:24:55+00:00</time>
        <ele>2287.0</ele>
      </trkpt>
      <trkpt lat="45.359819093719125" lon="6.203623814508319">
        <time>2023-05-03T08:24:56+00:00</time>
        <ele>2282.0</ele>
      </trkpt>
      <trkpt lat="45.35987298935652" lon="6.203669412061572">
        <time>2023-05-03T08:24:57+00:00</time>
        <ele>2278.0</ele>
      </trkpt>
      <trkpt lat="45.359928561374545" lon="6.203711237758398">
        <time>2023-05-03T08:24:58+00:00</time>
        <ele>2274.0</ele>
      </trkpt>
      <trkpt lat="45.35994817502797" lon="6.203783573582768">
        <time>2023-05-03T08:24:59+00:00</time>
        <ele>2270.0</ele>
      </trkpt>
      <trkpt lat="45.35992914810777" lon="6.203878037631512">
        <time>2023-05-03T08:25:00+00:00</time>
        <ele>2268.0</ele>
      </trkpt>
      <trkpt lat="45.35990257747471" lon="6.203969065099955">
        <time>2023-05-03T08:25:01+00:00</time>
        <ele>2265.0</ele>
      </trkpt>
      <trkpt lat="45.35987407900393" lon="6.204055733978748">
        <time>2023-05-03T08:25:02+00:00</time>
        <ele>2263.0</ele>
      </trkpt>
      <trkpt lat="45.35986083559692" lon="6.204149359837174">
        <time>2023-05-03T08:25:03+00:00</time>
        <ele>2260.0</ele>
      </trkpt>
      <trkpt lat="45.35985454916954" lon="6.204250613227487">
        <time>2023-05-03T08:25:04+00:00</time>
        <ele>2256.0</ele>
      </trkpt>
      <trkpt lat="45.3599379491061" lon="6.204350190237165">
        <time>2023-05-03T08:25:06+00:00</time>
        <ele>2249.0</ele>
      </trkpt>
      <trkpt lat="45.36006116308272" lon="6.204494526609778">
        <time>2023-05-03T08:25:09+00:00</time>
        <ele>2238.0</ele>
      </trkpt>
      <trkpt lat="45.36005437374115" lon="6.204578094184399">
        <time>2023-05-03T08:25:10+00:00</time>
        <ele>2235.0</ele>
      </trkpt>
      <trkpt lat="45.36002260632813" lon="6.204657554626465">
        <time>2023-05-03T08:25:11+00:00</time>
        <ele>2233.0</ele>
      </trkpt>
      <trkpt lat="45.36001003347337" lon="6.204739110544324">
        <time>2023-05-03T08:25:12+00:00</time>
        <ele>2230.0</ele>
      </trkpt>
      <trkpt lat="45.36000894382596" lon="6.204818151891232">
        <time>2023-05-03T08:25:13+00:00</time>
        <ele>2226.0</ele>
      </trkpt>
      <trkpt lat="45.36008060909808" lon="6.204901803284884">
        <time>2023-05-03T08:25:15+00:00</time>
        <ele>2220.0</ele>
      </trkpt>
      <trkpt lat="45.36017406731844" lon="6.204976150766015">
        <time>2023-05-03T08:25:17+00:00</time>
        <ele>2214.0</ele>
      </trkpt>
      <trkpt lat="45.36012478172779" lon="6.205123756080866">
        <time>2023-05-03T08:25:19+00:00</time>
        <ele>2210.0</ele>
      </trkpt>
      <trkpt lat="45.360151436179876" lon="6.205425253137946">
        <time>2023-05-03T08:25:23+00:00</time>
        <ele>2199.0</ele>
      </trkpt>
      <trkpt lat="45.360226118937135" lon="6.205552155151963">
        <time>2023-05-03T08:25:25+00:00</time>
        <ele>2192.0</ele>
      </trkpt>
      <trkpt lat="45.36019896157086" lon="6.205711411312223">
        <time>2023-05-03T08:25:27+00:00</time>
        <ele>2187.0</ele>
      </trkpt>
      <trkpt lat="45.36021773703396" lon="6.205869158729911">
        <time>2023-05-03T08:25:29+00:00</time>
        <ele>2180.0</ele>
      </trkpt>
      <trkpt lat="45.36025428213179" lon="6.206018356606364">
        <time>2023-05-03T08:25:31+00:00</time>
        <ele>2173.0</ele>
      </trkpt>
      <trkpt lat="45.36024380475283" lon="6.206159759312868">
        <time>2023-05-03T08:25:33+00:00</time>
        <ele>2169.0</ele>
      </trkpt>
      <trkpt lat="45.360235422849655" lon="6.206291606649756">
        <time>2023-05-03T08:25:35+00:00</time>
        <ele>2164.0</ele>
      </trkpt>
      <trkpt lat="45.36026643589139" lon="6.206354554742575">
        <time>2023-05-03T08:25:36+00:00</time>
        <ele>2161.0</ele>
      </trkpt>
      <trkpt lat="45.36027079448104" lon="6.206682957708836">
        <time>2023-05-03T08:25:40+00:00</time>
        <ele>2150.0</ele>
      </trkpt>
      <trkpt lat="45.360241793096066" lon="6.206868533045054">
        <time>2023-05-03T08:25:42+00:00</time>
        <ele>2145.0</ele>
      </trkpt>
      <trkpt lat="45.36012067459524" lon="6.207204479724169">
        <time>2023-05-03T08:25:46+00:00</time>
        <ele>2131.0</ele>
      </trkpt>
      <trkpt lat="45.360019002109766" lon="6.207310007885099">
        <time>2023-05-03T08:25:48+00:00</time>
        <ele>2124.0</ele>
      </trkpt>
      <trkpt lat="45.359946582466364" lon="6.207422073930502">
        <time>2023-05-03T08:25:50+00:00</time>
        <ele>2119.0</ele>
      </trkpt>
      <trkpt lat="45.35996158607304" lon="6.207496421411634">
        <time>2023-05-03T08:25:51+00:00</time>
        <ele>2115.0</ele>
      </trkpt>
      <trkpt lat="45.35994448699057" lon="6.2078539095819">
        <time>2023-05-03T08:25:55+00:00</time>
        <ele>2099.0</ele>
      </trkpt>
      <trkpt lat="45.35991649143398" lon="6.207915265113115">
        <time>2023-05-03T08:25:56+00:00</time>
        <ele>2097.0</ele>
      </trkpt>
      <trkpt lat="45.35988321527839" lon="6.207967903465033">
        <time>2023-05-03T08:25:57+00:00</time>
        <ele>2096.0</ele>
      </trkpt>
      <trkpt lat="45.359837198629975" lon="6.208018949255347">
        <time>2023-05-03T08:25:58+00:00</time>
        <ele>2095.0</ele>
      </trkpt>
      <trkpt lat="45.35973485559225" lon="6.2081578373909">
        <time>2023-05-03T08:26:01+00:00</time>
        <ele>2092.0</ele>
      </trkpt>
      <trkpt lat="45.35978774540126" lon="6.208285661414266">
        <time>2023-05-03T08:26:04+00:00</time>
        <ele>2085.0</ele>
      </trkpt>
      <trkpt lat="45.359795121476054" lon="6.208435278385878">
        <time>2023-05-03T08:26:06+00:00</time>
        <ele>2079.0</ele>
      </trkpt>
      <trkpt lat="45.35985019057989" lon="6.208572825416923">
        <time>2023-05-03T08:26:08+00:00</time>
        <ele>2071.0</ele>
      </trkpt>
      <trkpt lat="45.35994574427605" lon="6.208692602813244">
        <time>2023-05-03T08:26:10+00:00</time>
        <ele>2063.0</ele>
      </trkpt>
      <trkpt lat="45.35999804735184" lon="6.208831910043955">
        <time>2023-05-03T08:26:12+00:00</time>
        <ele>2057.0</ele>
      </trkpt>
      <trkpt lat="45.36002855747938" lon="6.208877339959145">
        <time>2023-05-03T08:26:13+00:00</time>
        <ele>2054.0</ele>
      </trkpt>
      <trkpt lat="45.36009686999023" lon="6.208992842584848">
        <time>2023-05-03T08:26:15+00:00</time>
        <ele>2049.0</ele>
      </trkpt>
      <trkpt lat="45.36010240204632" lon="6.209145644679666">
        <time>2023-05-03T08:26:17+00:00</time>
        <ele>2044.0</ele>
      </trkpt>
      <trkpt lat="45.360128385946155" lon="6.20933641679585">
        <time>2023-05-03T08:26:19+00:00</time>
        <ele>2037.0</ele>
      </trkpt>
      <trkpt lat="45.36013936623931" lon="6.209520902484655">
        <time>2023-05-03T08:26:21+00:00</time>
        <ele>2031.0</ele>
      </trkpt>
      <trkpt lat="45.36018395796418" lon="6.209608996286988">
        <time>2023-05-03T08:26:22+00:00</time>
        <ele>2027.0</ele>
      </trkpt>
      <trkpt lat="45.36022670567036" lon="6.209705052897334">
        <time>2023-05-03T08:26:23+00:00</time>
        <ele>2024.0</ele>
      </trkpt>
      <trkpt lat="45.360242715105414" lon="6.209807144477963">
        <time>2023-05-03T08:26:24+00:00</time>
        <ele>2020.0</ele>
      </trkpt>
      <trkpt lat="45.36023550666869" lon="6.209910325706005">
        <time>2023-05-03T08:26:25+00:00</time>
        <ele>2016.0</ele>
      </trkpt>
      <trkpt lat="45.36024288274348" lon="6.210008058696985">
        <time>2023-05-03T08:26:26+00:00</time>
        <ele>2012.0</ele>
      </trkpt>
      <trkpt lat="45.36027490161359" lon="6.210103780031204">
        <time>2023-05-03T08:26:27+00:00</time>
        <ele>2008.0</ele>
      </trkpt>
      <trkpt lat="45.3603748138994" lon="6.210421370342374">
        <time>2023-05-03T08:26:30+00:00</time>
        <ele>1995.0</ele>
      </trkpt>
      <trkpt lat="45.360386380925775" lon="6.210510469973087">
        <time>2023-05-03T08:26:31+00:00</time>
        <ele>1992.0</ele>
      </trkpt>
      <trkpt lat="45.36032410338521" lon="6.210651453584433">
        <time>2023-05-03T08:26:33+00:00</time>
        <ele>1989.0</ele>
      </trkpt>
      <trkpt lat="45.36036961711943" lon="6.210769889876247">
        <time>2023-05-03T08:26:35+00:00</time>
        <ele>1983.0</ele>
      </trkpt>
      <trkpt lat="45.36041303537786" lon="6.210850523784757">
        <time>2023-05-03T08:26:37+00:00</time>
        <ele>1980.0</ele>
      </trkpt>
      <trkpt lat="45.360429463908076" lon="6.210870556533337">
        <time>2023-05-03T08:26:38+00:00</time>
        <ele>1980.0</ele>
      </trkpt>
      <trkpt lat="45.36035670898855" lon="6.210843399167061">
        <time>2023-05-03T08:26:43+00:00</time>
        <ele>1981.0</ele>
      </trkpt>
      <trkpt lat="45.36033927462995" lon="6.210833676159382">
        <time>2023-05-03T08:26:44+00:00</time>
        <ele>1982.0</ele>
      </trkpt>
      <trkpt lat="45.36007650196552" lon="6.210682215169072">
        <time>2023-05-03T08:27:10+00:00</time>
        <ele>1995.0</ele>
      </trkpt>
      <trkpt lat="45.360040878877044" lon="6.210712473839521">
        <time>2023-05-03T08:27:17+00:00</time>
        <ele>1996.0</ele>
      </trkpt>
      <trkpt lat="45.35999737679958" lon="6.211083708330989">
        <time>2023-05-03T08:27:23+00:00</time>
        <ele>1987.0</ele>
      </trkpt>
      <trkpt lat="45.360045321285725" lon="6.211448572576046">
        <time>2023-05-03T08:27:27+00:00</time>
        <ele>1974.0</ele>
      </trkpt>
      <trkpt lat="45.360127966850996" lon="6.211583269760013">
        <time>2023-05-03T08:27:29+00:00</time>
        <ele>1968.0</ele>
      </trkpt>
      <trkpt lat="45.36028546281159" lon="6.211849143728614">
        <time>2023-05-03T08:27:33+00:00</time>
        <ele>1952.0</ele>
      </trkpt>
      <trkpt lat="45.36023165099323" lon="6.211983840912581">
        <time>2023-05-03T08:27:35+00:00</time>
        <ele>1947.0</ele>
      </trkpt>
      <trkpt lat="45.36013307981193" lon="6.212096242234111">
        <time>2023-05-03T08:27:37+00:00</time>
        <ele>1945.0</ele>
      </trkpt>
      <trkpt lat="45.35997717641294" lon="6.212238231673837">
        <time>2023-05-03T08:27:40+00:00</time>
        <ele>1946.0</ele>
      </trkpt>
      <trkpt lat="45.35990634933114" lon="6.212276536971331">
        <time>2023-05-03T08:27:42+00:00</time>
        <ele>1948.0</ele>
      </trkpt>
      <trkpt lat="45.359806437045336" lon="6.212424142286181">
        <time>2023-05-03T08:27:47+00:00</time>
        <ele>1949.0</ele>
      </trkpt>
      <trkpt lat="45.35973611287773" lon="6.212601084262133">
        <time>2023-05-03T08:27:50+00:00</time>
        <ele>1946.0</ele>
      </trkpt>
      <trkpt lat="45.35968146286905" lon="6.212795292958617">
        <time>2023-05-03T08:27:53+00:00</time>
        <ele>1939.0</ele>
      </trkpt>
      <trkpt lat="45.35955028608441" lon="6.213027220219374">
        <time>2023-05-03T08:27:58+00:00</time>
        <ele>1931.0</ele>
      </trkpt>
      <trkpt lat="45.35947375930846" lon="6.213133754208684">
        <time>2023-05-03T08:28:02+00:00</time>
        <ele>1928.0</ele>
      </trkpt>
      <trkpt lat="45.35936881788075" lon="6.213238779455423">
        <time>2023-05-03T08:28:05+00:00</time>
        <ele>1926.0</ele>
      </trkpt>
      <trkpt lat="45.35923847928643" lon="6.213397532701492">
        <time>2023-05-03T08:28:09+00:00</time>
        <ele>1924.0</ele>
      </trkpt>
      <trkpt lat="45.35918693058193" lon="6.213480597361922">
        <time>2023-05-03T08:28:12+00:00</time>
        <ele>1923.0</ele>
      </trkpt>
      <trkpt lat="45.35917377099395" lon="6.213500965386629">
        <time>2023-05-03T08:28:13+00:00</time>
        <ele>1922.0</ele>
      </trkpt>
      <trkpt lat="45.359070589765906" lon="6.213617054745555">
        <time>2023-05-03T08:28:18+00:00</time>
        <ele>1923.0</ele>
      </trkpt>
      <trkpt lat="45.35902884788811" lon="6.213641194626689">
        <time>2023-05-03T08:28:20+00:00</time>
        <ele>1924.0</ele>
      </trkpt>
      <trkpt lat="45.35893656313419" lon="6.213684529066086">
        <time>2023-05-03T08:28:28+00:00</time>
        <ele>1926.0</ele>
      </trkpt>
      <trkpt lat="45.35887252539396" lon="6.21386700309813">
        <time>2023-05-03T08:28:32+00:00</time>
        <ele>1923.0</ele>
      </trkpt>
      <trkpt lat="45.358932707458735" lon="6.214112425222993">
        <time>2023-05-03T08:28:37+00:00</time>
        <ele>1913.0</ele>
      </trkpt>
      <trkpt lat="45.35907897166908" lon="6.214394308626652">
        <time>2023-05-03T08:28:41+00:00</time>
        <ele>1900.0</ele>
      </trkpt>
      <trkpt lat="45.359123814851046" lon="6.214625984430313">
        <time>2023-05-03T08:28:43+00:00</time>
        <ele>1892.0</ele>
      </trkpt>
      <trkpt lat="45.35925708711147" lon="6.214745510369539">
        <time>2023-05-03T08:28:45+00:00</time>
        <ele>1884.0</ele>
      </trkpt>
      <trkpt lat="45.359394550323486" lon="6.214747773483396">
        <time>2023-05-03T08:28:47+00:00</time>
        <ele>1879.0</ele>
      </trkpt>
      <trkpt lat="45.35960644483566" lon="6.214941563084722">
        <time>2023-05-03T08:28:50+00:00</time>
        <ele>1867.0</ele>
      </trkpt>
      <trkpt lat="45.35968288779259" lon="6.214996464550495">
        <time>2023-05-03T08:28:51+00:00</time>
        <ele>1864.0</ele>
      </trkpt>
      <trkpt lat="45.35992001183331" lon="6.215122528374195">
        <time>2023-05-03T08:28:54+00:00</time>
        <ele>1854.0</ele>
      </trkpt>
      <trkpt lat="45.359962340444326" lon="6.215241802856326">
        <time>2023-05-03T08:28:55+00:00</time>
        <ele>1850.0</ele>
      </trkpt>
      <trkpt lat="45.36001824773848" lon="6.215353952720761">
        <time>2023-05-03T08:28:56+00:00</time>
        <ele>1846.0</ele>
      </trkpt>
      <trkpt lat="45.360093181952834" lon="6.215410195291042">
        <time>2023-05-03T08:28:57+00:00</time>
        <ele>1843.0</ele>
      </trkpt>
      <trkpt lat="45.36018345504999" lon="6.215413715690374">
        <time>2023-05-03T08:28:58+00:00</time>
        <ele>1840.0</ele>
      </trkpt>
      <trkpt lat="45.360294515267015" lon="6.21540617197752">
        <time>2023-05-03T08:28:59+00:00</time>
        <ele>1836.0</ele>
      </trkpt>
      <trkpt lat="45.360395265743136" lon="6.215447243303061">
        <time>2023-05-03T08:29:00+00:00</time>
        <ele>1832.0</ele>
      </trkpt>
      <trkpt lat="45.360474810004234" lon="6.215554364025593">
        <time>2023-05-03T08:29:01+00:00</time>
        <ele>1829.0</ele>
      </trkpt>
      <trkpt lat="45.3605180606246" lon="6.215688893571496">
        <time>2023-05-03T08:29:02+00:00</time>
        <ele>1825.0</ele>
      </trkpt>
      <trkpt lat="45.36052258685231" lon="6.215820740908384">
        <time>2023-05-03T08:29:03+00:00</time>
        <ele>1823.0</ele>
      </trkpt>
      <trkpt lat="45.36054337397218" lon="6.215960802510381">
        <time>2023-05-03T08:29:04+00:00</time>
        <ele>1820.0</ele>
      </trkpt>
      <trkpt lat="45.36059902980924" lon="6.216062055900693">
        <time>2023-05-03T08:29:05+00:00</time>
        <ele>1817.0</ele>
      </trkpt>
      <trkpt lat="45.360676227137446" lon="6.216162806376815">
        <time>2023-05-03T08:29:06+00:00</time>
        <ele>1814.0</ele>
      </trkpt>
      <trkpt lat="45.3607530053705" lon="6.216389620676637">
        <time>2023-05-03T08:29:08+00:00</time>
        <ele>1809.0</ele>
      </trkpt>
      <trkpt lat="45.360767589882016" lon="6.216620458289981">
        <time>2023-05-03T08:29:10+00:00</time>
        <ele>1805.0</ele>
      </trkpt>
      <trkpt lat="45.36080740392208" lon="6.21670444495976">
        <time>2023-05-03T08:29:11+00:00</time>
        <ele>1803.0</ele>
      </trkpt>
      <trkpt lat="45.36089449189603" lon="6.216892870143056">
        <time>2023-05-03T08:29:13+00:00</time>
        <ele>1799.0</ele>
      </trkpt>
      <trkpt lat="45.36092349328101" lon="6.217221608385444">
        <time>2023-05-03T08:29:16+00:00</time>
        <ele>1792.0</ele>
      </trkpt>
      <trkpt lat="45.36097873002291" lon="6.217279611155391">
        <time>2023-05-03T08:30:17+00:00</time>
        <ele>1791.0</ele>
      </trkpt>
      <trkpt lat="45.36110588349402" lon="6.217534756287932">
        <time>2023-05-03T08:30:36+00:00</time>
        <ele>1788.0</ele>
      </trkpt>
      <trkpt lat="45.36117436364293" lon="6.217713039368391">
        <time>2023-05-03T08:30:46+00:00</time>
        <ele>1788.0</ele>
      </trkpt>
      <trkpt lat="45.3611811529845" lon="6.217740951105952">
        <time>2023-05-03T08:30:48+00:00</time>
        <ele>1787.0</ele>
      </trkpt>
      <trkpt lat="45.36119665950537" lon="6.217801552265883">
        <time>2023-05-03T08:30:51+00:00</time>
        <ele>1787.0</ele>
      </trkpt>
      <trkpt lat="45.3612554166466" lon="6.218198435381055">
        <time>2023-05-03T08:31:03+00:00</time>
        <ele>1785.0</ele>
      </trkpt>
      <trkpt lat="45.36126715131104" lon="6.218348555266857">
        <time>2023-05-03T08:31:14+00:00</time>
        <ele>1784.0</ele>
      </trkpt>
      <trkpt lat="45.361280143260956" lon="6.218416281044483">
        <time>2023-05-03T08:31:22+00:00</time>
        <ele>1784.0</ele>
      </trkpt>
      <trkpt lat="45.361293302848935" lon="6.218558605760336">
        <time>2023-05-03T08:31:34+00:00</time>
        <ele>1784.0</ele>
      </trkpt>
      <trkpt lat="45.361305540427566" lon="6.218630690127611">
        <time>2023-05-03T08:31:50+00:00</time>
        <ele>1784.0</ele>
      </trkpt>
      <trkpt lat="45.361351892352104" lon="6.218740660697222">
        <time>2023-05-03T08:32:11+00:00</time>
        <ele>1786.0</ele>
      </trkpt>
      <trkpt lat="45.36143898032606" lon="6.218990609049797">
        <time>2023-05-03T08:32:33+00:00</time>
        <ele>1788.0</ele>
      </trkpt>
      <trkpt lat="45.361443255096674" lon="6.21902740560472">
        <time>2023-05-03T08:32:36+00:00</time>
        <ele>1788.0</ele>
      </trkpt>
      <trkpt lat="45.36150947213173" lon="6.219187835231423">
        <time>2023-05-03T08:32:50+00:00</time>
        <ele>1791.0</ele>
      </trkpt>
      <trkpt lat="45.36159270443022" lon="6.219456978142262">
        <time>2023-05-03T08:33:04+00:00</time>
        <ele>1790.0</ele>
      </trkpt>
      <trkpt lat="45.36175204440951" lon="6.219810945913196">
        <time>2023-05-03T08:33:15+00:00</time>
        <ele>1784.0</ele>
      </trkpt>
      <trkpt lat="45.3619843069464" lon="6.220199530944228">
        <time>2023-05-03T08:33:23+00:00</time>
        <ele>1778.0</ele>
      </trkpt>
      <trkpt lat="45.36203342489898" lon="6.22041461057961">
        <time>2023-05-03T08:33:31+00:00</time>
        <ele>1775.0</ele>
      </trkpt>
      <trkpt lat="45.36215219646692" lon="6.220752820372582">
        <time>2023-05-03T08:33:43+00:00</time>
        <ele>1772.0</ele>
      </trkpt>
      <trkpt lat="45.36222394555807" lon="6.220995979383588">
        <time>2023-05-03T08:33:51+00:00</time>
        <ele>1767.0</ele>
      </trkpt>
      <trkpt lat="45.3622398711741" lon="6.221024477854371">
        <time>2023-05-03T08:34:01+00:00</time>
        <ele>1767.0</ele>
      </trkpt>
      <trkpt lat="45.36227826029062" lon="6.22112799435854">
        <time>2023-05-03T08:34:42+00:00</time>
        <ele>1764.0</ele>
      </trkpt>
      <trkpt lat="45.362371718510985" lon="6.221421277150512">
        <time>2023-05-03T08:34:47+00:00</time>
        <ele>1758.0</ele>
      </trkpt>
      <trkpt lat="45.36241924390197" lon="6.221531750634313">
        <time>2023-05-03T08:34:50+00:00</time>
        <ele>1757.0</ele>
      </trkpt>
      <trkpt lat="45.36262258887291" lon="6.221821932122111">
        <time>2023-05-03T08:39:57+00:00</time>
        <ele>1764.0</ele>
      </trkpt>
      <trkpt lat="45.362657541409135" lon="6.221868032589555">
        <time>2023-05-03T08:40:14+00:00</time>
        <ele>1766.0</ele>
      </trkpt>
      <trkpt lat="45.362722082063556" lon="6.221952270716429">
        <time>2023-05-03T08:40:32+00:00</time>
        <ele>1768.0</ele>
      </trkpt>
      <trkpt lat="45.36279601044953" lon="6.2220280431211">
        <time>2023-05-03T08:40:53+00:00</time>
        <ele>1770.0</ele>
      </trkpt>
      <trkpt lat="45.36285418085754" lon="6.222165254876018">
        <time>2023-05-03T08:41:11+00:00</time>
        <ele>1770.0</ele>
      </trkpt>
      <trkpt lat="45.36289625801146" lon="6.222248738631606">
        <time>2023-05-03T08:41:17+00:00</time>
        <ele>1772.0</ele>
      </trkpt>
      <trkpt lat="45.362959457561374" lon="6.222366336733103">
        <time>2023-05-03T08:41:30+00:00</time>
        <ele>1774.0</ele>
      </trkpt>
      <trkpt lat="45.362995248287916" lon="6.222501201555133">
        <time>2023-05-03T08:41:45+00:00</time>
        <ele>1774.0</ele>
      </trkpt>
      <trkpt lat="45.36304076202214" lon="6.222558282315731">
        <time>2023-05-03T08:42:01+00:00</time>
        <ele>1777.0</ele>
      </trkpt>
      <trkpt lat="45.363089544698596" lon="6.222638580948114">
        <time>2023-05-03T08:42:17+00:00</time>
        <ele>1779.0</ele>
      </trkpt>
      <trkpt lat="45.36309943534434" lon="6.222685519605875">
        <time>2023-05-03T08:42:35+00:00</time>
        <ele>1779.0</ele>
      </trkpt>
      <trkpt lat="45.36312944255769" lon="6.22272290289402">
        <time>2023-05-03T08:43:03+00:00</time>
        <ele>1780.0</ele>
      </trkpt>
      <trkpt lat="45.36323052830994" lon="6.222764728590846">
        <time>2023-05-03T08:43:34+00:00</time>
        <ele>1786.0</ele>
      </trkpt>
      <trkpt lat="45.363266905769706" lon="6.222865143790841">
        <time>2023-05-03T08:43:54+00:00</time>
        <ele>1784.0</ele>
      </trkpt>
      <trkpt lat="45.363326417282224" lon="6.222974695265293">
        <time>2023-05-03T08:44:11+00:00</time>
        <ele>1785.0</ele>
      </trkpt>
      <trkpt lat="45.36337084136903" lon="6.22307326644659">
        <time>2023-05-03T08:44:30+00:00</time>
        <ele>1787.0</ele>
      </trkpt>
      <trkpt lat="45.36344728432596" lon="6.223232606425881">
        <time>2023-05-03T08:44:48+00:00</time>
        <ele>1790.0</ele>
      </trkpt>
      <trkpt lat="45.363445188850164" lon="6.223338805139065">
        <time>2023-05-03T08:45:05+00:00</time>
        <ele>1788.0</ele>
      </trkpt>
      <trkpt lat="45.36346849054098" lon="6.223381636664271">
        <time>2023-05-03T08:45:10+00:00</time>
        <ele>1789.0</ele>
      </trkpt>
      <trkpt lat="45.36356748081744" lon="6.2236063554883">
        <time>2023-05-03T08:45:31+00:00</time>
        <ele>1791.0</ele>
      </trkpt>
      <trkpt lat="45.36361886188388" lon="6.223740885034204">
        <time>2023-05-03T08:45:50+00:00</time>
        <ele>1792.0</ele>
      </trkpt>
      <trkpt lat="45.3636696562171" lon="6.223796037957072">
        <time>2023-05-03T08:46:10+00:00</time>
        <ele>1794.0</ele>
      </trkpt>
      <trkpt lat="45.36374702118337" lon="6.223828727379441">
        <time>2023-05-03T08:46:34+00:00</time>
        <ele>1799.0</ele>
      </trkpt>
      <trkpt lat="45.3638248052448" lon="6.223816489800811">
        <time>2023-05-03T08:46:54+00:00</time>
        <ele>1803.0</ele>
      </trkpt>
      <trkpt lat="45.36392614245415" lon="6.22378564439714">
        <time>2023-05-03T08:47:12+00:00</time>
        <ele>1809.0</ele>
      </trkpt>
      <trkpt lat="45.364044327288866" lon="6.223798636347055">
        <time>2023-05-03T08:47:32+00:00</time>
        <ele>1812.0</ele>
      </trkpt>
      <trkpt lat="45.3641202673316" lon="6.223863093182445">
        <time>2023-05-03T08:47:51+00:00</time>
        <ele>1811.0</ele>
      </trkpt>
      <trkpt lat="45.36421598866582" lon="6.223919335752726">
        <time>2023-05-03T08:48:10+00:00</time>
        <ele>1813.0</ele>
      </trkpt>
      <trkpt lat="45.36430533975363" lon="6.223978092893958">
        <time>2023-05-03T08:48:29+00:00</time>
        <ele>1815.0</ele>
      </trkpt>
      <trkpt lat="45.36435831338167" lon="6.224115639925003">
        <time>2023-05-03T08:48:46+00:00</time>
        <ele>1813.0</ele>
      </trkpt>
      <trkpt lat="45.36446166224778" lon="6.224277494475246">
        <time>2023-05-03T08:49:05+00:00</time>
        <ele>1812.0</ele>
      </trkpt>
      <trkpt lat="45.3645624127239" lon="6.224362151697278">
        <time>2023-05-03T08:50:06+00:00</time>
        <ele>1814.0</ele>
      </trkpt>
      <trkpt lat="45.364617398008704" lon="6.224360391497612">
        <time>2023-05-03T08:50:18+00:00</time>
        <ele>1818.0</ele>
      </trkpt>
      <trkpt lat="45.36468026228249" lon="6.224398110061884">
        <time>2023-05-03T08:50:37+00:00</time>
        <ele>1820.0</ele>
      </trkpt>
      <trkpt lat="45.364698031917214" lon="6.224458543583751">
        <time>2023-05-03T08:50:58+00:00</time>
        <ele>1820.0</ele>
      </trkpt>
      <trkpt lat="45.36476709879935" lon="6.224537417292595">
        <time>2023-05-03T08:51:23+00:00</time>
        <ele>1822.0</ele>
      </trkpt>
      <trkpt lat="45.36484144628048" lon="6.224604891613126">
        <time>2023-05-03T08:51:43+00:00</time>
        <ele>1825.0</ele>
      </trkpt>
      <trkpt lat="45.364866591989994" lon="6.22464562766254">
        <time>2023-05-03T08:52:02+00:00</time>
        <ele>1826.0</ele>
      </trkpt>
      <trkpt lat="45.36489073187113" lon="6.224639508873224">
        <time>2023-05-03T08:52:22+00:00</time>
        <ele>1827.0</ele>
      </trkpt>
      <trkpt lat="45.36495921202004" lon="6.224634563550353">
        <time>2023-05-03T08:52:40+00:00</time>
        <ele>1831.0</ele>
      </trkpt>
      <trkpt lat="45.36504311487079" lon="6.224663145840168">
        <time>2023-05-03T08:53:06+00:00</time>
        <ele>1836.0</ele>
      </trkpt>
      <trkpt lat="45.365085108205676" lon="6.22469449415803">
        <time>2023-05-03T08:54:33+00:00</time>
        <ele>1838.0</ele>
      </trkpt>
      <trkpt lat="45.36514654755592" lon="6.224679825827479">
        <time>2023-05-03T08:54:50+00:00</time>
        <ele>1842.0</ele>
      </trkpt>
      <trkpt lat="45.36519197747111" lon="6.224745623767376">
        <time>2023-05-03T08:55:07+00:00</time>
        <ele>1843.0</ele>
      </trkpt>
      <trkpt lat="45.365241430699825" lon="6.224790131673217">
        <time>2023-05-03T08:55:26+00:00</time>
        <ele>1845.0</ele>
      </trkpt>
      <trkpt lat="45.36528744734824" lon="6.224851571023464">
        <time>2023-05-03T08:55:43+00:00</time>
        <ele>1847.0</ele>
      </trkpt>
      <trkpt lat="45.36531460471451" lon="6.224981658160687">
        <time>2023-05-03T08:56:02+00:00</time>
        <ele>1846.0</ele>
      </trkpt>
      <trkpt lat="45.3653861861676" lon="6.225046114996076">
        <time>2023-05-03T08:56:20+00:00</time>
        <ele>1849.0</ele>
      </trkpt>
      <trkpt lat="45.36542139016092" lon="6.225080648437142">
        <time>2023-05-03T08:57:13+00:00</time>
        <ele>1851.0</ele>
      </trkpt>
      <trkpt lat="45.36549171432853" lon="6.225141249597073">
        <time>2023-05-03T08:59:02+00:00</time>
        <ele>1855.0</ele>
      </trkpt>
      <trkpt lat="45.365523397922516" lon="6.225158516317606">
        <time>2023-05-03T08:59:30+00:00</time>
        <ele>1857.0</ele>
      </trkpt>
      <trkpt lat="45.365524822846055" lon="6.225107219070196">
        <time>2023-05-03T08:59:55+00:00</time>
        <ele>1857.0</ele>
      </trkpt>
      <trkpt lat="45.36553722806275" lon="6.225035805255175">
        <time>2023-05-03T09:00:11+00:00</time>
        <ele>1859.0</ele>
      </trkpt>
      <trkpt lat="45.365541502833366" lon="6.22498526237905">
        <time>2023-05-03T09:00:28+00:00</time>
        <ele>1860.0</ele>
      </trkpt>
      <trkpt lat="45.36556480452418" lon="6.224951315671206">
        <time>2023-05-03T09:00:48+00:00</time>
        <ele>1863.0</ele>
      </trkpt>
      <trkpt lat="45.36559598520398" lon="6.224933797493577">
        <time>2023-05-03T09:01:04+00:00</time>
        <ele>1865.0</ele>
      </trkpt>
      <trkpt lat="45.365629848092794" lon="6.224898425862193">
        <time>2023-05-03T09:01:21+00:00</time>
        <ele>1868.0</ele>
      </trkpt>
      <trkpt lat="45.36566035822034" lon="6.224889205768704">
        <time>2023-05-03T09:01:38+00:00</time>
        <ele>1870.0</ele>
      </trkpt>
      <trkpt lat="45.36571852862835" lon="6.224856181070209">
        <time>2023-05-03T09:02:00+00:00</time>
        <ele>1875.0</ele>
      </trkpt>
      <trkpt lat="45.36575314588845" lon="6.224829107522965">
        <time>2023-05-03T09:02:18+00:00</time>
        <ele>1879.0</ele>
      </trkpt>
      <trkpt lat="45.36579094827175" lon="6.224830448627472">
        <time>2023-05-03T09:02:39+00:00</time>
        <ele>1882.0</ele>
      </trkpt>
      <trkpt lat="45.36583201959729" lon="6.224798513576388">
        <time>2023-05-03T09:03:00+00:00</time>
        <ele>1885.0</ele>
      </trkpt>
      <trkpt lat="45.36584794521332" lon="6.224780408665538">
        <time>2023-05-03T09:03:23+00:00</time>
        <ele>1887.0</ele>
      </trkpt>
      <trkpt lat="45.36586470901966" lon="6.224701534956694">
        <time>2023-05-03T09:03:42+00:00</time>
        <ele>1889.0</ele>
      </trkpt>
      <trkpt lat="45.36592229269445" lon="6.224630707874894">
        <time>2023-05-03T09:04:03+00:00</time>
        <ele>1893.0</ele>
      </trkpt>
      <trkpt lat="45.365984654054046" lon="6.224564155563712">
        <time>2023-05-03T09:04:25+00:00</time>
        <ele>1899.0</ele>
      </trkpt>
      <trkpt lat="45.36606109701097" lon="6.224509421736002">
        <time>2023-05-03T09:06:01+00:00</time>
        <ele>1904.0</ele>
      </trkpt>
      <trkpt lat="45.36610694602132" lon="6.224587373435497">
        <time>2023-05-03T09:06:21+00:00</time>
        <ele>1906.0</ele>
      </trkpt>
      <trkpt lat="45.36613837815821" lon="6.224618721753359">
        <time>2023-05-03T09:06:41+00:00</time>
        <ele>1908.0</ele>
      </trkpt>
      <trkpt lat="45.366225466132164" lon="6.224708743393421">
        <time>2023-05-03T09:07:04+00:00</time>
        <ele>1913.0</ele>
      </trkpt>
      <trkpt lat="45.36627475172281" lon="6.224761800840497">
        <time>2023-05-03T09:07:25+00:00</time>
        <ele>1915.0</ele>
      </trkpt>
      <trkpt lat="45.36629126407206" lon="6.224841261282563">
        <time>2023-05-03T09:07:44+00:00</time>
        <ele>1916.0</ele>
      </trkpt>
      <trkpt lat="45.36629335954785" lon="6.224925583228469">
        <time>2023-05-03T09:08:03+00:00</time>
        <ele>1915.0</ele>
      </trkpt>
      <trkpt lat="45.36633728072047" lon="6.224973276257515">
        <time>2023-05-03T09:08:22+00:00</time>
        <ele>1917.0</ele>
      </trkpt>
      <trkpt lat="45.366494609043" lon="6.225205371156335">
        <time>2023-05-03T09:21:05+00:00</time>
        <ele>1922.0</ele>
      </trkpt>
      <trkpt lat="45.36656334064901" lon="6.225268403068185">
        <time>2023-05-03T09:21:23+00:00</time>
        <ele>1924.0</ele>
      </trkpt>
      <trkpt lat="45.36662654019892" lon="6.225344846025109">
        <time>2023-05-03T09:21:44+00:00</time>
        <ele>1926.0</ele>
      </trkpt>
      <trkpt lat="45.36672326736152" lon="6.225418606773019">
        <time>2023-05-03T09:22:04+00:00</time>
        <ele>1929.0</ele>
      </trkpt>
      <trkpt lat="45.366802643984556" lon="6.225474011152983">
        <time>2023-05-03T09:22:21+00:00</time>
        <ele>1933.0</ele>
      </trkpt>
      <trkpt lat="45.3668693639338" lon="6.22547535225749">
        <time>2023-05-03T09:22:39+00:00</time>
        <ele>1937.0</ele>
      </trkpt>
      <trkpt lat="45.36689383909106" lon="6.225321125239134">
        <time>2023-05-03T09:22:58+00:00</time>
        <ele>1941.0</ele>
      </trkpt>
      <trkpt lat="45.36688436754048" lon="6.225163545459509">
        <time>2023-05-03T09:23:21+00:00</time>
        <ele>1943.0</ele>
      </trkpt>
      <trkpt lat="45.36687900312245" lon="6.225069500505924">
        <time>2023-05-03T09:23:38+00:00</time>
        <ele>1944.0</ele>
      </trkpt>
      <trkpt lat="45.366868525743484" lon="6.22495835646987">
        <time>2023-05-03T09:23:57+00:00</time>
        <ele>1947.0</ele>
      </trkpt>
      <trkpt lat="45.366903729736805" lon="6.224943688139319">
        <time>2023-05-03T09:24:14+00:00</time>
        <ele>1949.0</ele>
      </trkpt>
      <trkpt lat="45.367006408050656" lon="6.225020382553339">
        <time>2023-05-03T09:24:33+00:00</time>
        <ele>1952.0</ele>
      </trkpt>
      <trkpt lat="45.367109505459666" lon="6.225108308717609">
        <time>2023-05-03T09:24:52+00:00</time>
        <ele>1955.0</ele>
      </trkpt>
      <trkpt lat="45.36717899143696" lon="6.225175699219108">
        <time>2023-05-03T09:25:12+00:00</time>
        <ele>1957.0</ele>
      </trkpt>
      <trkpt lat="45.36730363033712" lon="6.225298829376698">
        <time>2023-05-03T09:25:32+00:00</time>
        <ele>1961.0</ele>
      </trkpt>
      <trkpt lat="45.367438243702054" lon="6.225394634529948">
        <time>2023-05-03T09:25:50+00:00</time>
        <ele>1965.0</ele>
      </trkpt>
      <trkpt lat="45.36753220483661" lon="6.225438639521599">
        <time>2023-05-03T09:26:10+00:00</time>
        <ele>1968.0</ele>
      </trkpt>
      <trkpt lat="45.36763002164662" lon="6.225467808544636">
        <time>2023-05-03T09:26:38+00:00</time>
        <ele>1971.0</ele>
      </trkpt>
      <trkpt lat="45.36773479543626" lon="6.225515250116587">
        <time>2023-05-03T09:26:51+00:00</time>
        <ele>1973.0</ele>
      </trkpt>
      <trkpt lat="45.36784895695746" lon="6.225616587325931">
        <time>2023-05-03T09:27:07+00:00</time>
        <ele>1976.0</ele>
      </trkpt>
      <trkpt lat="45.36796152591705" lon="6.225696885958314">
        <time>2023-05-03T09:27:22+00:00</time>
        <ele>1979.0</ele>
      </trkpt>
      <trkpt lat="45.368104772642255" lon="6.225790427997708">
        <time>2023-05-03T09:27:41+00:00</time>
        <ele>1982.0</ele>
      </trkpt>
      <trkpt lat="45.36817794665694" lon="6.225740388035774">
        <time>2023-05-03T09:27:58+00:00</time>
        <ele>1985.0</ele>
      </trkpt>
      <trkpt lat="45.36818088032305" lon="6.225624717772007">
        <time>2023-05-03T09:28:11+00:00</time>
        <ele>1986.0</ele>
      </trkpt>
      <trkpt lat="45.36815498024225" lon="6.225511059165001">
        <time>2023-05-03T09:28:30+00:00</time>
        <ele>1987.0</ele>
      </trkpt>
      <trkpt lat="45.368172749876976" lon="6.2254005856812">
        <time>2023-05-03T09:28:47+00:00</time>
        <ele>1989.0</ele>
      </trkpt>
      <trkpt lat="45.36826528608799" lon="6.22543185018003">
        <time>2023-05-03T09:29:07+00:00</time>
        <ele>1992.0</ele>
      </trkpt>
      <trkpt lat="45.368419010192156" lon="6.225512232631445">
        <time>2023-05-03T09:29:28+00:00</time>
        <ele>1996.0</ele>
      </trkpt>
      <trkpt lat="45.36851154640317" lon="6.225642990320921">
        <time>2023-05-03T09:29:47+00:00</time>
        <ele>1998.0</ele>
      </trkpt>
      <trkpt lat="45.36860886029899" lon="6.225769305601716">
        <time>2023-05-03T09:30:06+00:00</time>
        <ele>2002.0</ele>
      </trkpt>
      <trkpt lat="45.36875487305224" lon="6.22586527839303">
        <time>2023-05-03T09:30:25+00:00</time>
        <ele>2006.0</ele>
      </trkpt>
      <trkpt lat="45.368761997669935" lon="6.225888160988689">
        <time>2023-05-03T09:30:49+00:00</time>
        <ele>2006.0</ele>
      </trkpt>
      <trkpt lat="45.36877197213471" lon="6.22590727172792">
        <time>2023-05-03T09:31:36+00:00</time>
        <ele>2006.0</ele>
      </trkpt>
      <trkpt lat="45.368806505575776" lon="6.225906517356634">
        <time>2023-05-03T09:32:14+00:00</time>
        <ele>2006.0</ele>
      </trkpt>
      <trkpt lat="45.36888688802719" lon="6.225929232314229">
        <time>2023-05-03T09:32:32+00:00</time>
        <ele>2006.0</ele>
      </trkpt>
      <trkpt lat="45.36899576894939" lon="6.225882628932595">
        <time>2023-05-03T09:32:49+00:00</time>
        <ele>2009.0</ele>
      </trkpt>
      <trkpt lat="45.369114708155394" lon="6.225837115198374">
        <time>2023-05-03T09:33:07+00:00</time>
        <ele>2012.0</ele>
      </trkpt>
      <trkpt lat="45.36921529099345" lon="6.225826218724251">
        <time>2023-05-03T09:33:23+00:00</time>
        <ele>2014.0</ele>
      </trkpt>
      <trkpt lat="45.36935191601515" lon="6.225822027772665">
        <time>2023-05-03T09:33:45+00:00</time>
        <ele>2016.0</ele>
      </trkpt>
      <trkpt lat="45.369362561032176" lon="6.225813562050462">
        <time>2023-05-03T09:34:07+00:00</time>
        <ele>2017.0</ele>
      </trkpt>
      <trkpt lat="45.36949876695871" lon="6.225826134905219">
        <time>2023-05-03T09:34:27+00:00</time>
        <ele>2019.0</ele>
      </trkpt>
      <trkpt lat="45.36958652548492" lon="6.225790176540613">
        <time>2023-05-03T09:34:43+00:00</time>
        <ele>2023.0</ele>
      </trkpt>
      <trkpt lat="45.3695859387517" lon="6.225793696939945">
        <time>2023-05-03T09:35:08+00:00</time>
        <ele>2022.0</ele>
      </trkpt>
      <trkpt lat="45.36967269144952" lon="6.225725803524256">
        <time>2023-05-03T09:35:26+00:00</time>
        <ele>2027.0</ele>
      </trkpt>
      <trkpt lat="45.36979263648391" lon="6.225712141022086">
        <time>2023-05-03T09:35:41+00:00</time>
        <ele>2030.0</ele>
      </trkpt>
      <trkpt lat="45.369846699759364" lon="6.22568154707551">
        <time>2023-05-03T09:35:59+00:00</time>
        <ele>2032.0</ele>
      </trkpt>
      <trkpt lat="45.36980780772865" lon="6.225594291463494">
        <time>2023-05-03T09:36:19+00:00</time>
        <ele>2035.0</ele>
      </trkpt>
      <trkpt lat="45.36974050104618" lon="6.225464623421431">
        <time>2023-05-03T09:36:39+00:00</time>
        <ele>2039.0</ele>
      </trkpt>
      <trkpt lat="45.36970295011997" lon="6.225371332839131">
        <time>2023-05-03T09:36:58+00:00</time>
        <ele>2041.0</ele>
      </trkpt>
      <trkpt lat="45.369671769440174" lon="6.225224984809756">
        <time>2023-05-03T09:37:16+00:00</time>
        <ele>2045.0</ele>
      </trkpt>
      <trkpt lat="45.36964947357774" lon="6.225155079737306">
        <time>2023-05-03T09:37:37+00:00</time>
        <ele>2047.0</ele>
      </trkpt>
      <trkpt lat="45.36967788822949" lon="6.225126245990396">
        <time>2023-05-03T09:38:08+00:00</time>
        <ele>2049.0</ele>
      </trkpt>
      <trkpt lat="45.3697894513607" lon="6.225112332031131">
        <time>2023-05-03T09:38:23+00:00</time>
        <ele>2052.0</ele>
      </trkpt>
      <trkpt lat="45.36984066478908" lon="6.225041337311268">
        <time>2023-05-03T09:38:40+00:00</time>
        <ele>2055.0</ele>
      </trkpt>
      <trkpt lat="45.36983722820878" lon="6.225023651495576">
        <time>2023-05-03T09:39:02+00:00</time>
        <ele>2055.0</ele>
      </trkpt>
      <trkpt lat="45.36984602920711" lon="6.224975120276213">
        <time>2023-05-03T09:39:28+00:00</time>
        <ele>2057.0</ele>
      </trkpt>
      <trkpt lat="45.36984686739743" lon="6.224956344813108">
        <time>2023-05-03T09:40:05+00:00</time>
        <ele>2058.0</ele>
      </trkpt>
      <trkpt lat="45.36984418518841" lon="6.224976126104593">
        <time>2023-05-03T09:40:17+00:00</time>
        <ele>2057.0</ele>
      </trkpt>
      <trkpt lat="45.36983882077038" lon="6.224981574341655">
        <time>2023-05-03T09:40:55+00:00</time>
        <ele>2057.0</ele>
      </trkpt>
      <trkpt lat="45.369838401675224" lon="6.224990459159017">
        <time>2023-05-03T09:41:23+00:00</time>
        <ele>2056.0</ele>
      </trkpt>
      <trkpt lat="45.36982155404985" lon="6.224867748096585">
        <time>2023-05-03T09:41:42+00:00</time>
        <ele>2059.0</ele>
      </trkpt>
      <trkpt lat="45.36984276026487" lon="6.22480739839375">
        <time>2023-05-03T09:42:00+00:00</time>
        <ele>2061.0</ele>
      </trkpt>
      <trkpt lat="45.36995633505285" lon="6.224873783066869">
        <time>2023-05-03T09:42:20+00:00</time>
        <ele>2063.0</ele>
      </trkpt>
      <trkpt lat="45.36999405361712" lon="6.224863808602095">
        <time>2023-05-03T09:42:47+00:00</time>
        <ele>2064.0</ele>
      </trkpt>
      <trkpt lat="45.36998173221946" lon="6.22474042698741">
        <time>2023-05-03T09:43:08+00:00</time>
        <ele>2068.0</ele>
      </trkpt>
      <trkpt lat="45.36994284018874" lon="6.224630707874894">
        <time>2023-05-03T09:43:28+00:00</time>
        <ele>2069.0</ele>
      </trkpt>
      <trkpt lat="45.369942001998425" lon="6.224623247981072">
        <time>2023-05-03T09:44:07+00:00</time>
        <ele>2069.0</ele>
      </trkpt>
      <trkpt lat="45.36994175054133" lon="6.224610926583409">
        <time>2023-05-03T09:44:52+00:00</time>
        <ele>2069.0</ele>
      </trkpt>
      <trkpt lat="45.36992724984884" lon="6.224634647369385">
        <time>2023-05-03T09:45:25+00:00</time>
        <ele>2068.0</ele>
      </trkpt>
      <trkpt lat="45.369929345324636" lon="6.224622577428818">
        <time>2023-05-03T09:46:07+00:00</time>
        <ele>2069.0</ele>
      </trkpt>
      <trkpt lat="45.36992649547756" lon="6.224628696218133">
        <time>2023-05-03T09:46:46+00:00</time>
        <ele>2068.0</ele>
      </trkpt>
      <trkpt lat="45.369949880987406" lon="6.224600616842508">
        <time>2023-05-03T09:47:21+00:00</time>
        <ele>2070.0</ele>
      </trkpt>
      <trkpt lat="45.369939571246505" lon="6.224614782258868">
        <time>2023-05-03T09:47:45+00:00</time>
        <ele>2069.0</ele>
      </trkpt>
      <trkpt lat="45.370004028081894" lon="6.224664654582739">
        <time>2023-05-03T09:48:06+00:00</time>
        <ele>2071.0</ele>
      </trkpt>
      <trkpt lat="45.37013386376202" lon="6.224678819999099">
        <time>2023-05-03T09:48:24+00:00</time>
        <ele>2075.0</ele>
      </trkpt>
      <trkpt lat="45.37012699060142" lon="6.224602377042174">
        <time>2023-05-03T09:48:42+00:00</time>
        <ele>2077.0</ele>
      </trkpt>
      <trkpt lat="45.37006689235568" lon="6.224488969892263">
        <time>2023-05-03T09:49:00+00:00</time>
        <ele>2079.0</ele>
      </trkpt>
      <trkpt lat="45.370099917054176" lon="6.224457705393434">
        <time>2023-05-03T09:49:22+00:00</time>
        <ele>2081.0</ele>
      </trkpt>
      <trkpt lat="45.370166804641485" lon="6.224479246884584">
        <time>2023-05-03T09:49:38+00:00</time>
        <ele>2083.0</ele>
      </trkpt>
      <trkpt lat="45.37017225287855" lon="6.224461225792766">
        <time>2023-05-03T09:50:07+00:00</time>
        <ele>2084.0</ele>
      </trkpt>
      <trkpt lat="45.37013428285718" lon="6.224321583285928">
        <time>2023-05-03T09:50:24+00:00</time>
        <ele>2088.0</ele>
      </trkpt>
      <trkpt lat="45.37007334642112" lon="6.224227957427502">
        <time>2023-05-03T09:50:41+00:00</time>
        <ele>2089.0</ele>
      </trkpt>
      <trkpt lat="45.37010268308222" lon="6.224230471998453">
        <time>2023-05-03T09:51:07+00:00</time>
        <ele>2091.0</ele>
      </trkpt>
      <trkpt lat="45.37017828784883" lon="6.224251678213477">
        <time>2023-05-03T09:51:25+00:00</time>
        <ele>2093.0</ele>
      </trkpt>
      <trkpt lat="45.37021634168923" lon="6.224254528060556">
        <time>2023-05-03T09:51:58+00:00</time>
        <ele>2094.0</ele>
      </trkpt>
      <trkpt lat="45.370270404964685" lon="6.224249079823494">
        <time>2023-05-03T09:52:31+00:00</time>
        <ele>2095.0</ele>
      </trkpt>
      <trkpt lat="45.370386242866516" lon="6.224254528060556">
        <time>2023-05-03T09:52:47+00:00</time>
        <ele>2097.0</ele>
      </trkpt>
      <trkpt lat="45.37050367332995" lon="6.224316637963057">
        <time>2023-05-03T09:53:03+00:00</time>
        <ele>2100.0</ele>
      </trkpt>
      <trkpt lat="45.37059905938804" lon="6.224392578005791">
        <time>2023-05-03T09:53:22+00:00</time>
        <ele>2103.0</ele>
      </trkpt>
      <trkpt lat="45.370593359693885" lon="6.22423860244453">
        <time>2023-05-03T09:54:10+00:00</time>
        <ele>2107.0</ele>
      </trkpt>
      <trkpt lat="45.37066636607051" lon="6.224270453676581">
        <time>2023-05-03T09:54:27+00:00</time>
        <ele>2111.0</ele>
      </trkpt>
      <trkpt lat="45.370703833177686" lon="6.224188059568405">
        <time>2023-05-03T09:54:46+00:00</time>
        <ele>2116.0</ele>
      </trkpt>
      <trkpt lat="45.37070341408253" lon="6.224072389304638">
        <time>2023-05-03T09:55:03+00:00</time>
        <ele>2120.0</ele>
      </trkpt>
      <trkpt lat="45.370739959180355" lon="6.224116645753384">
        <time>2023-05-03T09:55:28+00:00</time>
        <ele>2120.0</ele>
      </trkpt>
      <trkpt lat="45.37079687230289" lon="6.224212618544698">
        <time>2023-05-03T09:55:47+00:00</time>
        <ele>2121.0</ele>
      </trkpt>
      <trkpt lat="45.37085303105414" lon="6.224200800061226">
        <time>2023-05-03T09:56:07+00:00</time>
        <ele>2126.0</ele>
      </trkpt>
      <trkpt lat="45.37085026502609" lon="6.224153358489275">
        <time>2023-05-03T09:56:23+00:00</time>
        <ele>2127.0</ele>
      </trkpt>
      <trkpt lat="45.370926624163985" lon="6.224246397614479">
        <time>2023-05-03T09:56:46+00:00</time>
        <ele>2131.0</ele>
      </trkpt>
      <trkpt lat="45.37100046873093" lon="6.224320912733674">
        <time>2023-05-03T09:57:05+00:00</time>
        <ele>2136.0</ele>
      </trkpt>
      <trkpt lat="45.3710569627583" lon="6.224428871646524">
        <time>2023-05-03T09:57:25+00:00</time>
        <ele>2141.0</ele>
      </trkpt>
      <trkpt lat="45.371103985235095" lon="6.224545631557703">
        <time>2023-05-03T09:57:47+00:00</time>
        <ele>2144.0</ele>
      </trkpt>
      <trkpt lat="45.37107917480171" lon="6.224683430045843">
        <time>2023-05-03T09:58:04+00:00</time>
        <ele>2139.0</ele>
      </trkpt>
      <trkpt lat="45.371081018820405" lon="6.224706312641501">
        <time>2023-05-03T09:59:08+00:00</time>
        <ele>2138.0</ele>
      </trkpt>
      <trkpt lat="45.37115461193025" lon="6.224719639867544">
        <time>2023-05-03T09:59:26+00:00</time>
        <ele>2146.0</ele>
      </trkpt>
      <trkpt lat="45.37120741792023" lon="6.224743109196425">
        <time>2023-05-03T10:00:02+00:00</time>
        <ele>2150.0</ele>
      </trkpt>
      <trkpt lat="45.371248070150614" lon="6.224764483049512">
        <time>2023-05-03T10:00:44+00:00</time>
        <ele>2152.0</ele>
      </trkpt>
      <trkpt lat="45.37127464078367" lon="6.22479465790093">
        <time>2023-05-03T10:01:32+00:00</time>
        <ele>2154.0</ele>
      </trkpt>
      <trkpt lat="45.37130213342607" lon="6.224791472777724">
        <time>2023-05-03T10:01:51+00:00</time>
        <ele>2156.0</ele>
      </trkpt>
      <trkpt lat="45.3713489882648" lon="6.224843775853515">
        <time>2023-05-03T10:02:10+00:00</time>
        <ele>2160.0</ele>
      </trkpt>
      <trkpt lat="45.37138042040169" lon="6.224874369800091">
        <time>2023-05-03T10:02:32+00:00</time>
        <ele>2163.0</ele>
      </trkpt>
      <trkpt lat="45.37141746841371" lon="6.224919799715281">
        <time>2023-05-03T10:02:57+00:00</time>
        <ele>2166.0</ele>
      </trkpt>
      <trkpt lat="45.37144378758967" lon="6.224960535764694">
        <time>2023-05-03T10:03:17+00:00</time>
        <ele>2169.0</ele>
      </trkpt>
      <trkpt lat="45.371455354616046" lon="6.22501359321177">
        <time>2023-05-03T10:03:33+00:00</time>
        <ele>2169.0</ele>
      </trkpt>
      <trkpt lat="45.37147463299334" lon="6.225021472200751">
        <time>2023-05-03T10:03:55+00:00</time>
        <ele>2170.0</ele>
      </trkpt>
      <trkpt lat="45.37149743176997" lon="6.225064219906926">
        <time>2023-05-03T10:04:20+00:00</time>
        <ele>2172.0</ele>
      </trkpt>
      <trkpt lat="45.37151142954826" lon="6.22511082328856">
        <time>2023-05-03T10:04:39+00:00</time>
        <ele>2171.0</ele>
      </trkpt>
      <trkpt lat="45.37143641151488" lon="6.225181398913264">
        <time>2023-05-03T10:05:10+00:00</time>
        <ele>2162.0</ele>
      </trkpt>
      <trkpt lat="45.37146138958633" lon="6.225207382813096">
        <time>2023-05-03T10:06:06+00:00</time>
        <ele>2162.0</ele>
      </trkpt>
      <trkpt lat="45.37156272679567" lon="6.225281646475196">
        <time>2023-05-03T10:06:25+00:00</time>
        <ele>2164.0</ele>
      </trkpt>
      <trkpt lat="45.37166062742472" lon="6.225377703085542">
        <time>2023-05-03T10:06:43+00:00</time>
        <ele>2165.0</ele>
      </trkpt>
      <trkpt lat="45.371709326282144" lon="6.225416595116258">
        <time>2023-05-03T10:06:52+00:00</time>
        <ele>2166.0</ele>
      </trkpt>
      <trkpt lat="45.371741680428386" lon="6.225431933999062">
        <time>2023-05-03T10:06:55+00:00</time>
        <ele>2166.0</ele>
      </trkpt>
      <trkpt lat="45.371798761188984" lon="6.225471161305904">
        <time>2023-05-03T10:06:59+00:00</time>
        <ele>2164.0</ele>
      </trkpt>
      <trkpt lat="45.37183865904808" lon="6.225422378629446">
        <time>2023-05-03T10:11:45+00:00</time>
        <ele>2167.0</ele>
      </trkpt>
      <trkpt lat="45.37184368818998" lon="6.225382732227445">
        <time>2023-05-03T10:12:47+00:00</time>
        <ele>2169.0</ele>
      </trkpt>
      <trkpt lat="45.37185952998698" lon="6.225305702537298">
        <time>2023-05-03T10:12:51+00:00</time>
        <ele>2171.0</ele>
      </trkpt>
      <trkpt lat="45.37192013114691" lon="6.224999763071537">
        <time>2023-05-03T10:12:58+00:00</time>
        <ele>2174.0</ele>
      </trkpt>
      <trkpt lat="45.371984923258424" lon="6.224801447242498">
        <time>2023-05-03T10:13:06+00:00</time>
        <ele>2171.0</ele>
      </trkpt>
      <trkpt lat="45.37203052081168" lon="6.22461536899209">
        <time>2023-05-03T10:13:10+00:00</time>
        <ele>2170.0</ele>
      </trkpt>
      <trkpt lat="45.372120374813676" lon="6.224437253549695">
        <time>2023-05-03T10:13:18+00:00</time>
        <ele>2167.0</ele>
      </trkpt>
      <trkpt lat="45.37213722243905" lon="6.224394589662552">
        <time>2023-05-03T10:13:45+00:00</time>
        <ele>2167.0</ele>
      </trkpt>
      <trkpt lat="45.3721104003489" lon="6.22433046810329">
        <time>2023-05-03T10:13:54+00:00</time>
        <ele>2168.0</ele>
      </trkpt>
      <trkpt lat="45.37210553884506" lon="6.224251929670572">
        <time>2023-05-03T10:13:57+00:00</time>
        <ele>2169.0</ele>
      </trkpt>
      <trkpt lat="45.372085087001324" lon="6.224047914147377">
        <time>2023-05-03T10:14:11+00:00</time>
        <ele>2169.0</ele>
      </trkpt>
      <trkpt lat="45.372099336236715" lon="6.224029222503305">
        <time>2023-05-03T10:14:23+00:00</time>
        <ele>2168.0</ele>
      </trkpt>
      <trkpt lat="45.37214937619865" lon="6.224008686840534">
        <time>2023-05-03T10:14:29+00:00</time>
        <ele>2164.0</ele>
      </trkpt>
      <trkpt lat="45.37217586301267" lon="6.223851023241878">
        <time>2023-05-03T10:14:34+00:00</time>
        <ele>2158.0</ele>
      </trkpt>
      <trkpt lat="45.372168151661754" lon="6.223781788721681">
        <time>2023-05-03T10:14:35+00:00</time>
        <ele>2158.0</ele>
      </trkpt>
      <trkpt lat="45.372159434482455" lon="6.223571905866265">
        <time>2023-05-03T10:14:39+00:00</time>
        <ele>2154.0</ele>
      </trkpt>
      <trkpt lat="45.37215633317828" lon="6.22350761666894">
        <time>2023-05-03T10:14:40+00:00</time>
        <ele>2152.0</ele>
      </trkpt>
      <trkpt lat="45.37220126017928" lon="6.223101262003183">
        <time>2023-05-03T10:14:45+00:00</time>
        <ele>2141.0</ele>
      </trkpt>
      <trkpt lat="45.372338807210326" lon="6.222973018884659">
        <time>2023-05-03T10:14:48+00:00</time>
        <ele>2130.0</ele>
      </trkpt>
      <trkpt lat="45.37242740392685" lon="6.222963128238916">
        <time>2023-05-03T10:14:50+00:00</time>
        <ele>2127.0</ele>
      </trkpt>
      <trkpt lat="45.37259847857058" lon="6.223036721348763">
        <time>2023-05-03T10:14:56+00:00</time>
        <ele>2122.0</ele>
      </trkpt>
      <trkpt lat="45.372794615104795" lon="6.223166892305017">
        <time>2023-05-03T10:15:03+00:00</time>
        <ele>2118.0</ele>
      </trkpt>
      <trkpt lat="45.37294247187674" lon="6.223260015249252">
        <time>2023-05-03T10:15:12+00:00</time>
        <ele>2114.0</ele>
      </trkpt>
      <trkpt lat="45.37317641079426" lon="6.223360765725374">
        <time>2023-05-03T10:15:19+00:00</time>
        <ele>2108.0</ele>
      </trkpt>
      <trkpt lat="45.373285291716456" lon="6.223449362441897">
        <time>2023-05-03T10:15:23+00:00</time>
        <ele>2105.0</ele>
      </trkpt>
      <trkpt lat="45.373351173475385" lon="6.223541898652911">
        <time>2023-05-03T10:15:27+00:00</time>
        <ele>2101.0</ele>
      </trkpt>
      <trkpt lat="45.37336408160627" lon="6.22354919090867">
        <time>2023-05-03T10:15:32+00:00</time>
        <ele>2101.0</ele>
      </trkpt>
      <trkpt lat="45.37338998168707" lon="6.223594788461924">
        <time>2023-05-03T10:15:53+00:00</time>
        <ele>2099.0</ele>
      </trkpt>
      <trkpt lat="45.373450834304094" lon="6.223657066002488">
        <time>2023-05-03T10:15:58+00:00</time>
        <ele>2096.0</ele>
      </trkpt>
      <trkpt lat="45.37372316233814" lon="6.223826548084617">
        <time>2023-05-03T10:16:07+00:00</time>
        <ele>2091.0</ele>
      </trkpt>
      <trkpt lat="45.37381762638688" lon="6.223828475922346">
        <time>2023-05-03T10:17:04+00:00</time>
        <ele>2092.0</ele>
      </trkpt>
      <trkpt lat="45.373950311914086" lon="6.223833672702313">
        <time>2023-05-03T10:17:09+00:00</time>
        <ele>2091.0</ele>
      </trkpt>
      <trkpt lat="45.37430168129504" lon="6.223825877532363">
        <time>2023-05-03T10:17:17+00:00</time>
        <ele>2087.0</ele>
      </trkpt>
      <trkpt lat="45.374439815059304" lon="6.223766449838877">
        <time>2023-05-03T10:17:22+00:00</time>
        <ele>2086.0</ele>
      </trkpt>
      <trkpt lat="45.374750867486" lon="6.223475765436888">
        <time>2023-05-03T10:17:56+00:00</time>
        <ele>2070.0</ele>
      </trkpt>
      <trkpt lat="45.37489729933441" lon="6.223313072696328">
        <time>2023-05-03T10:18:00+00:00</time>
        <ele>2062.0</ele>
      </trkpt>
      <trkpt lat="45.37504347972572" lon="6.223341654986143">
        <time>2023-05-03T10:18:05+00:00</time>
        <ele>2056.0</ele>
      </trkpt>
      <trkpt lat="45.375188486650586" lon="6.223327992483974">
        <time>2023-05-03T10:18:09+00:00</time>
        <ele>2053.0</ele>
      </trkpt>
      <trkpt lat="45.37532008253038" lon="6.22329848818481">
        <time>2023-05-03T10:18:13+00:00</time>
        <ele>2052.0</ele>
      </trkpt>
      <trkpt lat="45.3753846231848" lon="6.223273342475295">
        <time>2023-05-03T10:18:16+00:00</time>
        <ele>2051.0</ele>
      </trkpt>
      <trkpt lat="45.37569819018245" lon="6.222985005006194">
        <time>2023-05-03T10:18:23+00:00</time>
        <ele>2045.0</ele>
      </trkpt>
      <trkpt lat="45.37594419904053" lon="6.222812756896019">
        <time>2023-05-03T10:18:27+00:00</time>
        <ele>2037.0</ele>
      </trkpt>
      <trkpt lat="45.37611602805555" lon="6.222710246220231">
        <time>2023-05-03T10:18:30+00:00</time>
        <ele>2034.0</ele>
      </trkpt>
      <trkpt lat="45.376331778243184" lon="6.222596419975162">
        <time>2023-05-03T10:18:33+00:00</time>
        <ele>2030.0</ele>
      </trkpt>
      <trkpt lat="45.37649128586054" lon="6.222532717511058">
        <time>2023-05-03T10:18:35+00:00</time>
        <ele>2027.0</ele>
      </trkpt>
      <trkpt lat="45.376631347462535" lon="6.222497094422579">
        <time>2023-05-03T10:18:37+00:00</time>
        <ele>2023.0</ele>
      </trkpt>
      <trkpt lat="45.37683569826186" lon="6.222432050853968">
        <time>2023-05-03T10:18:40+00:00</time>
        <ele>2020.0</ele>
      </trkpt>
      <trkpt lat="45.37704608403146" lon="6.222328199073672">
        <time>2023-05-03T10:18:43+00:00</time>
        <ele>2018.0</ele>
      </trkpt>
      <trkpt lat="45.37717893719673" lon="6.222262065857649">
        <time>2023-05-03T10:18:45+00:00</time>
        <ele>2016.0</ele>
      </trkpt>
      <trkpt lat="45.37727767601609" lon="6.222200794145465">
        <time>2023-05-03T10:18:47+00:00</time>
        <ele>2015.0</ele>
      </trkpt>
      <trkpt lat="45.37755151279271" lon="6.222064588218927">
        <time>2023-05-03T10:18:52+00:00</time>
        <ele>2008.0</ele>
      </trkpt>
      <trkpt lat="45.37773868069053" lon="6.221940033137798">
        <time>2023-05-03T10:18:56+00:00</time>
        <ele>2002.0</ele>
      </trkpt>
      <trkpt lat="45.37779936566949" lon="6.222040615975857">
        <time>2023-05-03T10:18:59+00:00</time>
        <ele>1996.0</ele>
      </trkpt>
      <trkpt lat="45.37785611115396" lon="6.222103396430612">
        <time>2023-05-03T10:19:01+00:00</time>
        <ele>1991.0</ele>
      </trkpt>
      <trkpt lat="45.37800857797265" lon="6.222212444990873">
        <time>2023-05-03T10:19:05+00:00</time>
        <ele>1982.0</ele>
      </trkpt>
      <trkpt lat="45.3780837636441" lon="6.222184281796217">
        <time>2023-05-03T10:19:07+00:00</time>
        <ele>1980.0</ele>
      </trkpt>
      <trkpt lat="45.3782114200294" lon="6.222117561846972">
        <time>2023-05-03T10:19:10+00:00</time>
        <ele>1977.0</ele>
      </trkpt>
      <trkpt lat="45.378492968156934" lon="6.222053272649646">
        <time>2023-05-03T10:30:17+00:00</time>
        <ele>1968.0</ele>
      </trkpt>
      <trkpt lat="45.378611823543906" lon="6.221996443346143">
        <time>2023-05-03T10:30:36+00:00</time>
        <ele>1969.0</ele>
      </trkpt>
      <trkpt lat="45.37875314243138" lon="6.221931148320437">
        <time>2023-05-03T10:30:55+00:00</time>
        <ele>1971.0</ele>
      </trkpt>
      <trkpt lat="45.37884601391852" lon="6.221882533282042">
        <time>2023-05-03T10:31:15+00:00</time>
        <ele>1973.0</ele>
      </trkpt>
      <trkpt lat="45.37895690649748" lon="6.221809191629291">
        <time>2023-05-03T10:31:35+00:00</time>
        <ele>1976.0</ele>
      </trkpt>
      <trkpt lat="45.379056399688125" lon="6.221769712865353">
        <time>2023-05-03T10:31:51+00:00</time>
        <ele>1977.0</ele>
      </trkpt>
      <trkpt lat="45.37909126840532" lon="6.221739957109094">
        <time>2023-05-03T10:31:56+00:00</time>
        <ele>1978.0</ele>
      </trkpt>
      <trkpt lat="45.37916938774288" lon="6.221669130027294">
        <time>2023-05-03T10:32:09+00:00</time>
        <ele>1981.0</ele>
      </trkpt>
      <trkpt lat="45.37916704080999" lon="6.221581706777215">
        <time>2023-05-03T10:32:27+00:00</time>
        <ele>1985.0</ele>
      </trkpt>
      <trkpt lat="45.379082802683115" lon="6.221489841118455">
        <time>2023-05-03T10:32:45+00:00</time>
        <ele>1989.0</ele>
      </trkpt>
      <trkpt lat="45.379001749679446" lon="6.221361178904772">
        <time>2023-05-03T10:33:05+00:00</time>
        <ele>1994.0</ele>
      </trkpt>
      <trkpt lat="45.379091100767255" lon="6.221353216096759">
        <time>2023-05-03T10:33:22+00:00</time>
        <ele>1993.0</ele>
      </trkpt>
      <trkpt lat="45.37918313406408" lon="6.221338799223304">
        <time>2023-05-03T10:33:41+00:00</time>
        <ele>1994.0</ele>
      </trkpt>
      <trkpt lat="45.3792804479599" lon="6.221286160871387">
        <time>2023-05-03T10:33:56+00:00</time>
        <ele>1996.0</ele>
      </trkpt>
      <trkpt lat="45.379344737157226" lon="6.221188176423311">
        <time>2023-05-03T10:34:15+00:00</time>
        <ele>2000.0</ele>
      </trkpt>
      <trkpt lat="45.37941237911582" lon="6.221081307157874">
        <time>2023-05-03T10:34:27+00:00</time>
        <ele>2003.0</ele>
      </trkpt>
      <trkpt lat="45.379536263644695" lon="6.221005534753203">
        <time>2023-05-03T10:34:46+00:00</time>
        <ele>2005.0</ele>
      </trkpt>
      <trkpt lat="45.37961773574352" lon="6.220893384888768">
        <time>2023-05-03T10:35:04+00:00</time>
        <ele>2007.0</ele>
      </trkpt>
      <trkpt lat="45.37960642017424" lon="6.220807386562228">
        <time>2023-05-03T10:35:33+00:00</time>
        <ele>2010.0</ele>
      </trkpt>
      <trkpt lat="45.37955621257424" lon="6.220771428197622">
        <time>2023-05-03T10:35:59+00:00</time>
        <ele>2012.0</ele>
      </trkpt>
      <trkpt lat="45.37950072437525" lon="6.220698421820998">
        <time>2023-05-03T10:36:10+00:00</time>
        <ele>2016.0</ele>
      </trkpt>
      <trkpt lat="45.37937826476991" lon="6.220567245036364">
        <time>2023-05-03T10:36:27+00:00</time>
        <ele>2027.0</ele>
      </trkpt>
      <trkpt lat="45.37931456230581" lon="6.220427351072431">
        <time>2023-05-03T10:36:47+00:00</time>
        <ele>2034.0</ele>
      </trkpt>
      <trkpt lat="45.37927407771349" lon="6.220283601433039">
        <time>2023-05-03T10:37:08+00:00</time>
        <ele>2039.0</ele>
      </trkpt>
      <trkpt lat="45.37923744879663" lon="6.220172792673111">
        <time>2023-05-03T10:37:19+00:00</time>
        <ele>2041.0</ele>
      </trkpt>
      <trkpt lat="45.379171231761575" lon="6.220000041648746">
        <time>2023-05-03T10:37:38+00:00</time>
        <ele>2043.0</ele>
      </trkpt>
      <trkpt lat="45.3791491035372" lon="6.21990792453289">
        <time>2023-05-03T10:37:46+00:00</time>
        <ele>2043.0</ele>
      </trkpt>
      <trkpt lat="45.379121443256736" lon="6.219734000042081">
        <time>2023-05-03T10:37:59+00:00</time>
        <ele>2040.0</ele>
      </trkpt>
      <trkpt lat="45.379080791026354" lon="6.219585137441754">
        <time>2023-05-03T10:38:13+00:00</time>
        <ele>2038.0</ele>
      </trkpt>
      <trkpt lat="45.3790714032948" lon="6.219560075551271">
        <time>2023-05-03T10:38:15+00:00</time>
        <ele>2038.0</ele>
      </trkpt>
      <trkpt lat="45.379063691943884" lon="6.219518501311541">
        <time>2023-05-03T10:38:18+00:00</time>
        <ele>2037.0</ele>
      </trkpt>
      <trkpt lat="45.37908758036792" lon="6.219372907653451">
        <time>2023-05-03T10:38:30+00:00</time>
        <ele>2030.0</ele>
      </trkpt>
      <trkpt lat="45.37912471219897" lon="6.21930886991322">
        <time>2023-05-03T10:38:36+00:00</time>
        <ele>2027.0</ele>
      </trkpt>
      <trkpt lat="45.379215655848384" lon="6.219200324267149">
        <time>2023-05-03T10:38:51+00:00</time>
        <ele>2023.0</ele>
      </trkpt>
      <trkpt lat="45.37929645739496" lon="6.219128742814064">
        <time>2023-05-03T10:39:04+00:00</time>
        <ele>2022.0</ele>
      </trkpt>
      <trkpt lat="45.379371559247375" lon="6.219047270715237">
        <time>2023-05-03T10:39:23+00:00</time>
        <ele>2023.0</ele>
      </trkpt>
      <trkpt lat="45.379386311396956" lon="6.218974767252803">
        <time>2023-05-03T10:39:43+00:00</time>
        <ele>2026.0</ele>
      </trkpt>
      <trkpt lat="45.37937767803669" lon="6.218949370086193">
        <time>2023-05-03T10:40:07+00:00</time>
        <ele>2027.0</ele>
      </trkpt>
      <trkpt lat="45.379344234243035" lon="6.218960015103221">
        <time>2023-05-03T10:40:25+00:00</time>
        <ele>2027.0</ele>
      </trkpt>
      <trkpt lat="45.379249434918165" lon="6.218933528289199">
        <time>2023-05-03T10:41:12+00:00</time>
        <ele>2030.0</ele>
      </trkpt>
      <trkpt lat="45.37923585623503" lon="6.218885583803058">
        <time>2023-05-03T10:41:31+00:00</time>
        <ele>2032.0</ele>
      </trkpt>
      <trkpt lat="45.37916528061032" lon="6.21876060962677">
        <time>2023-05-03T10:41:51+00:00</time>
        <ele>2037.0</ele>
      </trkpt>
      <trkpt lat="45.37910845130682" lon="6.218696152791381">
        <time>2023-05-03T10:42:08+00:00</time>
        <ele>2040.0</ele>
      </trkpt>
      <trkpt lat="45.379033014178276" lon="6.21858861297369">
        <time>2023-05-03T10:42:21+00:00</time>
        <ele>2045.0</ele>
      </trkpt>
      <trkpt lat="45.37885590456426" lon="6.218508314341307">
        <time>2023-05-03T10:42:39+00:00</time>
        <ele>2058.0</ele>
      </trkpt>
      <trkpt lat="45.378748616203666" lon="6.218409072607756">
        <time>2023-05-03T10:42:52+00:00</time>
        <ele>2079.0</ele>
      </trkpt>
      <trkpt lat="45.37863235920668" lon="6.218240763992071">
        <time>2023-05-03T10:43:07+00:00</time>
        <ele>2093.0</ele>
      </trkpt>
      <trkpt lat="45.3786123264581" lon="6.218175049871206">
        <time>2023-05-03T10:43:12+00:00</time>
        <ele>2094.0</ele>
      </trkpt>
      <trkpt lat="45.37860461510718" lon="6.218137079849839">
        <time>2023-05-03T10:43:15+00:00</time>
        <ele>2094.0</ele>
      </trkpt>
      <trkpt lat="45.37859044969082" lon="6.218079663813114">
        <time>2023-05-03T10:43:19+00:00</time>
        <ele>2096.0</ele>
      </trkpt>
      <trkpt lat="45.378568740561604" lon="6.217889897525311">
        <time>2023-05-03T10:43:32+00:00</time>
        <ele>2086.0</ele>
      </trkpt>
      <trkpt lat="45.378572428599" lon="6.2178092636168">
        <time>2023-05-03T10:43:38+00:00</time>
        <ele>2079.0</ele>
      </trkpt>
      <trkpt lat="45.378614673390985" lon="6.217618240043521">
        <time>2023-05-03T10:43:53+00:00</time>
        <ele>2064.0</ele>
      </trkpt>
      <trkpt lat="45.37862146273255" lon="6.217594183981419">
        <time>2023-05-03T10:43:55+00:00</time>
        <ele>2063.0</ele>
      </trkpt>
      <trkpt lat="45.37862909026444" lon="6.217567613348365">
        <time>2023-05-03T10:43:57+00:00</time>
        <ele>2061.0</ele>
      </trkpt>
      <trkpt lat="45.37867301143706" lon="6.217384804040194">
        <time>2023-05-03T10:44:10+00:00</time>
        <ele>2058.0</ele>
      </trkpt>
      <trkpt lat="45.37871114909649" lon="6.217253459617496">
        <time>2023-05-03T10:44:22+00:00</time>
        <ele>2058.0</ele>
      </trkpt>
      <trkpt lat="45.37876110523939" lon="6.217093113809824">
        <time>2023-05-03T10:44:36+00:00</time>
        <ele>2060.0</ele>
      </trkpt>
      <trkpt lat="45.37879002280533" lon="6.217001918703318">
        <time>2023-05-03T10:44:44+00:00</time>
        <ele>2062.0</ele>
      </trkpt>
      <trkpt lat="45.37881885655224" lon="6.216952549293637">
        <time>2023-05-03T10:45:02+00:00</time>
        <ele>2061.0</ele>
      </trkpt>
      <trkpt lat="45.378811648115516" lon="6.216958668082953">
        <time>2023-05-03T10:45:34+00:00</time>
        <ele>2062.0</ele>
      </trkpt>
      <trkpt lat="45.37882715463638" lon="6.216922793537378">
        <time>2023-05-03T10:46:03+00:00</time>
        <ele>2062.0</ele>
      </trkpt>
      <trkpt lat="45.37883050739765" lon="6.216870490461588">
        <time>2023-05-03T10:46:07+00:00</time>
        <ele>2063.0</ele>
      </trkpt>
      <trkpt lat="45.37883008830249" lon="6.216805865988135">
        <time>2023-05-03T10:46:21+00:00</time>
        <ele>2064.0</ele>
      </trkpt>
      <trkpt lat="45.37880955263972" lon="6.216685082763434">
        <time>2023-05-03T10:46:33+00:00</time>
        <ele>2067.0</ele>
      </trkpt>
      <trkpt lat="45.378789100795984" lon="6.216614004224539">
        <time>2023-05-03T10:46:39+00:00</time>
        <ele>2068.0</ele>
      </trkpt>
      <trkpt lat="45.378785245120525" lon="6.216584919020534">
        <time>2023-05-03T10:46:41+00:00</time>
        <ele>2069.0</ele>
      </trkpt>
      <trkpt lat="45.378772085532546" lon="6.216497076675296">
        <time>2023-05-03T10:46:48+00:00</time>
        <ele>2070.0</ele>
      </trkpt>
      <trkpt lat="45.37877468392253" lon="6.216451562941074">
        <time>2023-05-03T10:46:51+00:00</time>
        <ele>2071.0</ele>
      </trkpt>
      <trkpt lat="45.378820365294814" lon="6.21632432565093">
        <time>2023-05-03T10:47:05+00:00</time>
        <ele>2071.0</ele>
      </trkpt>
      <trkpt lat="45.37887484766543" lon="6.216221060603857">
        <time>2023-05-03T10:47:25+00:00</time>
        <ele>2071.0</ele>
      </trkpt>
      <trkpt lat="45.378781808540225" lon="6.216225167736411">
        <time>2023-05-03T10:47:40+00:00</time>
        <ele>2075.0</ele>
      </trkpt>
      <trkpt lat="45.37873076274991" lon="6.216236734762788">
        <time>2023-05-03T10:48:00+00:00</time>
        <ele>2077.0</ele>
      </trkpt>
      <trkpt lat="45.378641076385975" lon="6.216300018131733">
        <time>2023-05-03T10:48:20+00:00</time>
        <ele>2080.0</ele>
      </trkpt>
      <trkpt lat="45.378542924299836" lon="6.216382663697004">
        <time>2023-05-03T10:48:37+00:00</time>
        <ele>2084.0</ele>
      </trkpt>
      <trkpt lat="45.378403114154935" lon="6.216445192694664">
        <time>2023-05-03T10:48:56+00:00</time>
        <ele>2090.0</ele>
      </trkpt>
      <trkpt lat="45.378352236002684" lon="6.216447874903679">
        <time>2023-05-03T10:49:17+00:00</time>
        <ele>2093.0</ele>
      </trkpt>
      <trkpt lat="45.37834712304175" lon="6.216449718922377">
        <time>2023-05-03T10:49:24+00:00</time>
        <ele>2093.0</ele>
      </trkpt>
      <trkpt lat="45.37825282663107" lon="6.216569663956761">
        <time>2023-05-03T10:49:41+00:00</time>
        <ele>2097.0</ele>
      </trkpt>
      <trkpt lat="45.37819038145244" lon="6.216640658676624">
        <time>2023-05-03T10:49:58+00:00</time>
        <ele>2099.0</ele>
      </trkpt>
      <trkpt lat="45.37818099372089" lon="6.21662381105125">
        <time>2023-05-03T10:50:00+00:00</time>
        <ele>2100.0</ele>
      </trkpt>
      <trkpt lat="45.37813841365278" lon="6.216477630659938">
        <time>2023-05-03T10:50:14+00:00</time>
        <ele>2101.0</ele>
      </trkpt>
      <trkpt lat="45.37813673727214" lon="6.216350309550762">
        <time>2023-05-03T10:50:27+00:00</time>
        <ele>2102.0</ele>
      </trkpt>
      <trkpt lat="45.37813858129084" lon="6.216264562681317">
        <time>2023-05-03T10:50:34+00:00</time>
        <ele>2103.0</ele>
      </trkpt>
      <trkpt lat="45.37815107032657" lon="6.216184264048934">
        <time>2023-05-03T10:50:49+00:00</time>
        <ele>2103.0</ele>
      </trkpt>
      <trkpt lat="45.378153417259455" lon="6.216055601835251">
        <time>2023-05-03T10:51:12+00:00</time>
        <ele>2104.0</ele>
      </trkpt>
      <trkpt lat="45.37817236036062" lon="6.215851251035929">
        <time>2023-05-03T10:51:30+00:00</time>
        <ele>2106.0</ele>
      </trkpt>
      <trkpt lat="45.378224328160286" lon="6.215738095343113">
        <time>2023-05-03T10:51:44+00:00</time>
        <ele>2106.0</ele>
      </trkpt>
      <trkpt lat="45.37830060347915" lon="6.215611947700381">
        <time>2023-05-03T10:51:59+00:00</time>
        <ele>2107.0</ele>
      </trkpt>
      <trkpt lat="45.37835902534425" lon="6.215527458116412">
        <time>2023-05-03T10:52:19+00:00</time>
        <ele>2108.0</ele>
      </trkpt>
      <trkpt lat="45.37835097871721" lon="6.215418158099055">
        <time>2023-05-03T10:52:35+00:00</time>
        <ele>2111.0</ele>
      </trkpt>
      <trkpt lat="45.37824838422239" lon="6.215301901102066">
        <time>2023-05-03T10:52:53+00:00</time>
        <ele>2115.0</ele>
      </trkpt>
      <trkpt lat="45.37814151495695" lon="6.215211125090718">
        <time>2023-05-03T10:53:08+00:00</time>
        <ele>2119.0</ele>
      </trkpt>
      <trkpt lat="45.37811947055161" lon="6.215221099555492">
        <time>2023-05-03T10:53:22+00:00</time>
        <ele>2119.0</ele>
      </trkpt>
      <trkpt lat="45.378074292093515" lon="6.21525906957686">
        <time>2023-05-03T10:53:49+00:00</time>
        <ele>2120.0</ele>
      </trkpt>
      <trkpt lat="45.37795007228851" lon="6.215310785919428">
        <time>2023-05-03T10:54:06+00:00</time>
        <ele>2123.0</ele>
      </trkpt>
      <trkpt lat="45.37780808284879" lon="6.215416314080358">
        <time>2023-05-03T10:54:26+00:00</time>
        <ele>2128.0</ele>
      </trkpt>
      <trkpt lat="45.37780623883009" lon="6.215339452028275">
        <time>2023-05-03T10:54:41+00:00</time>
        <ele>2129.0</ele>
      </trkpt>
      <trkpt lat="45.377817302942276" lon="6.21528597548604">
        <time>2023-05-03T10:54:45+00:00</time>
        <ele>2129.0</ele>
      </trkpt>
      <trkpt lat="45.37783021107316" lon="6.215148428454995">
        <time>2023-05-03T10:54:59+00:00</time>
        <ele>2131.0</ele>
      </trkpt>
      <trkpt lat="45.37787480279803" lon="6.215001912787557">
        <time>2023-05-03T10:55:19+00:00</time>
        <ele>2132.0</ele>
      </trkpt>
      <trkpt lat="45.377888130024076" lon="6.214862521737814">
        <time>2023-05-03T10:55:36+00:00</time>
        <ele>2134.0</ele>
      </trkpt>
      <trkpt lat="45.37792341783643" lon="6.214689686894417">
        <time>2023-05-03T10:55:53+00:00</time>
        <ele>2137.0</ele>
      </trkpt>
      <trkpt lat="45.377946300432086" lon="6.214602263644338">
        <time>2023-05-03T10:56:10+00:00</time>
        <ele>2139.0</ele>
      </trkpt>
      <trkpt lat="45.37795577198267" lon="6.214398583397269">
        <time>2023-05-03T10:56:29+00:00</time>
        <ele>2142.0</ele>
      </trkpt>
      <trkpt lat="45.377949653193355" lon="6.214309483766556">
        <time>2023-05-03T10:56:49+00:00</time>
        <ele>2143.0</ele>
      </trkpt>
      <trkpt lat="45.37794311530888" lon="6.214306969195604">
        <time>2023-05-03T10:57:43+00:00</time>
        <ele>2144.0</ele>
      </trkpt>
      <trkpt lat="45.37783716805279" lon="6.214236058294773">
        <time>2023-05-03T10:58:01+00:00</time>
        <ele>2150.0</ele>
      </trkpt>
      <trkpt lat="45.37772183306515" lon="6.214308477938175">
        <time>2023-05-03T10:58:17+00:00</time>
        <ele>2155.0</ele>
      </trkpt>
      <trkpt lat="45.377633487805724" lon="6.214400846511126">
        <time>2023-05-03T10:58:32+00:00</time>
        <ele>2158.0</ele>
      </trkpt>
      <trkpt lat="45.37762686610222" lon="6.214320547878742">
        <time>2023-05-03T10:58:49+00:00</time>
        <ele>2160.0</ele>
      </trkpt>
      <trkpt lat="45.37761311978102" lon="6.214128602296114">
        <time>2023-05-03T10:59:07+00:00</time>
        <ele>2162.0</ele>
      </trkpt>
      <trkpt lat="45.377599876374006" lon="6.214101864024997">
        <time>2023-05-03T10:59:29+00:00</time>
        <ele>2163.0</ele>
      </trkpt>
      <trkpt lat="45.37755914032459" lon="6.213929448276758">
        <time>2023-05-03T10:59:46+00:00</time>
        <ele>2168.0</ele>
      </trkpt>
      <trkpt lat="45.377561738714576" lon="6.21377119794488">
        <time>2023-05-03T11:00:03+00:00</time>
        <ele>2170.0</ele>
      </trkpt>
      <trkpt lat="45.37763901986182" lon="6.213623927906156">
        <time>2023-05-03T11:00:23+00:00</time>
        <ele>2169.0</ele>
      </trkpt>
      <trkpt lat="45.37770037539303" lon="6.21352594345808">
        <time>2023-05-03T11:00:42+00:00</time>
        <ele>2168.0</ele>
      </trkpt>
      <trkpt lat="45.377654023468494" lon="6.21343650855124">
        <time>2023-05-03T11:00:57+00:00</time>
        <ele>2173.0</ele>
      </trkpt>
      <trkpt lat="45.37755453027785" lon="6.21342871338129">
        <time>2023-05-03T11:01:12+00:00</time>
        <ele>2179.0</ele>
      </trkpt>
      <trkpt lat="45.377525025978684" lon="6.21345017105341">
        <time>2023-05-03T11:01:33+00:00</time>
        <ele>2180.0</ele>
      </trkpt>
      <trkpt lat="45.377497700974345" lon="6.213292591273785">
        <time>2023-05-03T11:01:55+00:00</time>
        <ele>2185.0</ele>
      </trkpt>
      <trkpt lat="45.37746811285615" lon="6.213139956817031">
        <time>2023-05-03T11:02:09+00:00</time>
        <ele>2188.0</ele>
      </trkpt>
      <trkpt lat="45.37746844813228" lon="6.213054293766618">
        <time>2023-05-03T11:02:17+00:00</time>
        <ele>2187.0</ele>
      </trkpt>
      <trkpt lat="45.37746434099972" lon="6.213017413392663">
        <time>2023-05-03T11:02:20+00:00</time>
        <ele>2188.0</ele>
      </trkpt>
      <trkpt lat="45.37743768654764" lon="6.212876848876476">
        <time>2023-05-03T11:02:34+00:00</time>
        <ele>2188.0</ele>
      </trkpt>
      <trkpt lat="45.37744900211692" lon="6.212875759229064">
        <time>2023-05-03T11:03:16+00:00</time>
        <ele>2188.0</ele>
      </trkpt>
      <trkpt lat="45.37743181921542" lon="6.212841141968966">
        <time>2023-05-03T11:03:20+00:00</time>
        <ele>2188.0</ele>
      </trkpt>
      <trkpt lat="45.37741497159004" lon="6.21280518360436">
        <time>2023-05-03T11:03:23+00:00</time>
        <ele>2189.0</ele>
      </trkpt>
      <trkpt lat="45.37735562771559" lon="6.212659506127238">
        <time>2023-05-03T11:03:37+00:00</time>
        <ele>2191.0</ele>
      </trkpt>
      <trkpt lat="45.377335008233786" lon="6.21249639429152">
        <time>2023-05-03T11:03:50+00:00</time>
        <ele>2193.0</ele>
      </trkpt>
      <trkpt lat="45.37733626551926" lon="6.212452054023743">
        <time>2023-05-03T11:03:54+00:00</time>
        <ele>2193.0</ele>
      </trkpt>
      <trkpt lat="45.37737490609288" lon="6.212200596928597">
        <time>2023-05-03T11:04:11+00:00</time>
        <ele>2194.0</ele>
      </trkpt>
      <trkpt lat="45.37743014283478" lon="6.212026840075851">
        <time>2023-05-03T11:04:24+00:00</time>
        <ele>2195.0</ele>
      </trkpt>
      <trkpt lat="45.37743936292827" lon="6.212002700194717">
        <time>2023-05-03T11:04:26+00:00</time>
        <ele>2195.0</ele>
      </trkpt>
      <trkpt lat="45.377515722066164" lon="6.211807820945978">
        <time>2023-05-03T11:04:40+00:00</time>
        <ele>2197.0</ele>
      </trkpt>
      <trkpt lat="45.37753399461508" lon="6.21161830611527">
        <time>2023-05-03T11:04:52+00:00</time>
        <ele>2198.0</ele>
      </trkpt>
      <trkpt lat="45.377544052898884" lon="6.211535912007093">
        <time>2023-05-03T11:05:06+00:00</time>
        <ele>2198.0</ele>
      </trkpt>
      <trkpt lat="45.377547992393374" lon="6.211488889530301">
        <time>2023-05-03T11:05:10+00:00</time>
        <ele>2199.0</ele>
      </trkpt>
      <trkpt lat="45.37754480727017" lon="6.211353437975049">
        <time>2023-05-03T11:05:21+00:00</time>
        <ele>2200.0</ele>
      </trkpt>
      <trkpt lat="45.37754740566015" lon="6.211292836815119">
        <time>2023-05-03T11:05:25+00:00</time>
        <ele>2200.0</ele>
      </trkpt>
      <trkpt lat="45.377575820311904" lon="6.211079936474562">
        <time>2023-05-03T11:05:43+00:00</time>
        <ele>2200.0</ele>
      </trkpt>
      <trkpt lat="45.3775845374912" lon="6.210955297574401">
        <time>2023-05-03T11:06:03+00:00</time>
        <ele>2200.0</ele>
      </trkpt>
      <trkpt lat="45.37759015336633" lon="6.210914645344019">
        <time>2023-05-03T11:06:06+00:00</time>
        <ele>2201.0</ele>
      </trkpt>
      <trkpt lat="45.37760054692626" lon="6.210705684497953">
        <time>2023-05-03T11:06:21+00:00</time>
        <ele>2203.0</ele>
      </trkpt>
      <trkpt lat="45.37759627215564" lon="6.210646759718657">
        <time>2023-05-03T11:06:26+00:00</time>
        <ele>2203.0</ele>
      </trkpt>
      <trkpt lat="45.37759074009955" lon="6.210583643987775">
        <time>2023-05-03T11:06:42+00:00</time>
        <ele>2203.0</ele>
      </trkpt>
      <trkpt lat="45.3775879740715" lon="6.210441570729017">
        <time>2023-05-03T11:07:03+00:00</time>
        <ele>2206.0</ele>
      </trkpt>
      <trkpt lat="45.37755654193461" lon="6.210284326225519">
        <time>2023-05-03T11:07:22+00:00</time>
        <ele>2210.0</ele>
      </trkpt>
      <trkpt lat="45.377498622983694" lon="6.210190197452903">
        <time>2023-05-03T11:07:41+00:00</time>
        <ele>2213.0</ele>
      </trkpt>
      <trkpt lat="45.37757129408419" lon="6.210078215226531">
        <time>2023-05-03T11:07:56+00:00</time>
        <ele>2215.0</ele>
      </trkpt>
      <trkpt lat="45.37763466127217" lon="6.21006547473371">
        <time>2023-05-03T11:08:22+00:00</time>
        <ele>2217.0</ele>
      </trkpt>
      <trkpt lat="45.37768109701574" lon="6.209968412294984">
        <time>2023-05-03T11:08:38+00:00</time>
        <ele>2220.0</ele>
      </trkpt>
      <trkpt lat="45.37767497822642" lon="6.209780070930719">
        <time>2023-05-03T11:08:57+00:00</time>
        <ele>2225.0</ele>
      </trkpt>
      <trkpt lat="45.37768344394863" lon="6.209736401215196">
        <time>2023-05-03T11:09:01+00:00</time>
        <ele>2226.0</ele>
      </trkpt>
      <trkpt lat="45.37773281335831" lon="6.209594244137406">
        <time>2023-05-03T11:09:16+00:00</time>
        <ele>2229.0</ele>
      </trkpt>
      <trkpt lat="45.37773599848151" lon="6.209594495594502">
        <time>2023-05-03T11:09:33+00:00</time>
        <ele>2229.0</ele>
      </trkpt>
      <trkpt lat="45.377730801701546" lon="6.209596171975136">
        <time>2023-05-03T11:10:14+00:00</time>
        <ele>2229.0</ele>
      </trkpt>
      <trkpt lat="45.37774211727083" lon="6.209475472569466">
        <time>2023-05-03T11:10:36+00:00</time>
        <ele>2231.0</ele>
      </trkpt>
      <trkpt lat="45.37774329073727" lon="6.20942585170269">
        <time>2023-05-03T11:10:40+00:00</time>
        <ele>2232.0</ele>
      </trkpt>
      <trkpt lat="45.37772946059704" lon="6.209244048222899">
        <time>2023-05-03T11:10:54+00:00</time>
        <ele>2236.0</ele>
      </trkpt>
      <trkpt lat="45.3777470625937" lon="6.209031818434596">
        <time>2023-05-03T11:11:09+00:00</time>
        <ele>2238.0</ele>
      </trkpt>
      <trkpt lat="45.377789894118905" lon="6.208854457363486">
        <time>2023-05-03T11:11:23+00:00</time>
        <ele>2239.0</ele>
      </trkpt>
      <trkpt lat="45.3778004553169" lon="6.208725376054645">
        <time>2023-05-03T11:11:36+00:00</time>
        <ele>2241.0</ele>
      </trkpt>
      <trkpt lat="45.37781596183777" lon="6.208541644737124">
        <time>2023-05-03T11:11:54+00:00</time>
        <ele>2244.0</ele>
      </trkpt>
      <trkpt lat="45.37782090716064" lon="6.208507865667343">
        <time>2023-05-03T11:11:57+00:00</time>
        <ele>2244.0</ele>
      </trkpt>
      <trkpt lat="45.37782006897032" lon="6.208387333899736">
        <time>2023-05-03T11:12:06+00:00</time>
        <ele>2245.0</ele>
      </trkpt>
      <trkpt lat="45.37782677449286" lon="6.208172757178545">
        <time>2023-05-03T11:12:21+00:00</time>
        <ele>2248.0</ele>
      </trkpt>
      <trkpt lat="45.37784923799336" lon="6.208027917891741">
        <time>2023-05-03T11:12:33+00:00</time>
        <ele>2249.0</ele>
      </trkpt>
      <trkpt lat="45.377876898273826" lon="6.207831697538495">
        <time>2023-05-03T11:12:49+00:00</time>
        <ele>2251.0</ele>
      </trkpt>
      <trkpt lat="45.377943785861135" lon="6.207661628723145">
        <time>2023-05-03T11:13:07+00:00</time>
        <ele>2253.0</ele>
      </trkpt>
      <trkpt lat="45.37794797681272" lon="6.207648636773229">
        <time>2023-05-03T11:13:30+00:00</time>
        <ele>2253.0</ele>
      </trkpt>
      <trkpt lat="45.37799675948918" lon="6.207517124712467">
        <time>2023-05-03T11:13:59+00:00</time>
        <ele>2255.0</ele>
      </trkpt>
      <trkpt lat="45.37798720411956" lon="6.207428527995944">
        <time>2023-05-03T11:14:06+00:00</time>
        <ele>2257.0</ele>
      </trkpt>
      <trkpt lat="45.3779851924628" lon="6.207367591559887">
        <time>2023-05-03T11:14:10+00:00</time>
        <ele>2258.0</ele>
      </trkpt>
      <trkpt lat="45.37799977697432" lon="6.207305146381259">
        <time>2023-05-03T11:14:30+00:00</time>
        <ele>2259.0</ele>
      </trkpt>
      <trkpt lat="45.37805593572557" lon="6.207140861079097">
        <time>2023-05-03T11:14:56+00:00</time>
        <ele>2262.0</ele>
      </trkpt>
      <trkpt lat="45.37808342836797" lon="6.206958722323179">
        <time>2023-05-03T11:15:11+00:00</time>
        <ele>2265.0</ele>
      </trkpt>
      <trkpt lat="45.37810790352523" lon="6.206847243010998">
        <time>2023-05-03T11:15:23+00:00</time>
        <ele>2266.0</ele>
      </trkpt>
      <trkpt lat="45.378160793334246" lon="6.206775074824691">
        <time>2023-05-03T11:15:38+00:00</time>
        <ele>2266.0</ele>
      </trkpt>
      <trkpt lat="45.37809113971889" lon="6.206715060397983">
        <time>2023-05-03T11:15:56+00:00</time>
        <ele>2269.0</ele>
      </trkpt>
      <trkpt lat="45.37803498096764" lon="6.206699050962925">
        <time>2023-05-03T11:16:15+00:00</time>
        <ele>2271.0</ele>
      </trkpt>
      <trkpt lat="45.37810857407749" lon="6.206515738740563">
        <time>2023-05-03T11:16:36+00:00</time>
        <ele>2273.0</ele>
      </trkpt>
      <trkpt lat="45.378144280985" lon="6.206426052376628">
        <time>2023-05-03T11:16:49+00:00</time>
        <ele>2275.0</ele>
      </trkpt>
      <trkpt lat="45.378168085590005" lon="6.206381293013692">
        <time>2023-05-03T11:17:05+00:00</time>
        <ele>2276.0</ele>
      </trkpt>
      <trkpt lat="45.37822064012289" lon="6.20623511262238">
        <time>2023-05-03T11:17:19+00:00</time>
        <ele>2279.0</ele>
      </trkpt>
      <trkpt lat="45.378277050331235" lon="6.206148359924555">
        <time>2023-05-03T11:17:29+00:00</time>
        <ele>2280.0</ele>
      </trkpt>
      <trkpt lat="45.37836606614292" lon="6.206042915582657">
        <time>2023-05-03T11:17:44+00:00</time>
        <ele>2281.0</ele>
      </trkpt>
      <trkpt lat="45.37841032259166" lon="6.205977955833077">
        <time>2023-05-03T11:18:01+00:00</time>
        <ele>2283.0</ele>
      </trkpt>
      <trkpt lat="45.37840621545911" lon="6.205985080450773">
        <time>2023-05-03T11:18:28+00:00</time>
        <ele>2283.0</ele>
      </trkpt>
      <trkpt lat="45.378408562391996" lon="6.205991199240089">
        <time>2023-05-03T11:18:56+00:00</time>
        <ele>2282.0</ele>
      </trkpt>
      <trkpt lat="45.378416860476136" lon="6.205990612506867">
        <time>2023-05-03T11:19:22+00:00</time>
        <ele>2282.0</ele>
      </trkpt>
      <trkpt lat="45.378445191308856" lon="6.205966137349606">
        <time>2023-05-03T11:19:44+00:00</time>
        <ele>2283.0</ele>
      </trkpt>
      <trkpt lat="45.37851626984775" lon="6.205824567005038">
        <time>2023-05-03T11:20:00+00:00</time>
        <ele>2287.0</ele>
      </trkpt>
      <trkpt lat="45.37859681993723" lon="6.205677883699536">
        <time>2023-05-03T11:20:17+00:00</time>
        <ele>2291.0</ele>
      </trkpt>
      <trkpt lat="45.37865247577429" lon="6.205613510683179">
        <time>2023-05-03T11:20:37+00:00</time>
        <ele>2293.0</ele>
      </trkpt>
      <trkpt lat="45.37873210385442" lon="6.205581910908222">
        <time>2023-05-03T11:20:53+00:00</time>
        <ele>2293.0</ele>
      </trkpt>
      <trkpt lat="45.378689523786306" lon="6.205515107139945">
        <time>2023-05-03T11:21:13+00:00</time>
        <ele>2296.0</ele>
      </trkpt>
      <trkpt lat="45.37859288044274" lon="6.20546012185514">
        <time>2023-05-03T11:21:32+00:00</time>
        <ele>2301.0</ele>
      </trkpt>
      <trkpt lat="45.378511659801006" lon="6.205445621162653">
        <time>2023-05-03T11:21:47+00:00</time>
        <ele>2303.0</ele>
      </trkpt>
      <trkpt lat="45.37855239585042" lon="6.205359790474176">
        <time>2023-05-03T11:22:04+00:00</time>
        <ele>2306.0</ele>
      </trkpt>
      <trkpt lat="45.378631269559264" lon="6.205265494063497">
        <time>2023-05-03T11:22:19+00:00</time>
        <ele>2307.0</ele>
      </trkpt>
      <trkpt lat="45.37873378023505" lon="6.205203551799059">
        <time>2023-05-03T11:22:34+00:00</time>
        <ele>2306.0</ele>
      </trkpt>
      <trkpt lat="45.378835536539555" lon="6.205261638388038">
        <time>2023-05-03T11:22:53+00:00</time>
        <ele>2305.0</ele>
      </trkpt>
      <trkpt lat="45.37891977466643" lon="6.205230709165335">
        <time>2023-05-03T11:23:24+00:00</time>
        <ele>2306.0</ele>
      </trkpt>
      <trkpt lat="45.378926396369934" lon="6.205219142138958">
        <time>2023-05-03T11:23:25+00:00</time>
        <ele>2307.0</ele>
      </trkpt>
      <trkpt lat="45.37894542329013" lon="6.205186620354652">
        <time>2023-05-03T11:23:28+00:00</time>
        <ele>2308.0</ele>
      </trkpt>
      <trkpt lat="45.379015915095806" lon="6.205060137435794">
        <time>2023-05-03T11:23:41+00:00</time>
        <ele>2311.0</ele>
      </trkpt>
      <trkpt lat="45.37901943549514" lon="6.205048905685544">
        <time>2023-05-03T11:23:42+00:00</time>
        <ele>2311.0</ele>
      </trkpt>
      <trkpt lat="45.379028990864754" lon="6.205026861280203">
        <time>2023-05-03T11:23:44+00:00</time>
        <ele>2312.0</ele>
      </trkpt>
      <trkpt lat="45.37905723787844" lon="6.204952681437135">
        <time>2023-05-03T11:23:51+00:00</time>
        <ele>2314.0</ele>
      </trkpt>
      <trkpt lat="45.37907877936959" lon="6.204875316470861">
        <time>2023-05-03T11:23:57+00:00</time>
        <ele>2316.0</ele>
      </trkpt>
      <trkpt lat="45.37915974855423" lon="6.204668618738651">
        <time>2023-05-03T11:24:12+00:00</time>
        <ele>2319.0</ele>
      </trkpt>
      <trkpt lat="45.37923535332084" lon="6.204529898241162">
        <time>2023-05-03T11:24:24+00:00</time>
        <ele>2320.0</ele>
      </trkpt>
      <trkpt lat="45.37933652289212" lon="6.204392937943339">
        <time>2023-05-03T11:24:38+00:00</time>
        <ele>2320.0</ele>
      </trkpt>
      <trkpt lat="45.379442973062396" lon="6.204245751723647">
        <time>2023-05-03T11:24:51+00:00</time>
        <ele>2319.0</ele>
      </trkpt>
      <trkpt lat="45.379472225904465" lon="6.204210463911295">
        <time>2023-05-03T11:24:55+00:00</time>
        <ele>2318.0</ele>
      </trkpt>
      <trkpt lat="45.379394022747874" lon="6.204210380092263">
        <time>2023-05-03T11:26:58+00:00</time>
        <ele>2321.0</ele>
      </trkpt>
      <trkpt lat="45.37932093255222" lon="6.204229407012463">
        <time>2023-05-03T11:27:11+00:00</time>
        <ele>2324.0</ele>
      </trkpt>
      <trkpt lat="45.37924717180431" lon="6.20427567511797">
        <time>2023-05-03T11:27:29+00:00</time>
        <ele>2326.0</ele>
      </trkpt>
      <trkpt lat="45.3791715670377" lon="6.204314483329654">
        <time>2023-05-03T11:27:49+00:00</time>
        <ele>2328.0</ele>
      </trkpt>
      <trkpt lat="45.37913887761533" lon="6.204323451966047">
        <time>2023-05-03T11:30:59+00:00</time>
        <ele>2329.0</ele>
      </trkpt>
      <trkpt lat="45.37917483597994" lon="6.204280452802777">
        <time>2023-05-03T11:34:27+00:00</time>
        <ele>2329.0</ele>
      </trkpt>
      <trkpt lat="45.379191348329186" lon="6.204246338456869">
        <time>2023-05-03T11:34:46+00:00</time>
        <ele>2329.0</ele>
      </trkpt>
      <trkpt lat="45.379218170419335" lon="6.204122034832835">
        <time>2023-05-03T11:38:51+00:00</time>
        <ele>2331.0</ele>
      </trkpt>
      <trkpt lat="45.37920920178294" lon="6.204084986820817">
        <time>2023-05-03T11:39:17+00:00</time>
        <ele>2332.0</ele>
      </trkpt>
      <trkpt lat="45.37921632640064" lon="6.20406755246222">
        <time>2023-05-03T11:40:56+00:00</time>
        <ele>2332.0</ele>
      </trkpt>
      <trkpt lat="45.37923694588244" lon="6.204002508893609">
        <time>2023-05-03T11:41:19+00:00</time>
        <ele>2327.0</ele>
      </trkpt>
      <trkpt lat="45.37936057895422" lon="6.203975938260555">
        <time>2023-05-03T11:47:37+00:00</time>
        <ele>2319.0</ele>
      </trkpt>
      <trkpt lat="45.379379354417324" lon="6.20392095297575">
        <time>2023-05-03T11:49:43+00:00</time>
        <ele>2316.0</ele>
      </trkpt>
      <trkpt lat="45.37937927059829" lon="6.203845599666238">
        <time>2023-05-03T11:50:02+00:00</time>
        <ele>2311.0</ele>
      </trkpt>
      <trkpt lat="45.37937566637993" lon="6.203811569139361">
        <time>2023-05-03T11:50:07+00:00</time>
        <ele>2309.0</ele>
      </trkpt>
      <trkpt lat="45.37939737550914" lon="6.203686930239201">
        <time>2023-05-03T11:50:13+00:00</time>
        <ele>2299.0</ele>
      </trkpt>
      <trkpt lat="45.37943668663502" lon="6.203539492562413">
        <time>2023-05-03T11:50:19+00:00</time>
        <ele>2285.0</ele>
      </trkpt>
      <trkpt lat="45.379470717161894" lon="6.20342499576509">
        <time>2023-05-03T11:50:23+00:00</time>
        <ele>2274.0</ele>
      </trkpt>
      <trkpt lat="45.379484463483095" lon="6.203378392383456">
        <time>2023-05-03T11:50:25+00:00</time>
        <ele>2270.0</ele>
      </trkpt>
      <trkpt lat="45.37950675934553" lon="6.203340422362089">
        <time>2023-05-03T11:50:27+00:00</time>
        <ele>2267.0</ele>
      </trkpt>
      <trkpt lat="45.37951556034386" lon="6.203310834243894">
        <time>2023-05-03T11:50:29+00:00</time>
        <ele>2264.0</ele>
      </trkpt>
      <trkpt lat="45.37953014485538" lon="6.203265655785799">
        <time>2023-05-03T11:50:32+00:00</time>
        <ele>2260.0</ele>
      </trkpt>
      <trkpt lat="45.379567528143525" lon="6.203197259455919">
        <time>2023-05-03T11:50:35+00:00</time>
        <ele>2253.0</ele>
      </trkpt>
      <trkpt lat="45.3795946855098" lon="6.203166916966438">
        <time>2023-05-03T11:50:37+00:00</time>
        <ele>2250.0</ele>
      </trkpt>
      <trkpt lat="45.37960306741297" lon="6.203161887824535">
        <time>2023-05-03T11:50:39+00:00</time>
        <ele>2250.0</ele>
      </trkpt>
      <trkpt lat="45.379586135968566" lon="6.203145375475287">
        <time>2023-05-03T11:50:42+00:00</time>
        <ele>2248.0</ele>
      </trkpt>
      <trkpt lat="45.37955269217491" lon="6.20308586396277">
        <time>2023-05-03T11:50:46+00:00</time>
        <ele>2243.0</ele>
      </trkpt>
      <trkpt lat="45.3794807754457" lon="6.202871706336737">
        <time>2023-05-03T11:50:52+00:00</time>
        <ele>2225.0</ele>
      </trkpt>
      <trkpt lat="45.37942570634186" lon="6.202779253944755">
        <time>2023-05-03T11:50:55+00:00</time>
        <ele>2220.0</ele>
      </trkpt>
      <trkpt lat="45.37939838133752" lon="6.202741367742419">
        <time>2023-05-03T11:50:57+00:00</time>
        <ele>2219.0</ele>
      </trkpt>
      <trkpt lat="45.379370050504804" lon="6.202703649178147">
        <time>2023-05-03T11:50:59+00:00</time>
        <ele>2218.0</ele>
      </trkpt>
      <trkpt lat="45.379363764077425" lon="6.202617315575481">
        <time>2023-05-03T11:51:02+00:00</time>
        <ele>2212.0</ele>
      </trkpt>
      <trkpt lat="45.37933627143502" lon="6.202508015558124">
        <time>2023-05-03T11:51:05+00:00</time>
        <ele>2205.0</ele>
      </trkpt>
      <trkpt lat="45.37932436913252" lon="6.202488485723734">
        <time>2023-05-03T11:51:06+00:00</time>
        <ele>2203.0</ele>
      </trkpt>
      <trkpt lat="45.37929369136691" lon="6.202424531802535">
        <time>2023-05-03T11:51:08+00:00</time>
        <ele>2199.0</ele>
      </trkpt>
      <trkpt lat="45.379308611154556" lon="6.202314561232925">
        <time>2023-05-03T11:51:11+00:00</time>
        <ele>2190.0</ele>
      </trkpt>
      <trkpt lat="45.37930718623102" lon="6.202222025021911">
        <time>2023-05-03T11:51:13+00:00</time>
        <ele>2183.0</ele>
      </trkpt>
      <trkpt lat="45.37929746322334" lon="6.20217558927834">
        <time>2023-05-03T11:51:15+00:00</time>
        <ele>2179.0</ele>
      </trkpt>
      <trkpt lat="45.37928078323603" lon="6.202132673934102">
        <time>2023-05-03T11:51:17+00:00</time>
        <ele>2177.0</ele>
      </trkpt>
      <trkpt lat="45.37928715348244" lon="6.202044663950801">
        <time>2023-05-03T11:51:19+00:00</time>
        <ele>2171.0</ele>
      </trkpt>
      <trkpt lat="45.3793116286397" lon="6.20195715688169">
        <time>2023-05-03T11:51:21+00:00</time>
        <ele>2166.0</ele>
      </trkpt>
      <trkpt lat="45.37928874604404" lon="6.201875181868672">
        <time>2023-05-03T11:51:23+00:00</time>
        <ele>2160.0</ele>
      </trkpt>
      <trkpt lat="45.379258655011654" lon="6.20177979581058">
        <time>2023-05-03T11:51:25+00:00</time>
        <ele>2154.0</ele>
      </trkpt>
      <trkpt lat="45.37928623147309" lon="6.20168399065733">
        <time>2023-05-03T11:51:27+00:00</time>
        <ele>2148.0</ele>
      </trkpt>
      <trkpt lat="45.379308527335525" lon="6.201657839119434">
        <time>2023-05-03T11:51:28+00:00</time>
        <ele>2147.0</ele>
      </trkpt>
      <trkpt lat="45.37936200387776" lon="6.201595980674028">
        <time>2023-05-03T11:51:30+00:00</time>
        <ele>2144.0</ele>
      </trkpt>
      <trkpt lat="45.37937440909445" lon="6.201402274891734">
        <time>2023-05-03T11:51:33+00:00</time>
        <ele>2135.0</ele>
      </trkpt>
      <trkpt lat="45.37936602719128" lon="6.201100442558527">
        <time>2023-05-03T11:51:36+00:00</time>
        <ele>2124.0</ele>
      </trkpt>
      <trkpt lat="45.37936384789646" lon="6.200891733169556">
        <time>2023-05-03T11:51:38+00:00</time>
        <ele>2117.0</ele>
      </trkpt>
      <trkpt lat="45.37903770804405" lon="6.200713198632002">
        <time>2023-05-03T11:52:50+00:00</time>
        <ele>2102.0</ele>
      </trkpt>
      <trkpt lat="45.37891239859164" lon="6.200763238593936">
        <time>2023-05-03T11:52:52+00:00</time>
        <ele>2104.0</ele>
      </trkpt>
      <trkpt lat="45.37878876551986" lon="6.200802298262715">
        <time>2023-05-03T11:52:54+00:00</time>
        <ele>2107.0</ele>
      </trkpt>
      <trkpt lat="45.37866085767746" lon="6.200662069022656">
        <time>2023-05-03T11:52:57+00:00</time>
        <ele>2103.0</ele>
      </trkpt>
      <trkpt lat="45.3785499650985" lon="6.200575232505798">
        <time>2023-05-03T11:52:59+00:00</time>
        <ele>2102.0</ele>
      </trkpt>
      <trkpt lat="45.37851291708648" lon="6.200244231149554">
        <time>2023-05-03T11:53:03+00:00</time>
        <ele>2090.0</ele>
      </trkpt>
      <trkpt lat="45.37849137559533" lon="6.199991013854742">
        <time>2023-05-03T11:53:05+00:00</time>
        <ele>2082.0</ele>
      </trkpt>
      <trkpt lat="45.378536554053426" lon="6.199716003611684">
        <time>2023-05-03T11:53:07+00:00</time>
        <ele>2076.0</ele>
      </trkpt>
      <trkpt lat="45.378531608730555" lon="6.199554819613695">
        <time>2023-05-03T11:53:08+00:00</time>
        <ele>2074.0</ele>
      </trkpt>
      <trkpt lat="45.378501852974296" lon="6.199267907068133">
        <time>2023-05-03T11:53:10+00:00</time>
        <ele>2074.0</ele>
      </trkpt>
      <trkpt lat="45.37851484492421" lon="6.198975630104542">
        <time>2023-05-03T11:53:12+00:00</time>
        <ele>2076.0</ele>
      </trkpt>
      <trkpt lat="45.378613164648414" lon="6.19875661097467">
        <time>2023-05-03T11:53:14+00:00</time>
        <ele>2075.0</ele>
      </trkpt>
      <trkpt lat="45.378727074712515" lon="6.198521833866835">
        <time>2023-05-03T11:53:18+00:00</time>
        <ele>2072.0</ele>
      </trkpt>
      <trkpt lat="45.37876144051552" lon="6.198395853862166">
        <time>2023-05-03T11:53:21+00:00</time>
        <ele>2069.0</ele>
      </trkpt>
      <trkpt lat="45.37879387848079" lon="6.198209188878536">
        <time>2023-05-03T11:53:24+00:00</time>
        <ele>2066.0</ele>
      </trkpt>
      <trkpt lat="45.37880016490817" lon="6.198144145309925">
        <time>2023-05-03T11:53:25+00:00</time>
        <ele>2065.0</ele>
      </trkpt>
      <trkpt lat="45.378813073039055" lon="6.197796212509275">
        <time>2023-05-03T11:53:29+00:00</time>
        <ele>2058.0</ele>
      </trkpt>
      <trkpt lat="45.37880695424974" lon="6.197609379887581">
        <time>2023-05-03T11:53:31+00:00</time>
        <ele>2054.0</ele>
      </trkpt>
      <trkpt lat="45.37867887876928" lon="6.197431683540344">
        <time>2023-05-03T11:53:49+00:00</time>
        <ele>2052.0</ele>
      </trkpt>
      <trkpt lat="45.37860620766878" lon="6.197398658841848">
        <time>2023-05-03T11:53:52+00:00</time>
        <ele>2051.0</ele>
      </trkpt>
      <trkpt lat="45.37825056351721" lon="6.197179555892944">
        <time>2023-05-03T11:53:58+00:00</time>
        <ele>2040.0</ele>
      </trkpt>
      <trkpt lat="45.37803850136697" lon="6.196737494319677">
        <time>2023-05-03T11:55:00+00:00</time>
        <ele>2018.0</ele>
      </trkpt>
      <trkpt lat="45.37786751054227" lon="6.196530712768436">
        <time>2023-05-03T11:55:03+00:00</time>
        <ele>2005.0</ele>
      </trkpt>
      <trkpt lat="45.376516012474895" lon="6.19478702545166">
        <time>1970-01-01T00:00:00+00:00</time>
        <ele>1880.0</ele>
      </trkpt>
      <trkpt lat="45.37611602805555" lon="6.194807980209589">
        <time>1970-01-01T00:00:00+00:00</time>
        <ele>1874.0</ele>
      </trkpt>
      <trkpt lat="45.3755209967494" lon="6.19457202963531">
        <time>1970-01-01T00:00:00+00:00</time>
        <ele>1876.0</ele>
      </trkpt>
      <trkpt lat="45.374820018187165" lon="6.19467998854816">
        <time>1970-01-01T00:00:00+00:00</time>
        <ele>1888.0</ele>
      </trkpt>
      <trkpt lat="45.37401401437819" lon="6.195140993222594">
        <time>1970-01-01T00:00:00+00:00</time>
        <ele>1906.0</ele>
      </trkpt>
      <trkpt lat="45.37380304187536" lon="6.195163037627935">
        <time>1970-01-01T00:00:00+00:00</time>
        <ele>1907.0</ele>
      </trkpt>
      <trkpt lat="45.372823029756546" lon="6.194475973024964">
        <time>1970-01-01T00:00:00+00:00</time>
        <ele>1908.0</ele>
      </trkpt>
      <trkpt lat="45.37240100093186" lon="6.194346975535154">
        <time>1970-01-01T00:00:00+00:00</time>
        <ele>1917.0</ele>
      </trkpt>
      <trkpt lat="45.3720239829272" lon="6.194142960011959">
        <time>1970-01-01T00:00:00+00:00</time>
        <ele>1911.0</ele>
      </trkpt>
      <trkpt lat="45.37552082911134" lon="6.18979811668396">
        <time>2023-05-03T12:28:00+00:00</time>
        <ele>1610.0</ele>
      </trkpt>
      <trkpt lat="45.37565686739981" lon="6.189797027036548">
        <time>2023-05-03T12:28:23+00:00</time>
        <ele>1607.0</ele>
      </trkpt>
      <trkpt lat="45.37575652822852" lon="6.189794177189469">
        <time>2023-05-03T12:28:37+00:00</time>
        <ele>1605.0</ele>
      </trkpt>
      <trkpt lat="45.37587999366224" lon="6.189763164147735">
        <time>2023-05-03T12:28:51+00:00</time>
        <ele>1601.0</ele>
      </trkpt>
      <trkpt lat="45.37593472748995" lon="6.189705915749073">
        <time>2023-05-03T12:29:02+00:00</time>
        <ele>1598.0</ele>
      </trkpt>
      <trkpt lat="45.37599457427859" lon="6.18965545669198">
        <time>2023-05-03T12:29:11+00:00</time>
        <ele>1595.0</ele>
      </trkpt>
      <trkpt lat="45.376059198752046" lon="6.189575996249914">
        <time>2023-05-03T12:29:22+00:00</time>
        <ele>1592.0</ele>
      </trkpt>
      <trkpt lat="45.376124661415815" lon="6.189497793093324">
        <time>2023-05-03T12:29:34+00:00</time>
        <ele>1588.0</ele>
      </trkpt>
      <trkpt lat="45.37617864087224" lon="6.189455715939403">
        <time>2023-05-03T12:29:45+00:00</time>
        <ele>1585.0</ele>
      </trkpt>
      <trkpt lat="45.37622733972967" lon="6.189400311559439">
        <time>2023-05-03T12:29:54+00:00</time>
        <ele>1582.0</ele>
      </trkpt>
      <trkpt lat="45.37627729587257" lon="6.189365778118372">
        <time>2023-05-03T12:30:03+00:00</time>
        <ele>1580.0</ele>
      </trkpt>
      <trkpt lat="45.37632029503584" lon="6.189261926338077">
        <time>2023-05-03T12:30:12+00:00</time>
        <ele>1575.0</ele>
      </trkpt>
      <trkpt lat="45.37638332694769" lon="6.189216831699014">
        <time>2023-05-03T12:30:22+00:00</time>
        <ele>1572.0</ele>
      </trkpt>
      <trkpt lat="45.3764364682138" lon="6.18919076398015">
        <time>2023-05-03T12:30:34+00:00</time>
        <ele>1570.0</ele>
      </trkpt>
      <trkpt lat="45.376481395214796" lon="6.189146507531405">
        <time>2023-05-03T12:30:44+00:00</time>
        <ele>1567.0</ele>
      </trkpt>
      <trkpt lat="45.37651240825653" lon="6.189102167263627">
        <time>2023-05-03T12:30:55+00:00</time>
        <ele>1565.0</ele>
      </trkpt>
      <trkpt lat="45.37656814791262" lon="6.189033100381494">
        <time>2023-05-03T12:31:17+00:00</time>
        <ele>1561.0</ele>
      </trkpt>
      <trkpt lat="45.37666236050427" lon="6.189019605517387">
        <time>2023-05-03T12:31:28+00:00</time>
        <ele>1558.0</ele>
      </trkpt>
      <trkpt lat="45.37674089893699" lon="6.189026646316052">
        <time>2023-05-03T12:31:38+00:00</time>
        <ele>1555.0</ele>
      </trkpt>
      <trkpt lat="45.37681004963815" lon="6.188944922760129">
        <time>2023-05-03T12:31:51+00:00</time>
        <ele>1551.0</ele>
      </trkpt>
      <trkpt lat="45.37689353339374" lon="6.188862947747111">
        <time>2023-05-03T12:32:02+00:00</time>
        <ele>1547.0</ele>
      </trkpt>
      <trkpt lat="45.376940639689565" lon="6.188765214756131">
        <time>2023-05-03T12:32:14+00:00</time>
        <ele>1545.0</ele>
      </trkpt>
      <trkpt lat="45.376999229192734" lon="6.188675025478005">
        <time>2023-05-03T12:32:26+00:00</time>
        <ele>1542.0</ele>
      </trkpt>
      <trkpt lat="45.37704214453697" lon="6.188544854521751">
        <time>2023-05-03T12:32:36+00:00</time>
        <ele>1539.0</ele>
      </trkpt>
      <trkpt lat="45.377048179507256" lon="6.188444271683693">
        <time>2023-05-03T12:32:46+00:00</time>
        <ele>1537.0</ele>
      </trkpt>
      <trkpt lat="45.377088664099574" lon="6.188354082405567">
        <time>2023-05-03T12:32:55+00:00</time>
        <ele>1534.0</ele>
      </trkpt>
      <trkpt lat="45.37716703489423" lon="6.188294487074018">
        <time>2023-05-03T12:33:05+00:00</time>
        <ele>1530.0</ele>
      </trkpt>
      <trkpt lat="45.377187402918935" lon="6.188297756016254">
        <time>2023-05-03T12:33:07+00:00</time>
        <ele>1530.0</ele>
      </trkpt>
      <trkpt lat="45.37720324471593" lon="6.188297253102064">
        <time>2023-05-03T12:33:09+00:00</time>
        <ele>1530.0</ele>
      </trkpt>
      <trkpt lat="45.377330146729946" lon="6.188231371343136">
        <time>2023-05-03T12:33:27+00:00</time>
        <ele>1527.0</ele>
      </trkpt>
      <trkpt lat="45.377419078722596" lon="6.188167836517096">
        <time>2023-05-03T12:33:39+00:00</time>
        <ele>1525.0</ele>
      </trkpt>
      <trkpt lat="45.377473812550306" lon="6.188075887039304">
        <time>2023-05-03T12:33:51+00:00</time>
        <ele>1522.0</ele>
      </trkpt>
      <trkpt lat="45.37754321470857" lon="6.187994834035635">
        <time>2023-05-03T12:34:00+00:00</time>
        <ele>1520.0</ele>
      </trkpt>
      <trkpt lat="45.377709260210395" lon="6.187890563160181">
        <time>2023-05-03T12:34:20+00:00</time>
        <ele>1518.0</ele>
      </trkpt>
      <trkpt lat="45.37771965377033" lon="6.187884612008929">
        <time>2023-05-03T12:34:22+00:00</time>
        <ele>1518.0</ele>
      </trkpt>
      <trkpt lat="45.37777690216899" lon="6.187808336690068">
        <time>2023-05-03T12:34:33+00:00</time>
        <ele>1516.0</ele>
      </trkpt>
      <trkpt lat="45.37786642089486" lon="6.187733318656683">
        <time>2023-05-03T12:34:46+00:00</time>
        <ele>1513.0</ele>
      </trkpt>
      <trkpt lat="45.377891063690186" lon="6.187711106613278">
        <time>2023-05-03T12:34:51+00:00</time>
        <ele>1512.0</ele>
      </trkpt>
      <trkpt lat="45.37791377864778" lon="6.187556963413954">
        <time>2023-05-03T12:35:06+00:00</time>
        <ele>1507.0</ele>
      </trkpt>
      <trkpt lat="45.37791671231389" lon="6.187516311183572">
        <time>2023-05-03T12:35:11+00:00</time>
        <ele>1506.0</ele>
      </trkpt>
      <trkpt lat="45.3780076559633" lon="6.187441376969218">
        <time>2023-05-03T12:35:26+00:00</time>
        <ele>1504.0</ele>
      </trkpt>
      <trkpt lat="45.37802726961672" lon="6.187420589849353">
        <time>2023-05-03T12:35:29+00:00</time>
        <ele>1504.0</ele>
      </trkpt>
      <trkpt lat="45.378035232424736" lon="6.187341464683414">
        <time>2023-05-03T12:35:37+00:00</time>
        <ele>1501.0</ele>
      </trkpt>
      <trkpt lat="45.37808761931956" lon="6.187260914593935">
        <time>2023-05-03T12:35:49+00:00</time>
        <ele>1499.0</ele>
      </trkpt>
      <trkpt lat="45.378103544935584" lon="6.18712822906673">
        <time>2023-05-03T12:35:59+00:00</time>
        <ele>1495.0</ele>
      </trkpt>
      <trkpt lat="45.37812433205545" lon="6.187044242396951">
        <time>2023-05-03T12:36:10+00:00</time>
        <ele>1493.0</ele>
      </trkpt>
      <trkpt lat="45.378189627081156" lon="6.186996381729841">
        <time>2023-05-03T12:36:17+00:00</time>
        <ele>1492.0</ele>
      </trkpt>
      <trkpt lat="45.37820806726813" lon="6.186925303190947">
        <time>2023-05-03T12:36:23+00:00</time>
        <ele>1489.0</ele>
      </trkpt>
      <trkpt lat="45.37829431705177" lon="6.186729753389955">
        <time>2023-05-03T12:36:38+00:00</time>
        <ele>1483.0</ele>
      </trkpt>
      <trkpt lat="45.37841853685677" lon="6.186664793640375">
        <time>2023-05-03T12:36:55+00:00</time>
        <ele>1481.0</ele>
      </trkpt>
      <trkpt lat="45.37853043526411" lon="6.18657217361033">
        <time>2023-05-03T12:37:13+00:00</time>
        <ele>1478.0</ele>
      </trkpt>
      <trkpt lat="45.37861282937229" lon="6.186450133100152">
        <time>2023-05-03T12:37:29+00:00</time>
        <ele>1474.0</ele>
      </trkpt>
      <trkpt lat="45.37861534394324" lon="6.186425657942891">
        <time>2023-05-03T12:37:31+00:00</time>
        <ele>1474.0</ele>
      </trkpt>
      <trkpt lat="45.378654822707176" lon="6.186339491978288">
        <time>2023-05-03T12:37:42+00:00</time>
        <ele>1471.0</ele>
      </trkpt>
      <trkpt lat="45.37868742831051" lon="6.186232790350914">
        <time>2023-05-03T12:37:51+00:00</time>
        <ele>1467.0</ele>
      </trkpt>
      <trkpt lat="45.37875062786043" lon="6.186125418171287">
        <time>2023-05-03T12:38:03+00:00</time>
        <ele>1464.0</ele>
      </trkpt>
      <trkpt lat="45.37883369252086" lon="6.186012765392661">
        <time>2023-05-03T12:38:14+00:00</time>
        <ele>1459.0</ele>
      </trkpt>
      <trkpt lat="45.37894542329013" lon="6.185934981331229">
        <time>2023-05-03T12:38:27+00:00</time>
        <ele>1457.0</ele>
      </trkpt>
      <trkpt lat="45.37909923121333" lon="6.18589885532856">
        <time>2023-05-03T12:38:40+00:00</time>
        <ele>1456.0</ele>
      </trkpt>
      <trkpt lat="45.37922571413219" lon="6.185908829793334">
        <time>2023-05-03T12:38:59+00:00</time>
        <ele>1455.0</ele>
      </trkpt>
      <trkpt lat="45.379276340827346" lon="6.185829704627395">
        <time>2023-05-03T12:39:07+00:00</time>
        <ele>1453.0</ele>
      </trkpt>
      <trkpt lat="45.379383377730846" lon="6.185696851462126">
        <time>2023-05-03T12:39:20+00:00</time>
        <ele>1448.0</ele>
      </trkpt>
      <trkpt lat="45.379480607807636" lon="6.185602135956287">
        <time>2023-05-03T12:39:31+00:00</time>
        <ele>1445.0</ele>
      </trkpt>
      <trkpt lat="45.37955990061164" lon="6.185526866465807">
        <time>2023-05-03T12:39:40+00:00</time>
        <ele>1442.0</ele>
      </trkpt>
      <trkpt lat="45.37955990061164" lon="6.185526866465807">
        <time>2023-05-03T12:39:40+00:00</time>
        <ele>1442.0</ele>
      </trkpt>
      <trkpt lat="45.37961748428643" lon="6.18536333553493">
        <time>2023-05-03T12:39:50+00:00</time>
        <ele>1437.0</ele>
      </trkpt>
      <trkpt lat="45.37964891642332" lon="6.185347326099873">
        <time>2023-05-03T12:39:56+00:00</time>
        <ele>1436.0</ele>
      </trkpt>
      <trkpt lat="45.379673978313804" lon="6.185338441282511">
        <time>2023-05-03T12:40:00+00:00</time>
        <ele>1435.0</ele>
      </trkpt>
      <trkpt lat="45.3796895686537" lon="6.185337100178003">
        <time>2023-05-03T12:40:02+00:00</time>
        <ele>1435.0</ele>
      </trkpt>
      <trkpt lat="45.379765927791595" lon="6.18527976796031">
        <time>2023-05-03T12:40:07+00:00</time>
        <ele>1433.0</ele>
      </trkpt>
      <trkpt lat="45.37999542430043" lon="6.185201313346624">
        <time>2023-05-03T12:40:18+00:00</time>
        <ele>1427.0</ele>
      </trkpt>
      <trkpt lat="45.38011319003999" lon="6.185178849846125">
        <time>2023-05-03T12:40:27+00:00</time>
        <ele>1426.0</ele>
      </trkpt>
      <trkpt lat="45.38020555861294" lon="6.185129983350635">
        <time>2023-05-03T12:40:36+00:00</time>
        <ele>1424.0</ele>
      </trkpt>
      <trkpt lat="45.380285354331136" lon="6.185075249522924">
        <time>2023-05-03T12:40:48+00:00</time>
        <ele>1421.0</ele>
      </trkpt>
      <trkpt lat="45.38030714727938" lon="6.185072064399719">
        <time>2023-05-03T12:40:50+00:00</time>
        <ele>1421.0</ele>
      </trkpt>
      <trkpt lat="45.38041200488806" lon="6.185038536787033">
        <time>2023-05-03T12:41:03+00:00</time>
        <ele>1418.0</ele>
      </trkpt>
      <trkpt lat="45.38046430796385" lon="6.184988832101226">
        <time>2023-05-03T12:41:09+00:00</time>
        <ele>1416.0</ele>
      </trkpt>
      <trkpt lat="45.38064183667302" lon="6.184873580932617">
        <time>2023-05-03T12:41:19+00:00</time>
        <ele>1410.0</ele>
      </trkpt>
      <trkpt lat="45.38078055717051" lon="6.184768136590719">
        <time>2023-05-03T12:41:32+00:00</time>
        <ele>1408.0</ele>
      </trkpt>
      <trkpt lat="45.380919529125094" lon="6.184701668098569">
        <time>2023-05-03T12:41:43+00:00</time>
        <ele>1405.0</ele>
      </trkpt>
      <trkpt lat="45.38103452883661" lon="6.184641821309924">
        <time>2023-05-03T12:41:55+00:00</time>
        <ele>1402.0</ele>
      </trkpt>
      <trkpt lat="45.38118741475046" lon="6.184556744992733">
        <time>2023-05-03T12:42:09+00:00</time>
        <ele>1399.0</ele>
      </trkpt>
      <trkpt lat="45.38126486353576" lon="6.184562109410763">
        <time>2023-05-03T12:42:15+00:00</time>
        <ele>1398.0</ele>
      </trkpt>
      <trkpt lat="45.38134281523526" lon="6.184541238471866">
        <time>2023-05-03T12:42:21+00:00</time>
        <ele>1397.0</ele>
      </trkpt>
      <trkpt lat="45.381514644250274" lon="6.184542076662183">
        <time>2023-05-03T12:42:38+00:00</time>
        <ele>1394.0</ele>
      </trkpt>
      <trkpt lat="45.38166400976479" lon="6.184513159096241">
        <time>2023-05-03T12:42:51+00:00</time>
        <ele>1391.0</ele>
      </trkpt>
      <trkpt lat="45.38173391483724" lon="6.184477200731635">
        <time>2023-05-03T12:42:56+00:00</time>
        <ele>1390.0</ele>
      </trkpt>
      <trkpt lat="45.381889482960105" lon="6.184389190748334">
        <time>2023-05-03T12:43:09+00:00</time>
        <ele>1387.0</ele>
      </trkpt>
      <trkpt lat="45.38202987983823" lon="6.184305204078555">
        <time>2023-05-03T12:43:22+00:00</time>
        <ele>1385.0</ele>
      </trkpt>
      <trkpt lat="45.38213582709432" lon="6.184235969558358">
        <time>2023-05-03T12:43:35+00:00</time>
        <ele>1382.0</ele>
      </trkpt>
      <trkpt lat="45.38220447488129" lon="6.184231527149677">
        <time>2023-05-03T12:43:49+00:00</time>
        <ele>1381.0</ele>
      </trkpt>
      <trkpt lat="45.382266249507666" lon="6.184254074469209">
        <time>2023-05-03T12:44:03+00:00</time>
        <ele>1381.0</ele>
      </trkpt>
      <trkpt lat="45.382410921156406" lon="6.184277459979057">
        <time>2023-05-03T12:44:20+00:00</time>
        <ele>1378.0</ele>
      </trkpt>
      <trkpt lat="45.382611248642206" lon="6.184208309277892">
        <time>2023-05-03T12:44:37+00:00</time>
        <ele>1372.0</ele>
      </trkpt>
      <trkpt lat="45.38275717757642" lon="6.184175703674555">
        <time>2023-05-03T12:44:50+00:00</time>
        <ele>1369.0</ele>
      </trkpt>
      <trkpt lat="45.382804200053215" lon="6.18406405672431">
        <time>2023-05-03T12:45:02+00:00</time>
        <ele>1365.0</ele>
      </trkpt>
      <trkpt lat="45.382815012708306" lon="6.184004964306951">
        <time>2023-05-03T12:45:07+00:00</time>
        <ele>1364.0</ele>
      </trkpt>
      <trkpt lat="45.38288475014269" lon="6.18388082832098">
        <time>2023-05-03T12:45:19+00:00</time>
        <ele>1359.0</ele>
      </trkpt>
      <trkpt lat="45.38291232660413" lon="6.183841098099947">
        <time>2023-05-03T12:45:33+00:00</time>
        <ele>1357.0</ele>
      </trkpt>
      <trkpt lat="45.383020704612136" lon="6.183883929625154">
        <time>2023-05-03T12:46:03+00:00</time>
        <ele>1355.0</ele>
      </trkpt>
      <trkpt lat="45.383156491443515" lon="6.183995576575398">
        <time>2023-05-03T12:46:19+00:00</time>
        <ele>1355.0</ele>
      </trkpt>
      <trkpt lat="45.38330476731062" lon="6.184002449735999">
        <time>2023-05-03T12:46:39+00:00</time>
        <ele>1353.0</ele>
      </trkpt>
      <trkpt lat="45.38337257690728" lon="6.184075204655528">
        <time>2023-05-03T12:46:52+00:00</time>
        <ele>1355.0</ele>
      </trkpt>
      <trkpt lat="45.383390011265874" lon="6.184079479426146">
        <time>2023-05-03T12:46:54+00:00</time>
        <ele>1355.0</ele>
      </trkpt>
      <trkpt lat="45.38341817446053" lon="6.184087861329317">
        <time>2023-05-03T12:46:57+00:00</time>
        <ele>1355.0</ele>
      </trkpt>
      <trkpt lat="45.38359209895134" lon="6.184049053117633">
        <time>2023-05-03T12:47:14+00:00</time>
        <ele>1351.0</ele>
      </trkpt>
      <trkpt lat="45.383653454482555" lon="6.184041844680905">
        <time>2023-05-03T12:47:20+00:00</time>
        <ele>1349.0</ele>
      </trkpt>
      <trkpt lat="45.383716486394405" lon="6.184047209098935">
        <time>2023-05-03T12:47:25+00:00</time>
        <ele>1349.0</ele>
      </trkpt>
      <trkpt lat="45.38381405174732" lon="6.183987697586417">
        <time>2023-05-03T12:47:37+00:00</time>
        <ele>1345.0</ele>
      </trkpt>
      <trkpt lat="45.38388320244849" lon="6.183919049799442">
        <time>2023-05-03T12:47:46+00:00</time>
        <ele>1342.0</ele>
      </trkpt>
      <trkpt lat="45.38391270674765" lon="6.183894323185086">
        <time>2023-05-03T12:47:50+00:00</time>
        <ele>1340.0</ele>
      </trkpt>
      <trkpt lat="45.383978337049484" lon="6.183810839429498">
        <time>2023-05-03T12:48:02+00:00</time>
        <ele>1337.0</ele>
      </trkpt>
      <trkpt lat="45.384072130545974" lon="6.183676393702626">
        <time>2023-05-03T12:48:13+00:00</time>
        <ele>1331.0</ele>
      </trkpt>
      <trkpt lat="45.38413541391492" lon="6.18361352942884">
        <time>2023-05-03T12:48:21+00:00</time>
        <ele>1328.0</ele>
      </trkpt>
      <trkpt lat="45.38417170755565" lon="6.183581678196788">
        <time>2023-05-03T12:48:24+00:00</time>
        <ele>1327.0</ele>
      </trkpt>
      <trkpt lat="45.384341441094875" lon="6.183519987389445">
        <time>2023-05-03T12:48:40+00:00</time>
        <ele>1327.0</ele>
      </trkpt>
      <trkpt lat="45.384391732513905" lon="6.183444550260902">
        <time>2023-05-03T12:48:50+00:00</time>
        <ele>1325.0</ele>
      </trkpt>
      <trkpt lat="45.38441017270088" lon="6.183361820876598">
        <time>2023-05-03T12:48:58+00:00</time>
        <ele>1323.0</ele>
      </trkpt>
      <trkpt lat="45.3845074865967" lon="6.183277582749724">
        <time>2023-05-03T12:49:06+00:00</time>
        <ele>1323.0</ele>
      </trkpt>
      <trkpt lat="45.38452785462141" lon="6.183249168097973">
        <time>2023-05-03T12:49:10+00:00</time>
        <ele>1322.0</ele>
      </trkpt>
      <trkpt lat="45.38453648798168" lon="6.183066526427865">
        <time>2023-05-03T12:49:25+00:00</time>
        <ele>1317.0</ele>
      </trkpt>
      <trkpt lat="45.38453279994428" lon="6.1830526124686">
        <time>2023-05-03T12:49:28+00:00</time>
        <ele>1317.0</ele>
      </trkpt>
      <trkpt lat="45.3844974283129" lon="6.182947671040893">
        <time>2023-05-03T12:49:43+00:00</time>
        <ele>1313.0</ele>
      </trkpt>
      <trkpt lat="45.384497344493866" lon="6.182941803708673">
        <time>2023-05-03T12:49:45+00:00</time>
        <ele>1313.0</ele>
      </trkpt>
      <trkpt lat="45.38449256680906" lon="6.1829196754843">
        <time>2023-05-03T12:49:49+00:00</time>
        <ele>1312.0</ele>
      </trkpt>
      <trkpt lat="45.384465577080846" lon="6.18279897607863">
        <time>2023-05-03T12:49:55+00:00</time>
        <ele>1308.0</ele>
      </trkpt>
      <trkpt lat="45.384556939825416" lon="6.182604180648923">
        <time>2023-05-03T12:51:17+00:00</time>
        <ele>1305.0</ele>
      </trkpt>
      <trkpt lat="45.38464184850454" lon="6.182474093511701">
        <time>2023-05-03T12:51:45+00:00</time>
        <ele>1303.0</ele>
      </trkpt>
      <trkpt lat="45.38470664061606" lon="6.18240712210536">
        <time>2023-05-03T12:51:51+00:00</time>
        <ele>1302.0</ele>
      </trkpt>
      <trkpt lat="45.3847305290401" lon="6.182339061051607">
        <time>2023-05-03T12:51:59+00:00</time>
        <ele>1300.0</ele>
      </trkpt>
      <trkpt lat="45.38482390344143" lon="6.182188857346773">
        <time>2023-05-03T12:52:12+00:00</time>
        <ele>1296.0</ele>
      </trkpt>
      <trkpt lat="45.38494711741805" lon="6.182092633098364">
        <time>2023-05-03T12:52:22+00:00</time>
        <ele>1294.0</ele>
      </trkpt>
      <trkpt lat="45.38490763865411" lon="6.181883923709393">
        <time>2023-05-03T13:00:27+00:00</time>
        <ele>1288.0</ele>
      </trkpt>
      <trkpt lat="45.385025069117546" lon="6.18191946297884">
        <time>2023-05-03T13:02:23+00:00</time>
        <ele>1290.0</ele>
      </trkpt>
      <trkpt lat="45.38503655232489" lon="6.18190823122859">
        <time>2023-05-03T13:02:26+00:00</time>
        <ele>1290.0</ele>
      </trkpt>
      <trkpt lat="45.38516337051988" lon="6.181834638118744">
        <time>2023-05-03T13:02:33+00:00</time>
        <ele>1289.0</ele>
      </trkpt>
      <trkpt lat="45.38527350872755" lon="6.181784346699715">
        <time>2023-05-03T13:02:37+00:00</time>
        <ele>1288.0</ele>
      </trkpt>
      <trkpt lat="45.38543192669749" lon="6.181743023917079">
        <time>2023-05-03T13:02:42+00:00</time>
        <ele>1288.0</ele>
      </trkpt>
      <trkpt lat="45.38572747260332" lon="6.181647973135114">
        <time>2023-05-03T13:02:51+00:00</time>
        <ele>1286.0</ele>
      </trkpt>
      <trkpt lat="45.385879604145885" lon="6.1815847735852">
        <time>2023-05-03T13:02:56+00:00</time>
        <ele>1282.0</ele>
      </trkpt>
      <trkpt lat="45.38610029965639" lon="6.181527273729444">
        <time>2023-05-03T13:03:02+00:00</time>
        <ele>1278.0</ele>
      </trkpt>
      <trkpt lat="45.38615402765572" lon="6.181502547115088">
        <time>2023-05-03T13:03:04+00:00</time>
        <ele>1278.0</ele>
      </trkpt>
      <trkpt lat="45.38618487305939" lon="6.181443203240633">
        <time>2023-05-03T13:03:08+00:00</time>
        <ele>1276.0</ele>
      </trkpt>
      <trkpt lat="45.386069202795625" lon="6.181440856307745">
        <time>2023-05-03T13:03:16+00:00</time>
        <ele>1276.0</ele>
      </trkpt>
      <trkpt lat="45.38579645566642" lon="6.181422583758831">
        <time>2023-05-03T13:03:29+00:00</time>
        <ele>1277.0</ele>
      </trkpt>
      <trkpt lat="45.38544508628547" lon="6.181416716426611">
        <time>2023-05-03T13:03:44+00:00</time>
        <ele>1278.0</ele>
      </trkpt>
      <trkpt lat="45.3850809764117" lon="6.18135561235249">
        <time>2023-05-03T13:03:58+00:00</time>
        <ele>1276.0</ele>
      </trkpt>
      <trkpt lat="45.384742598980665" lon="6.181334741413593">
        <time>2023-05-03T13:04:11+00:00</time>
        <ele>1273.0</ele>
      </trkpt>
      <trkpt lat="45.38451955653727" lon="6.181513024494052">
        <time>2023-05-03T13:04:24+00:00</time>
        <ele>1276.0</ele>
      </trkpt>
      <trkpt lat="45.384353175759315" lon="6.181511431932449">
        <time>2023-05-03T13:04:34+00:00</time>
        <ele>1275.0</ele>
      </trkpt>
      <trkpt lat="45.384270111098886" lon="6.181552419438958">
        <time>2023-05-03T13:04:48+00:00</time>
        <ele>1275.0</ele>
      </trkpt>
      <trkpt lat="45.38425334729254" lon="6.181567423045635">
        <time>2023-05-03T13:05:02+00:00</time>
        <ele>1275.0</ele>
      </trkpt>
      <trkpt lat="45.384189896285534" lon="6.181547557935119">
        <time>2023-05-03T13:05:36+00:00</time>
        <ele>1275.0</ele>
      </trkpt>
      <trkpt lat="45.38413658738136" lon="6.181463990360498">
        <time>2023-05-03T13:05:50+00:00</time>
        <ele>1276.0</ele>
      </trkpt>
      <trkpt lat="45.38409585133195" lon="6.181424595415592">
        <time>2023-05-03T13:06:04+00:00</time>
        <ele>1277.0</ele>
      </trkpt>
      <trkpt lat="45.38409442640841" lon="6.181386709213257">
        <time>2023-05-03T13:06:10+00:00</time>
        <ele>1277.0</ele>
      </trkpt>
      <trkpt lat="45.38411973975599" lon="6.181334741413593">
        <time>2023-05-03T13:06:13+00:00</time>
        <ele>1277.0</ele>
      </trkpt>
      <trkpt lat="45.384141532704234" lon="6.18131261318922">
        <time>2023-05-03T13:06:14+00:00</time>
        <ele>1277.0</ele>
      </trkpt>
      <trkpt lat="45.38416776806116" lon="6.181289562955499">
        <time>2023-05-03T13:06:15+00:00</time>
        <ele>1277.0</ele>
      </trkpt>
      <trkpt lat="45.384197272360325" lon="6.181266764178872">
        <time>2023-05-03T13:06:16+00:00</time>
        <ele>1276.0</ele>
      </trkpt>
      <trkpt lat="45.38449751213193" lon="6.1809441447258">
        <time>2023-05-03T13:06:25+00:00</time>
        <ele>1271.0</ele>
      </trkpt>
      <trkpt lat="45.384540846571326" lon="6.180903827771545">
        <time>2023-05-03T13:06:26+00:00</time>
        <ele>1270.0</ele>
      </trkpt>
      <trkpt lat="45.38458409719169" lon="6.180863343179226">
        <time>2023-05-03T13:06:27+00:00</time>
        <ele>1269.0</ele>
      </trkpt>
      <trkpt lat="45.38462642580271" lon="6.18082445114851">
        <time>2023-05-03T13:06:28+00:00</time>
        <ele>1269.0</ele>
      </trkpt>
      <trkpt lat="45.38467034697533" lon="6.180785223841667">
        <time>2023-05-03T13:06:29+00:00</time>
        <ele>1269.0</ele>
      </trkpt>
      <trkpt lat="45.38471560925245" lon="6.180749097838998">
        <time>2023-05-03T13:06:30+00:00</time>
        <ele>1269.0</ele>
      </trkpt>
      <trkpt lat="45.38476497866213" lon="6.180724622681737">
        <time>2023-05-03T13:06:31+00:00</time>
        <ele>1268.0</ele>
      </trkpt>
      <trkpt lat="45.38482113741338" lon="6.180706853047013">
        <time>2023-05-03T13:06:32+00:00</time>
        <ele>1267.0</ele>
      </trkpt>
      <trkpt lat="45.384883247315884" lon="6.180697130039334">
        <time>2023-05-03T13:06:33+00:00</time>
        <ele>1266.0</ele>
      </trkpt>
      <trkpt lat="45.38494451902807" lon="6.180705595761538">
        <time>2023-05-03T13:06:34+00:00</time>
        <ele>1266.0</ele>
      </trkpt>
      <trkpt lat="45.38500428199768" lon="6.180725879967213">
        <time>2023-05-03T13:06:35+00:00</time>
        <ele>1265.0</ele>
      </trkpt>
      <trkpt lat="45.385060189291835" lon="6.180749936029315">
        <time>2023-05-03T13:06:36+00:00</time>
        <ele>1265.0</ele>
      </trkpt>
      <trkpt lat="45.38521718233824" lon="6.180814225226641">
        <time>2023-05-03T13:06:39+00:00</time>
        <ele>1263.0</ele>
      </trkpt>
      <trkpt lat="45.38536721840501" lon="6.180891757830977">
        <time>2023-05-03T13:06:42+00:00</time>
        <ele>1260.0</ele>
      </trkpt>
      <trkpt lat="45.38541776128113" lon="6.180902235209942">
        <time>2023-05-03T13:06:43+00:00</time>
        <ele>1260.0</ele>
      </trkpt>
      <trkpt lat="45.38551717065275" lon="6.18090114556253">
        <time>2023-05-03T13:06:45+00:00</time>
        <ele>1259.0</ele>
      </trkpt>
      <trkpt lat="45.38557316176593" lon="6.180889997631311">
        <time>2023-05-03T13:06:46+00:00</time>
        <ele>1258.0</ele>
      </trkpt>
      <trkpt lat="45.385627476498485" lon="6.180868204683065">
        <time>2023-05-03T13:06:47+00:00</time>
        <ele>1258.0</ele>
      </trkpt>
      <trkpt lat="45.38567617535591" lon="6.180830737575889">
        <time>2023-05-03T13:06:48+00:00</time>
        <ele>1258.0</ele>
      </trkpt>
      <trkpt lat="45.385725712403655" lon="6.180793102830648">
        <time>2023-05-03T13:06:49+00:00</time>
        <ele>1258.0</ele>
      </trkpt>
      <trkpt lat="45.38577592000365" lon="6.180765777826309">
        <time>2023-05-03T13:06:50+00:00</time>
        <ele>1258.0</ele>
      </trkpt>
      <trkpt lat="45.38582562468946" lon="6.180741135030985">
        <time>2023-05-03T13:06:51+00:00</time>
        <ele>1257.0</ele>
      </trkpt>
      <trkpt lat="45.38587792776525" lon="6.180723616853356">
        <time>2023-05-03T13:06:52+00:00</time>
        <ele>1257.0</ele>
      </trkpt>
      <trkpt lat="45.38599577732384" lon="6.180710373446345">
        <time>2023-05-03T13:06:54+00:00</time>
        <ele>1255.0</ele>
      </trkpt>
      <trkpt lat="45.38604933768511" lon="6.180706936866045">
        <time>2023-05-03T13:06:55+00:00</time>
        <ele>1255.0</ele>
      </trkpt>
      <trkpt lat="45.38615059107542" lon="6.180688580498099">
        <time>2023-05-03T13:06:57+00:00</time>
        <ele>1253.0</ele>
      </trkpt>
      <trkpt lat="45.38626751862466" lon="6.180641390383244">
        <time>2023-05-03T13:06:59+00:00</time>
        <ele>1250.0</ele>
      </trkpt>
      <trkpt lat="45.386385871097445" lon="6.180559080094099">
        <time>2023-05-03T13:07:01+00:00</time>
        <ele>1249.0</ele>
      </trkpt>
      <trkpt lat="45.38644286803901" lon="6.180504010990262">
        <time>2023-05-03T13:07:02+00:00</time>
        <ele>1249.0</ele>
      </trkpt>
      <trkpt lat="45.386572033166885" lon="6.180379958823323">
        <time>2023-05-03T13:07:04+00:00</time>
        <ele>1247.0</ele>
      </trkpt>
      <trkpt lat="45.38664420135319" lon="6.180330337956548">
        <time>2023-05-03T13:07:05+00:00</time>
        <ele>1246.0</ele>
      </trkpt>
      <trkpt lat="45.386722991243005" lon="6.180291278287768">
        <time>2023-05-03T13:07:06+00:00</time>
        <ele>1245.0</ele>
      </trkpt>
      <trkpt lat="45.38680085912347" lon="6.180269066244364">
        <time>2023-05-03T13:07:07+00:00</time>
        <ele>1244.0</ele>
      </trkpt>
      <trkpt lat="45.38688006810844" lon="6.180248614400625">
        <time>2023-05-03T13:07:08+00:00</time>
        <ele>1244.0</ele>
      </trkpt>
      <trkpt lat="45.386953577399254" lon="6.18021902628243">
        <time>2023-05-03T13:07:09+00:00</time>
        <ele>1243.0</ele>
      </trkpt>
      <trkpt lat="45.38702457211912" lon="6.180177452042699">
        <time>2023-05-03T13:07:10+00:00</time>
        <ele>1242.0</ele>
      </trkpt>
      <trkpt lat="45.38709590211511" lon="6.180132189765573">
        <time>2023-05-03T13:07:11+00:00</time>
        <ele>1241.0</ele>
      </trkpt>
      <trkpt lat="45.387454982846975" lon="6.179935885593295">
        <time>2023-05-03T13:07:16+00:00</time>
        <ele>1238.0</ele>
      </trkpt>
      <trkpt lat="45.387990502640605" lon="6.179615948349237">
        <time>2023-05-03T13:07:23+00:00</time>
        <ele>1235.0</ele>
      </trkpt>
      <trkpt lat="45.38823961280286" lon="6.179445460438728">
        <time>2023-05-03T13:07:26+00:00</time>
        <ele>1232.0</ele>
      </trkpt>
      <trkpt lat="45.38855175487697" lon="6.179230632260442">
        <time>2023-05-03T13:07:30+00:00</time>
        <ele>1229.0</ele>
      </trkpt>
      <trkpt lat="45.388630628585815" lon="6.179210934787989">
        <time>2023-05-03T13:07:31+00:00</time>
        <ele>1228.0</ele>
      </trkpt>
      <trkpt lat="45.38870849646628" lon="6.179213114082813">
        <time>2023-05-03T13:07:32+00:00</time>
        <ele>1227.0</ele>
      </trkpt>
      <trkpt lat="45.38886867463589" lon="6.17923591285944">
        <time>2023-05-03T13:07:34+00:00</time>
        <ele>1225.0</ele>
      </trkpt>
      <trkpt lat="45.388955008238554" lon="6.17922954261303">
        <time>2023-05-03T13:07:35+00:00</time>
        <ele>1225.0</ele>
      </trkpt>
      <trkpt lat="45.38904167711735" lon="6.179208336398006">
        <time>2023-05-03T13:07:36+00:00</time>
        <ele>1225.0</ele>
      </trkpt>
      <trkpt lat="45.389128010720015" lon="6.179176988080144">
        <time>2023-05-03T13:07:37+00:00</time>
        <ele>1225.0</ele>
      </trkpt>
      <trkpt lat="45.389213003218174" lon="6.179138515144587">
        <time>2023-05-03T13:07:38+00:00</time>
        <ele>1223.0</ele>
      </trkpt>
      <trkpt lat="45.389296654611826" lon="6.17908688262105">
        <time>2023-05-03T13:07:39+00:00</time>
        <ele>1222.0</ele>
      </trkpt>
      <trkpt lat="45.38945993408561" lon="6.17898378521204">
        <time>2023-05-03T13:07:41+00:00</time>
        <ele>1219.0</ele>
      </trkpt>
      <trkpt lat="45.38954517804086" lon="6.178958052769303">
        <time>2023-05-03T13:07:42+00:00</time>
        <ele>1218.0</ele>
      </trkpt>
      <trkpt lat="45.38963310420513" lon="6.178944306448102">
        <time>2023-05-03T13:07:43+00:00</time>
        <ele>1217.0</ele>
      </trkpt>
      <trkpt lat="45.38972790353" lon="6.178940534591675">
        <time>2023-05-03T13:07:44+00:00</time>
        <ele>1216.0</ele>
      </trkpt>
      <trkpt lat="45.389821445569396" lon="6.178939612582326">
        <time>2023-05-03T13:07:45+00:00</time>
        <ele>1215.0</ele>
      </trkpt>
      <trkpt lat="45.390008026733994" lon="6.178917735815048">
        <time>2023-05-03T13:07:47+00:00</time>
        <ele>1213.0</ele>
      </trkpt>
      <trkpt lat="45.390102406963706" lon="6.178896864876151">
        <time>2023-05-03T13:07:48+00:00</time>
        <ele>1212.0</ele>
      </trkpt>
      <trkpt lat="45.390465427190065" lon="6.178841879591346">
        <time>2023-05-03T13:07:52+00:00</time>
        <ele>1208.0</ele>
      </trkpt>
      <trkpt lat="45.39064303971827" lon="6.178797455504537">
        <time>2023-05-03T13:07:54+00:00</time>
        <ele>1207.0</ele>
      </trkpt>
      <trkpt lat="45.39080472663045" lon="6.178729645907879">
        <time>2023-05-03T13:07:56+00:00</time>
        <ele>1205.0</ele>
      </trkpt>
      <trkpt lat="45.39088737219572" lon="6.178668206557632">
        <time>2023-05-03T13:07:57+00:00</time>
        <ele>1204.0</ele>
      </trkpt>
      <trkpt lat="45.39112734608352" lon="6.178455138579011">
        <time>2023-05-03T13:08:00+00:00</time>
        <ele>1202.0</ele>
      </trkpt>
      <trkpt lat="45.3913323674351" lon="6.178192114457488">
        <time>2023-05-03T13:08:03+00:00</time>
        <ele>1200.0</ele>
      </trkpt>
      <trkpt lat="45.39138467051089" lon="6.178084323182702">
        <time>2023-05-03T13:08:04+00:00</time>
        <ele>1199.0</ele>
      </trkpt>
      <trkpt lat="45.39152858778834" lon="6.177734127268195">
        <time>2023-05-03T13:08:07+00:00</time>
        <ele>1197.0</ele>
      </trkpt>
      <trkpt lat="45.39158541709185" lon="6.177636813372374">
        <time>2023-05-03T13:08:08+00:00</time>
        <ele>1196.0</ele>
      </trkpt>
      <trkpt lat="45.39165071211755" lon="6.177554000169039">
        <time>2023-05-03T13:08:09+00:00</time>
        <ele>1196.0</ele>
      </trkpt>
      <trkpt lat="45.391801754012704" lon="6.177416704595089">
        <time>2023-05-03T13:08:11+00:00</time>
        <ele>1194.0</ele>
      </trkpt>
      <trkpt lat="45.39188892580569" lon="6.177373705431819">
        <time>2023-05-03T13:08:12+00:00</time>
        <ele>1194.0</ele>
      </trkpt>
      <trkpt lat="45.392228811979294" lon="6.177209503948689">
        <time>2023-05-03T13:08:16+00:00</time>
        <ele>1192.0</ele>
      </trkpt>
      <trkpt lat="45.39237759076059" lon="6.177102383226156">
        <time>2023-05-03T13:08:18+00:00</time>
        <ele>1191.0</ele>
      </trkpt>
      <trkpt lat="45.39252854883671" lon="6.177020743489265">
        <time>2023-05-03T13:08:20+00:00</time>
        <ele>1191.0</ele>
      </trkpt>
      <trkpt lat="45.39260926656425" lon="6.177006410434842">
        <time>2023-05-03T13:08:21+00:00</time>
        <ele>1190.0</ele>
      </trkpt>
      <trkpt lat="45.39268696680665" lon="6.177016887813807">
        <time>2023-05-03T13:08:22+00:00</time>
        <ele>1189.0</ele>
      </trkpt>
      <trkpt lat="45.39275678806007" lon="6.177045218646526">
        <time>2023-05-03T13:08:23+00:00</time>
        <ele>1188.0</ele>
      </trkpt>
      <trkpt lat="45.392818646505475" lon="6.177087044343352">
        <time>2023-05-03T13:08:24+00:00</time>
        <ele>1187.0</ele>
      </trkpt>
      <trkpt lat="45.392875811085105" lon="6.177134653553367">
        <time>2023-05-03T13:08:25+00:00</time>
        <ele>1186.0</ele>
      </trkpt>
      <trkpt lat="45.39311209693551" lon="6.177301201969385">
        <time>2023-05-03T13:08:30+00:00</time>
        <ele>1186.0</ele>
      </trkpt>
      <trkpt lat="45.39319767616689" lon="6.177336573600769">
        <time>2023-05-03T13:08:32+00:00</time>
        <ele>1185.0</ele>
      </trkpt>
      <trkpt lat="45.39323799312115" lon="6.17734101600945">
        <time>2023-05-03T13:08:33+00:00</time>
        <ele>1185.0</ele>
      </trkpt>
      <trkpt lat="45.39353856816888" lon="6.177162984386087">
        <time>2023-05-03T13:08:43+00:00</time>
        <ele>1186.0</ele>
      </trkpt>
      <trkpt lat="45.39378382265568" lon="6.176605504006147">
        <time>2023-05-03T13:08:55+00:00</time>
        <ele>1187.0</ele>
      </trkpt>
      <trkpt lat="45.393937127664685" lon="6.176374834030867">
        <time>2023-05-03T13:08:59+00:00</time>
        <ele>1183.0</ele>
      </trkpt>
      <trkpt lat="45.39405137300491" lon="6.176266372203827">
        <time>2023-05-03T13:09:01+00:00</time>
        <ele>1181.0</ele>
      </trkpt>
      <trkpt lat="45.394113482907414" lon="6.176218343898654">
        <time>2023-05-03T13:09:02+00:00</time>
        <ele>1179.0</ele>
      </trkpt>
      <trkpt lat="45.39451782591641" lon="6.17593034170568">
        <time>2023-05-03T13:09:08+00:00</time>
        <ele>1171.0</ele>
      </trkpt>
      <trkpt lat="45.39456635713577" lon="6.175867980346084">
        <time>2023-05-03T13:09:09+00:00</time>
        <ele>1170.0</ele>
      </trkpt>
      <trkpt lat="45.39459954947233" lon="6.175790950655937">
        <time>2023-05-03T13:09:10+00:00</time>
        <ele>1170.0</ele>
      </trkpt>
      <trkpt lat="45.394614301621914" lon="6.175694558769465">
        <time>2023-05-03T13:09:11+00:00</time>
        <ele>1171.0</ele>
      </trkpt>
      <trkpt lat="45.394617235288024" lon="6.175591628998518">
        <time>2023-05-03T13:09:12+00:00</time>
        <ele>1172.0</ele>
      </trkpt>
      <trkpt lat="45.394611954689026" lon="6.175487861037254">
        <time>2023-05-03T13:09:13+00:00</time>
        <ele>1173.0</ele>
      </trkpt>
      <trkpt lat="45.3946029022336" lon="6.175374118611217">
        <time>2023-05-03T13:09:14+00:00</time>
        <ele>1172.0</ele>
      </trkpt>
      <trkpt lat="45.39459862746298" lon="6.175255598500371">
        <time>2023-05-03T13:09:15+00:00</time>
        <ele>1172.0</ele>
      </trkpt>
      <trkpt lat="45.39460960775614" lon="6.175141939893365">
        <time>2023-05-03T13:09:16+00:00</time>
        <ele>1170.0</ele>
      </trkpt>
      <trkpt lat="45.394642716273665" lon="6.175035489723086">
        <time>2023-05-03T13:09:17+00:00</time>
        <ele>1168.0</ele>
      </trkpt>
      <trkpt lat="45.39469166658819" lon="6.174937505275011">
        <time>2023-05-03T13:09:18+00:00</time>
        <ele>1166.0</ele>
      </trkpt>
      <trkpt lat="45.3947532735765" lon="6.174846980720758">
        <time>2023-05-03T13:09:19+00:00</time>
        <ele>1163.0</ele>
      </trkpt>
      <trkpt lat="45.39481873624027" lon="6.174753606319428">
        <time>2023-05-03T13:09:20+00:00</time>
        <ele>1161.0</ele>
      </trkpt>
      <trkpt lat="45.395006239414215" lon="6.174479182809591">
        <time>2023-05-03T13:09:23+00:00</time>
        <ele>1158.0</ele>
      </trkpt>
      <trkpt lat="45.39505795575678" lon="6.174372648820281">
        <time>2023-05-03T13:09:24+00:00</time>
        <ele>1158.0</ele>
      </trkpt>
      <trkpt lat="45.39511151611805" lon="6.174269299954176">
        <time>2023-05-03T13:09:25+00:00</time>
        <ele>1157.0</ele>
      </trkpt>
      <trkpt lat="45.39528116583824" lon="6.174042485654354">
        <time>2023-05-03T13:09:28+00:00</time>
        <ele>1154.0</ele>
      </trkpt>
      <trkpt lat="45.39547445252538" lon="6.173903262242675">
        <time>2023-05-03T13:09:32+00:00</time>
        <ele>1152.0</ele>
      </trkpt>
      <trkpt lat="45.395569587126374" lon="6.173780215904117">
        <time>2023-05-03T13:09:36+00:00</time>
        <ele>1152.0</ele>
      </trkpt>
      <trkpt lat="45.39571601897478" lon="6.173633867874742">
        <time>2023-05-03T13:09:42+00:00</time>
        <ele>1153.0</ele>
      </trkpt>
      <trkpt lat="45.39582154713571" lon="6.173494644463062">
        <time>2023-05-03T13:09:45+00:00</time>
        <ele>1152.0</ele>
      </trkpt>
      <trkpt lat="45.39589136838913" lon="6.173371011391282">
        <time>2023-05-03T13:09:47+00:00</time>
        <ele>1151.0</ele>
      </trkpt>
      <trkpt lat="45.39616210386157" lon="6.172745721414685">
        <time>2023-05-03T13:09:55+00:00</time>
        <ele>1147.0</ele>
      </trkpt>
      <trkpt lat="45.39622069336474" lon="6.172675900161266">
        <time>2023-05-03T13:09:56+00:00</time>
        <ele>1145.0</ele>
      </trkpt>
      <trkpt lat="45.396283557638526" lon="6.172608258202672">
        <time>2023-05-03T13:09:57+00:00</time>
        <ele>1144.0</ele>
      </trkpt>
      <trkpt lat="45.39682335220277" lon="6.172012304887176">
        <time>2023-05-03T13:10:05+00:00</time>
        <ele>1136.0</ele>
      </trkpt>
      <trkpt lat="45.3968704584986" lon="6.171935945749283">
        <time>2023-05-03T13:10:06+00:00</time>
        <ele>1136.0</ele>
      </trkpt>
      <trkpt lat="45.39690323174" lon="6.171845924109221">
        <time>2023-05-03T13:10:07+00:00</time>
        <ele>1137.0</ele>
      </trkpt>
      <trkpt lat="45.39698654785752" lon="6.171555491164327">
        <time>2023-05-03T13:10:10+00:00</time>
        <ele>1136.0</ele>
      </trkpt>
      <trkpt lat="45.397181091830134" lon="6.17112466134131">
        <time>2023-05-03T13:10:15+00:00</time>
        <ele>1134.0</ele>
      </trkpt>
      <trkpt lat="45.39723322726786" lon="6.171049224212766">
        <time>2023-05-03T13:10:16+00:00</time>
        <ele>1134.0</ele>
      </trkpt>
      <trkpt lat="45.397557355463505" lon="6.170605067163706">
        <time>2023-05-03T13:10:22+00:00</time>
        <ele>1127.0</ele>
      </trkpt>
      <trkpt lat="45.39763287641108" lon="6.170544549822807">
        <time>2023-05-03T13:10:23+00:00</time>
        <ele>1125.0</ele>
      </trkpt>
      <trkpt lat="45.39779112674296" lon="6.17042938247323">
        <time>2023-05-03T13:10:25+00:00</time>
        <ele>1123.0</ele>
      </trkpt>
      <trkpt lat="45.39786161854863" lon="6.170352185145021">
        <time>2023-05-03T13:10:26+00:00</time>
        <ele>1123.0</ele>
      </trkpt>
      <trkpt lat="45.3979236446321" lon="6.170262414962053">
        <time>2023-05-03T13:10:27+00:00</time>
        <ele>1123.0</ele>
      </trkpt>
      <trkpt lat="45.397978546097875" lon="6.17016795091331">
        <time>2023-05-03T13:10:28+00:00</time>
        <ele>1123.0</ele>
      </trkpt>
      <trkpt lat="45.39813989773393" lon="6.169870728626847">
        <time>2023-05-03T13:10:32+00:00</time>
        <ele>1124.0</ele>
      </trkpt>
      <trkpt lat="45.39817099459469" lon="6.169824795797467">
        <time>2023-05-03T13:10:33+00:00</time>
        <ele>1124.0</ele>
      </trkpt>
      <trkpt lat="45.3982053603977" lon="6.16978975944221">
        <time>2023-05-03T13:10:34+00:00</time>
        <ele>1125.0</ele>
      </trkpt>
      <trkpt lat="45.39824274368584" lon="6.169764529913664">
        <time>2023-05-03T13:10:35+00:00</time>
        <ele>1125.0</ele>
      </trkpt>
      <trkpt lat="45.39828046225011" lon="6.169742066413164">
        <time>2023-05-03T13:10:36+00:00</time>
        <ele>1125.0</ele>
      </trkpt>
      <trkpt lat="45.39850467815995" lon="6.169663947075605">
        <time>2023-05-03T13:10:41+00:00</time>
        <ele>1121.0</ele>
      </trkpt>
      <trkpt lat="45.39855916053057" lon="6.169627904891968">
        <time>2023-05-03T13:10:42+00:00</time>
        <ele>1121.0</ele>
      </trkpt>
      <trkpt lat="45.39861171506345" lon="6.169582894071937">
        <time>2023-05-03T13:10:43+00:00</time>
        <ele>1121.0</ele>
      </trkpt>
      <trkpt lat="45.398665107786655" lon="6.169525729492307">
        <time>2023-05-03T13:10:44+00:00</time>
        <ele>1121.0</ele>
      </trkpt>
      <trkpt lat="45.398722188547254" lon="6.169457836076617">
        <time>2023-05-03T13:10:45+00:00</time>
        <ele>1120.0</ele>
      </trkpt>
      <trkpt lat="45.39878077805042" lon="6.169387428089976">
        <time>2023-05-03T13:10:46+00:00</time>
        <ele>1120.0</ele>
      </trkpt>
      <trkpt lat="45.39890030398965" lon="6.169227417558432">
        <time>2023-05-03T13:10:48+00:00</time>
        <ele>1118.0</ele>
      </trkpt>
      <trkpt lat="45.398957300931215" lon="6.169123817235231">
        <time>2023-05-03T13:10:49+00:00</time>
        <ele>1117.0</ele>
      </trkpt>
      <trkpt lat="45.39907439611852" lon="6.168905971571803">
        <time>2023-05-03T13:10:51+00:00</time>
        <ele>1114.0</ele>
      </trkpt>
      <trkpt lat="45.399140948429704" lon="6.168812848627567">
        <time>2023-05-03T13:10:52+00:00</time>
        <ele>1112.0</ele>
      </trkpt>
      <trkpt lat="45.39930255152285" lon="6.168548315763474">
        <time>2023-05-03T13:10:55+00:00</time>
        <ele>1111.0</ele>
      </trkpt>
      <trkpt lat="45.399322835728526" lon="6.16844111122191">
        <time>2023-05-03T13:10:56+00:00</time>
        <ele>1111.0</ele>
      </trkpt>
      <trkpt lat="45.39932585321367" lon="6.168327201157808">
        <time>2023-05-03T13:10:57+00:00</time>
        <ele>1111.0</ele>
      </trkpt>
      <trkpt lat="45.39932258427143" lon="6.168089658021927">
        <time>2023-05-03T13:10:59+00:00</time>
        <ele>1111.0</ele>
      </trkpt>
      <trkpt lat="45.39933331310749" lon="6.167971640825272">
        <time>2023-05-03T13:11:00+00:00</time>
        <ele>1110.0</ele>
      </trkpt>
      <trkpt lat="45.39934077300131" lon="6.167854126542807">
        <time>2023-05-03T13:11:01+00:00</time>
        <ele>1109.0</ele>
      </trkpt>
      <trkpt lat="45.3993380907923" lon="6.167735857889056">
        <time>2023-05-03T13:11:02+00:00</time>
        <ele>1110.0</ele>
      </trkpt>
      <trkpt lat="45.3993378393352" lon="6.167614487931132">
        <time>2023-05-03T13:11:03+00:00</time>
        <ele>1109.0</ele>
      </trkpt>
      <trkpt lat="45.39935284294188" lon="6.167487585917115">
        <time>2023-05-03T13:11:04+00:00</time>
        <ele>1106.0</ele>
      </trkpt>
      <trkpt lat="45.39938553236425" lon="6.167360683903098">
        <time>2023-05-03T13:11:05+00:00</time>
        <ele>1103.0</ele>
      </trkpt>
      <trkpt lat="45.39943330921233" lon="6.167237386107445">
        <time>2023-05-03T13:11:06+00:00</time>
        <ele>1101.0</ele>
      </trkpt>
      <trkpt lat="45.39948762394488" lon="6.167115513235331">
        <time>2023-05-03T13:11:07+00:00</time>
        <ele>1098.0</ele>
      </trkpt>
      <trkpt lat="45.39963522925973" lon="6.166762886568904">
        <time>2023-05-03T13:11:10+00:00</time>
        <ele>1093.0</ele>
      </trkpt>
      <trkpt lat="45.39969918318093" lon="6.166640343144536">
        <time>2023-05-03T13:11:11+00:00</time>
        <ele>1090.0</ele>
      </trkpt>
      <trkpt lat="45.399770429357886" lon="6.166523499414325">
        <time>2023-05-03T13:11:12+00:00</time>
        <ele>1087.0</ele>
      </trkpt>
      <trkpt lat="45.39984385482967" lon="6.166419479995966">
        <time>2023-05-03T13:11:13+00:00</time>
        <ele>1085.0</ele>
      </trkpt>
      <trkpt lat="45.39997570216656" lon="6.166237676516175">
        <time>2023-05-03T13:11:15+00:00</time>
        <ele>1083.0</ele>
      </trkpt>
      <trkpt lat="45.40009304881096" lon="6.166038438677788">
        <time>2023-05-03T13:11:17+00:00</time>
        <ele>1081.0</ele>
      </trkpt>
      <trkpt lat="45.40013764053583" lon="6.165927378460765">
        <time>2023-05-03T13:11:18+00:00</time>
        <ele>1080.0</ele>
      </trkpt>
      <trkpt lat="45.40025565773249" lon="6.165587659925222">
        <time>2023-05-03T13:11:21+00:00</time>
        <ele>1078.0</ele>
      </trkpt>
      <trkpt lat="45.40031533688307" lon="6.165417172014713">
        <time>2023-05-03T13:11:23+00:00</time>
        <ele>1077.0</ele>
      </trkpt>
      <trkpt lat="45.40034324862063" lon="6.16535983979702">
        <time>2023-05-03T13:11:24+00:00</time>
        <ele>1077.0</ele>
      </trkpt>
      <trkpt lat="45.40040225721896" lon="6.165290353819728">
        <time>2023-05-03T13:11:26+00:00</time>
        <ele>1076.0</ele>
      </trkpt>
      <trkpt lat="45.400520358234644" lon="6.165233440697193">
        <time>2023-05-03T13:11:29+00:00</time>
        <ele>1073.0</ele>
      </trkpt>
      <trkpt lat="45.40058615617454" lon="6.16521080955863">
        <time>2023-05-03T13:11:30+00:00</time>
        <ele>1071.0</ele>
      </trkpt>
      <trkpt lat="45.400883043184876" lon="6.165107460692525">
        <time>2023-05-03T13:11:34+00:00</time>
        <ele>1063.0</ele>
      </trkpt>
      <trkpt lat="45.40095412172377" lon="6.165053984150291">
        <time>2023-05-03T13:11:35+00:00</time>
        <ele>1063.0</ele>
      </trkpt>
      <trkpt lat="45.40102360770106" lon="6.164984833449125">
        <time>2023-05-03T13:11:36+00:00</time>
        <ele>1064.0</ele>
      </trkpt>
      <trkpt lat="45.401089657098055" lon="6.164907049387693">
        <time>2023-05-03T13:11:37+00:00</time>
        <ele>1064.0</ele>
      </trkpt>
      <trkpt lat="45.40114983916283" lon="6.164822895079851">
        <time>2023-05-03T13:11:38+00:00</time>
        <ele>1063.0</ele>
      </trkpt>
      <trkpt lat="45.40120046585798" lon="6.164729939773679">
        <time>2023-05-03T13:11:39+00:00</time>
        <ele>1063.0</ele>
      </trkpt>
      <trkpt lat="45.40124488994479" lon="6.164635475724936">
        <time>2023-05-03T13:11:40+00:00</time>
        <ele>1062.0</ele>
      </trkpt>
      <trkpt lat="45.40127271786332" lon="6.164541095495224">
        <time>2023-05-03T13:11:41+00:00</time>
        <ele>1062.0</ele>
      </trkpt>
      <trkpt lat="45.4012964386493" lon="6.164453588426113">
        <time>2023-05-03T13:11:42+00:00</time>
        <ele>1063.0</ele>
      </trkpt>
      <trkpt lat="45.401324182748795" lon="6.164302965626121">
        <time>2023-05-03T13:11:44+00:00</time>
        <ele>1063.0</ele>
      </trkpt>
      <trkpt lat="45.40134924463928" lon="6.164162652567029">
        <time>2023-05-03T13:11:47+00:00</time>
        <ele>1063.0</ele>
      </trkpt>
      <trkpt lat="45.401379000395536" lon="6.164091322571039">
        <time>2023-05-03T13:11:50+00:00</time>
        <ele>1062.0</ele>
      </trkpt>
      <trkpt lat="45.40144412778318" lon="6.163988392800093">
        <time>2023-05-03T13:11:53+00:00</time>
        <ele>1058.0</ele>
      </trkpt>
      <trkpt lat="45.40153699927032" lon="6.163737438619137">
        <time>2023-05-03T13:11:57+00:00</time>
        <ele>1055.0</ele>
      </trkpt>
      <trkpt lat="45.40156424045563" lon="6.163670718669891">
        <time>2023-05-03T13:11:58+00:00</time>
        <ele>1054.0</ele>
      </trkpt>
      <trkpt lat="45.401683850213885" lon="6.16338967345655">
        <time>2023-05-03T13:12:04+00:00</time>
        <ele>1050.0</ele>
      </trkpt>
      <trkpt lat="45.40179608389735" lon="6.16321180947125">
        <time>2023-05-03T13:12:09+00:00</time>
        <ele>1047.0</ele>
      </trkpt>
      <trkpt lat="45.40202088654041" lon="6.162963369861245">
        <time>2023-05-03T13:12:16+00:00</time>
        <ele>1043.0</ele>
      </trkpt>
      <trkpt lat="45.40210629813373" lon="6.162874605506659">
        <time>2023-05-03T13:12:18+00:00</time>
        <ele>1042.0</ele>
      </trkpt>
      <trkpt lat="45.402160780504346" lon="6.162840910255909">
        <time>2023-05-03T13:12:19+00:00</time>
        <ele>1041.0</ele>
      </trkpt>
      <trkpt lat="45.402225237339735" lon="6.162810903042555">
        <time>2023-05-03T13:12:20+00:00</time>
        <ele>1040.0</ele>
      </trkpt>
      <trkpt lat="45.402294136583805" lon="6.162786427885294">
        <time>2023-05-03T13:12:21+00:00</time>
        <ele>1039.0</ele>
      </trkpt>
      <trkpt lat="45.40236311964691" lon="6.162768490612507">
        <time>2023-05-03T13:12:22+00:00</time>
        <ele>1038.0</ele>
      </trkpt>
      <trkpt lat="45.40272496640682" lon="6.162641337141395">
        <time>2023-05-03T13:12:27+00:00</time>
        <ele>1032.0</ele>
      </trkpt>
      <trkpt lat="45.402793446555734" lon="6.162592638283968">
        <time>2023-05-03T13:12:28+00:00</time>
        <ele>1031.0</ele>
      </trkpt>
      <trkpt lat="45.40285614319146" lon="6.162537736818194">
        <time>2023-05-03T13:12:29+00:00</time>
        <ele>1031.0</ele>
      </trkpt>
      <trkpt lat="45.40291800163686" lon="6.162470346316695">
        <time>2023-05-03T13:12:30+00:00</time>
        <ele>1031.0</ele>
      </trkpt>
      <trkpt lat="45.40298329666257" lon="6.162393148988485">
        <time>2023-05-03T13:12:31+00:00</time>
        <ele>1030.0</ele>
      </trkpt>
      <trkpt lat="45.40332200936973" lon="6.162042701616883">
        <time>2023-05-03T13:12:36+00:00</time>
        <ele>1027.0</ele>
      </trkpt>
      <trkpt lat="45.403539603576064" lon="6.161896102130413">
        <time>2023-05-03T13:12:39+00:00</time>
        <ele>1024.0</ele>
      </trkpt>
      <trkpt lat="45.4037569463253" lon="6.161802392452955">
        <time>2023-05-03T13:12:42+00:00</time>
        <ele>1021.0</ele>
      </trkpt>
      <trkpt lat="45.40390153415501" lon="6.161793088540435">
        <time>2023-05-03T13:12:44+00:00</time>
        <ele>1018.0</ele>
      </trkpt>
      <trkpt lat="45.404037991538644" lon="6.161798285320401">
        <time>2023-05-03T13:12:46+00:00</time>
        <ele>1015.0</ele>
      </trkpt>
      <trkpt lat="45.40410219691694" lon="6.161798369139433">
        <time>2023-05-03T13:12:47+00:00</time>
        <ele>1014.0</ele>
      </trkpt>
      <trkpt lat="45.40416497737169" lon="6.16179090924561">
        <time>2023-05-03T13:12:48+00:00</time>
        <ele>1014.0</ele>
      </trkpt>
      <trkpt lat="45.40422733873129" lon="6.161770792677999">
        <time>2023-05-03T13:12:49+00:00</time>
        <ele>1014.0</ele>
      </trkpt>
      <trkpt lat="45.40428098291159" lon="6.161730727180839">
        <time>2023-05-03T13:12:50+00:00</time>
        <ele>1015.0</ele>
      </trkpt>
      <trkpt lat="45.40431920439005" lon="6.161669287830591">
        <time>2023-05-03T13:12:51+00:00</time>
        <ele>1015.0</ele>
      </trkpt>
      <trkpt lat="45.40434384718537" lon="6.161593263968825">
        <time>2023-05-03T13:12:52+00:00</time>
        <ele>1016.0</ele>
      </trkpt>
      <trkpt lat="45.40435398928821" lon="6.1615099478513">
        <time>2023-05-03T13:12:53+00:00</time>
        <ele>1017.0</ele>
      </trkpt>
      <trkpt lat="45.40435918606818" lon="6.161433672532439">
        <time>2023-05-03T13:12:54+00:00</time>
        <ele>1019.0</ele>
      </trkpt>
      <trkpt lat="45.4043616168201" lon="6.161355637013912">
        <time>2023-05-03T13:12:55+00:00</time>
        <ele>1019.0</ele>
      </trkpt>
      <trkpt lat="45.40436530485749" lon="6.161293108016253">
        <time>2023-05-03T13:12:56+00:00</time>
        <ele>1020.0</ele>
      </trkpt>
      <trkpt lat="45.40437779389322" lon="6.161251701414585">
        <time>2023-05-03T13:12:57+00:00</time>
        <ele>1020.0</ele>
      </trkpt>
      <trkpt lat="45.40439589880407" lon="6.161225801333785">
        <time>2023-05-03T13:12:58+00:00</time>
        <ele>1019.0</ele>
      </trkpt>
      <trkpt lat="45.40441584773362" lon="6.161219766363502">
        <time>2023-05-03T13:12:59+00:00</time>
        <ele>1018.0</ele>
      </trkpt>
      <trkpt lat="45.404434371739626" lon="6.161234602332115">
        <time>2023-05-03T13:13:00+00:00</time>
        <ele>1017.0</ele>
      </trkpt>
      <trkpt lat="45.404447028413415" lon="6.16126611828804">
        <time>2023-05-03T13:13:01+00:00</time>
        <ele>1016.0</ele>
      </trkpt>
      <trkpt lat="45.40445063263178" lon="6.161307189613581">
        <time>2023-05-03T13:13:02+00:00</time>
        <ele>1015.0</ele>
      </trkpt>
      <trkpt lat="45.404452392831445" lon="6.161355972290039">
        <time>2023-05-03T13:13:03+00:00</time>
        <ele>1015.0</ele>
      </trkpt>
      <trkpt lat="45.404448956251144" lon="6.161459321156144">
        <time>2023-05-03T13:13:05+00:00</time>
        <ele>1014.0</ele>
      </trkpt>
      <trkpt lat="45.40444158017635" lon="6.161518581211567">
        <time>2023-05-03T13:13:06+00:00</time>
        <ele>1013.0</ele>
      </trkpt>
      <trkpt lat="45.40441987104714" lon="6.161640370264649">
        <time>2023-05-03T13:13:08+00:00</time>
        <ele>1011.0</ele>
      </trkpt>
      <trkpt lat="45.40440486744046" lon="6.161701893433929">
        <time>2023-05-03T13:13:09+00:00</time>
        <ele>1010.0</ele>
      </trkpt>
      <trkpt lat="45.40438458323479" lon="6.16176450625062">
        <time>2023-05-03T13:13:10+00:00</time>
        <ele>1009.0</ele>
      </trkpt>
      <trkpt lat="45.40436228737235" lon="6.161823431029916">
        <time>2023-05-03T13:13:11+00:00</time>
        <ele>1008.0</ele>
      </trkpt>
      <trkpt lat="45.40433521382511" lon="6.161877745762467">
        <time>2023-05-03T13:13:12+00:00</time>
        <ele>1007.0</ele>
      </trkpt>
      <trkpt lat="45.40427042171359" lon="6.161966845393181">
        <time>2023-05-03T13:13:14+00:00</time>
        <ele>1004.0</ele>
      </trkpt>
      <trkpt lat="45.404187524691224" lon="6.162019902840257">
        <time>2023-05-03T13:13:16+00:00</time>
        <ele>1003.0</ele>
      </trkpt>
      <trkpt lat="45.40414100512862" lon="6.162035576999188">
        <time>2023-05-03T13:13:17+00:00</time>
        <ele>1003.0</ele>
      </trkpt>
      <trkpt lat="45.40405458770692" lon="6.162047563120723">
        <time>2023-05-03T13:13:19+00:00</time>
        <ele>1005.0</ele>
      </trkpt>
      <trkpt lat="45.40401225909591" lon="6.16204546764493">
        <time>2023-05-03T13:13:20+00:00</time>
        <ele>1006.0</ele>
      </trkpt>
      <trkpt lat="45.40396682918072" lon="6.162057286128402">
        <time>2023-05-03T13:13:21+00:00</time>
        <ele>1006.0</ele>
      </trkpt>
      <trkpt lat="45.40392701514065" lon="6.162082180380821">
        <time>2023-05-03T13:13:22+00:00</time>
        <ele>1007.0</ele>
      </trkpt>
      <trkpt lat="45.403890470042825" lon="6.16211193613708">
        <time>2023-05-03T13:13:23+00:00</time>
        <ele>1007.0</ele>
      </trkpt>
      <trkpt lat="45.40382391773164" lon="6.162180248647928">
        <time>2023-05-03T13:13:25+00:00</time>
        <ele>1008.0</ele>
      </trkpt>
      <trkpt lat="45.403791731223464" lon="6.162223415449262">
        <time>2023-05-03T13:13:26+00:00</time>
        <ele>1008.0</ele>
      </trkpt>
      <trkpt lat="45.40376474149525" lon="6.162269515916705">
        <time>2023-05-03T13:13:27+00:00</time>
        <ele>1008.0</ele>
      </trkpt>
      <trkpt lat="45.40345620363951" lon="6.162735465914011">
        <time>2023-05-03T13:13:39+00:00</time>
        <ele>1009.0</ele>
      </trkpt>
      <trkpt lat="45.40341957472265" lon="6.162887765094638">
        <time>2023-05-03T13:13:42+00:00</time>
        <ele>1009.0</ele>
      </trkpt>
      <trkpt lat="45.4034239333123" lon="6.162942498922348">
        <time>2023-05-03T13:13:43+00:00</time>
        <ele>1009.0</ele>
      </trkpt>
      <trkpt lat="45.4034374281764" lon="6.162993460893631">
        <time>2023-05-03T13:13:44+00:00</time>
        <ele>1008.0</ele>
      </trkpt>
      <trkpt lat="45.40345930494368" lon="6.163036208599806">
        <time>2023-05-03T13:13:45+00:00</time>
        <ele>1008.0</ele>
      </trkpt>
      <trkpt lat="45.4034841991961" lon="6.163073927164078">
        <time>2023-05-03T13:13:46+00:00</time>
        <ele>1008.0</ele>
      </trkpt>
      <trkpt lat="45.40350272320211" lon="6.163113154470921">
        <time>2023-05-03T13:13:47+00:00</time>
        <ele>1008.0</ele>
      </trkpt>
      <trkpt lat="45.403523007407784" lon="6.163151292130351">
        <time>2023-05-03T13:13:48+00:00</time>
        <ele>1007.0</ele>
      </trkpt>
      <trkpt lat="45.403541112318635" lon="6.163185993209481">
        <time>2023-05-03T13:13:49+00:00</time>
        <ele>1007.0</ele>
      </trkpt>
      <trkpt lat="45.40364538319409" lon="6.163321025669575">
        <time>2023-05-03T13:13:53+00:00</time>
        <ele>1007.0</ele>
      </trkpt>
      <trkpt lat="45.40386733599007" lon="6.16341071203351">
        <time>2023-05-03T13:13:57+00:00</time>
        <ele>1007.0</ele>
      </trkpt>
      <trkpt lat="45.403926093131304" lon="6.163415908813477">
        <time>2023-05-03T13:13:58+00:00</time>
        <ele>1007.0</ele>
      </trkpt>
      <trkpt lat="45.40398208424449" lon="6.163408197462559">
        <time>2023-05-03T13:13:59+00:00</time>
        <ele>1008.0</ele>
      </trkpt>
      <trkpt lat="45.404026843607426" lon="6.163404760882258">
        <time>2023-05-03T13:14:00+00:00</time>
        <ele>1008.0</ele>
      </trkpt>
      <trkpt lat="45.4040783084929" lon="6.163380201905966">
        <time>2023-05-03T13:14:01+00:00</time>
        <ele>1008.0</ele>
      </trkpt>
      <trkpt lat="45.40412876754999" lon="6.163352290168405">
        <time>2023-05-03T13:14:02+00:00</time>
        <ele>1008.0</ele>
      </trkpt>
      <trkpt lat="45.404285257682204" lon="6.163231255486608">
        <time>2023-05-03T13:14:06+00:00</time>
        <ele>1008.0</ele>
      </trkpt>
      <trkpt lat="45.40432280860841" lon="6.163170989602804">
        <time>2023-05-03T13:14:07+00:00</time>
        <ele>1007.0</ele>
      </trkpt>
      <trkpt lat="45.40438508614898" lon="6.163043417036533">
        <time>2023-05-03T13:14:09+00:00</time>
        <ele>1005.0</ele>
      </trkpt>
      <trkpt lat="45.404413836076856" lon="6.162967728450894">
        <time>2023-05-03T13:14:10+00:00</time>
        <ele>1005.0</ele>
      </trkpt>
      <trkpt lat="45.404442669823766" lon="6.162899499759078">
        <time>2023-05-03T13:14:11+00:00</time>
        <ele>1004.0</ele>
      </trkpt>
      <trkpt lat="45.40447359904647" lon="6.162820206955075">
        <time>2023-05-03T13:14:12+00:00</time>
        <ele>1003.0</ele>
      </trkpt>
      <trkpt lat="45.4045098926872" lon="6.162728425115347">
        <time>2023-05-03T13:14:13+00:00</time>
        <ele>1002.0</ele>
      </trkpt>
      <trkpt lat="45.40455230511725" lon="6.162648126482964">
        <time>2023-05-03T13:14:14+00:00</time>
        <ele>1001.0</ele>
      </trkpt>
      <trkpt lat="45.40460259653628" lon="6.16256975568831">
        <time>2023-05-03T13:14:15+00:00</time>
        <ele>1000.0</ele>
      </trkpt>
      <trkpt lat="45.40477476082742" lon="6.162339337170124">
        <time>2023-05-03T13:14:18+00:00</time>
        <ele>999.0</ele>
      </trkpt>
      <trkpt lat="45.40488766506314" lon="6.16219500079751">
        <time>2023-05-03T13:14:20+00:00</time>
        <ele>999.0</ele>
      </trkpt>
      <trkpt lat="45.40493234060705" lon="6.16210070438683">
        <time>2023-05-03T13:14:21+00:00</time>
        <ele>998.0</ele>
      </trkpt>
      <trkpt lat="45.404968466609716" lon="6.162005569785833">
        <time>2023-05-03T13:14:22+00:00</time>
        <ele>997.0</ele>
      </trkpt>
      <trkpt lat="45.404993277043104" lon="6.161919739097357">
        <time>2023-05-03T13:14:23+00:00</time>
        <ele>997.0</ele>
      </trkpt>
      <trkpt lat="45.40500719100237" lon="6.161845726892352">
        <time>2023-05-03T13:14:24+00:00</time>
        <ele>996.0</ele>
      </trkpt>
      <trkpt lat="45.40501465089619" lon="6.161781689152122">
        <time>2023-05-03T13:14:25+00:00</time>
        <ele>996.0</ele>
      </trkpt>
      <trkpt lat="45.40502839721739" lon="6.161733828485012">
        <time>2023-05-03T13:14:26+00:00</time>
        <ele>995.0</ele>
      </trkpt>
      <trkpt lat="45.40504960343242" lon="6.161692589521408">
        <time>2023-05-03T13:14:27+00:00</time>
        <ele>996.0</ele>
      </trkpt>
      <trkpt lat="45.4051248729229" lon="6.161514138802886">
        <time>2023-05-03T13:14:31+00:00</time>
        <ele>996.0</ele>
      </trkpt>
      <trkpt lat="45.40516602806747" lon="6.161318589001894">
        <time>2023-05-03T13:14:34+00:00</time>
        <ele>994.0</ele>
      </trkpt>
      <trkpt lat="45.405188743025064" lon="6.161266621202231">
        <time>2023-05-03T13:14:35+00:00</time>
        <ele>994.0</ele>
      </trkpt>
      <trkpt lat="45.405214726924896" lon="6.161220101639628">
        <time>2023-05-03T13:14:36+00:00</time>
        <ele>994.0</ele>
      </trkpt>
      <trkpt lat="45.40524632669985" lon="6.161183305084705">
        <time>2023-05-03T13:14:37+00:00</time>
        <ele>994.0</ele>
      </trkpt>
      <trkpt lat="45.405282536521554" lon="6.1611542198807">
        <time>2023-05-03T13:14:38+00:00</time>
        <ele>995.0</ele>
      </trkpt>
      <trkpt lat="45.405316315591335" lon="6.161126811057329">
        <time>2023-05-03T13:14:39+00:00</time>
        <ele>996.0</ele>
      </trkpt>
      <trkpt lat="45.40534481406212" lon="6.161104179918766">
        <time>2023-05-03T13:14:40+00:00</time>
        <ele>997.0</ele>
      </trkpt>
      <trkpt lat="45.405406756326556" lon="6.160998651757836">
        <time>2023-05-03T13:14:43+00:00</time>
        <ele>996.0</ele>
      </trkpt>
      <trkpt lat="45.40541966445744" lon="6.160963615402579">
        <time>2023-05-03T13:14:44+00:00</time>
        <ele>996.0</ele>
      </trkpt>
      <trkpt lat="45.40543366223574" lon="6.160927740857005">
        <time>2023-05-03T13:14:45+00:00</time>
        <ele>996.0</ele>
      </trkpt>
      <trkpt lat="45.40549677796662" lon="6.160715594887734">
        <time>2023-05-03T13:14:50+00:00</time>
        <ele>995.0</ele>
      </trkpt>
      <trkpt lat="45.40551982820034" lon="6.160673350095749">
        <time>2023-05-03T13:14:51+00:00</time>
        <ele>995.0</ele>
      </trkpt>
      <trkpt lat="45.40554782375693" lon="6.160640409216285">
        <time>2023-05-03T13:14:52+00:00</time>
        <ele>995.0</ele>
      </trkpt>
      <trkpt lat="45.40558126755059" lon="6.160610569640994">
        <time>2023-05-03T13:14:53+00:00</time>
        <ele>995.0</ele>
      </trkpt>
      <trkpt lat="45.40561915375292" lon="6.160584418103099">
        <time>2023-05-03T13:14:54+00:00</time>
        <ele>996.0</ele>
      </trkpt>
      <trkpt lat="45.40589910931885" lon="6.160346874967217">
        <time>2023-05-03T13:15:02+00:00</time>
        <ele>997.0</ele>
      </trkpt>
      <trkpt lat="45.40593825280666" lon="6.160303289070725">
        <time>2023-05-03T13:15:03+00:00</time>
        <ele>996.0</ele>
      </trkpt>
      <trkpt lat="45.40626942180097" lon="6.159883020445705">
        <time>2023-05-03T13:15:14+00:00</time>
        <ele>997.0</ele>
      </trkpt>
      <trkpt lat="45.4063765425235" lon="6.159848487004638">
        <time>2023-05-03T13:15:17+00:00</time>
        <ele>999.0</ele>
      </trkpt>
      <trkpt lat="45.406417110934854" lon="6.159830130636692">
        <time>2023-05-03T13:15:18+00:00</time>
        <ele>999.0</ele>
      </trkpt>
      <trkpt lat="45.40645935572684" lon="6.159808421507478">
        <time>2023-05-03T13:15:19+00:00</time>
        <ele>999.0</ele>
      </trkpt>
      <trkpt lat="45.4064991697669" lon="6.159767853096128">
        <time>2023-05-03T13:15:20+00:00</time>
        <ele>998.0</ele>
      </trkpt>
      <trkpt lat="45.40653764270246" lon="6.159717729315162">
        <time>2023-05-03T13:15:21+00:00</time>
        <ele>997.0</ele>
      </trkpt>
      <trkpt lat="45.40662305429578" lon="6.159610943868756">
        <time>2023-05-03T13:15:23+00:00</time>
        <ele>996.0</ele>
      </trkpt>
      <trkpt lat="45.40666563436389" lon="6.159557718783617">
        <time>2023-05-03T13:15:24+00:00</time>
        <ele>995.0</ele>
      </trkpt>
      <trkpt lat="45.406708214432" lon="6.159496949985623">
        <time>2023-05-03T13:15:25+00:00</time>
        <ele>994.0</ele>
      </trkpt>
      <trkpt lat="45.406755739822984" lon="6.159434169530869">
        <time>2023-05-03T13:15:26+00:00</time>
        <ele>992.0</ele>
      </trkpt>
      <trkpt lat="45.406804690137506" lon="6.159369545057416">
        <time>2023-05-03T13:15:27+00:00</time>
        <ele>991.0</ele>
      </trkpt>
      <trkpt lat="45.407060254365206" lon="6.159025803208351">
        <time>2023-05-03T13:15:32+00:00</time>
        <ele>986.0</ele>
      </trkpt>
      <trkpt lat="45.40718598291278" lon="6.158812399953604">
        <time>2023-05-03T13:15:35+00:00</time>
        <ele>982.0</ele>
      </trkpt>
      <trkpt lat="45.40722009725869" lon="6.1587745975703">
        <time>2023-05-03T13:15:36+00:00</time>
        <ele>982.0</ele>
      </trkpt>
      <trkpt lat="45.407255720347166" lon="6.158740818500519">
        <time>2023-05-03T13:15:37+00:00</time>
        <ele>982.0</ele>
      </trkpt>
      <trkpt lat="45.4073332529515" lon="6.158687425777316">
        <time>2023-05-03T13:15:39+00:00</time>
        <ele>983.0</ele>
      </trkpt>
      <trkpt lat="45.40746342390776" lon="6.158618023619056">
        <time>2023-05-03T13:15:42+00:00</time>
        <ele>983.0</ele>
      </trkpt>
      <trkpt lat="45.40751053020358" lon="6.158603271469474">
        <time>2023-05-03T13:15:43+00:00</time>
        <ele>984.0</ele>
      </trkpt>
      <trkpt lat="45.40755931288004" lon="6.158588519319892">
        <time>2023-05-03T13:15:44+00:00</time>
        <ele>985.0</ele>
      </trkpt>
      <trkpt lat="45.40761253796518" lon="6.158573096618056">
        <time>2023-05-03T13:15:45+00:00</time>
        <ele>985.0</ele>
      </trkpt>
      <trkpt lat="45.40766115300357" lon="6.158544514328241">
        <time>2023-05-03T13:15:46+00:00</time>
        <ele>985.0</ele>
      </trkpt>
      <trkpt lat="45.407705660909414" lon="6.158505454659462">
        <time>2023-05-03T13:15:47+00:00</time>
        <ele>985.0</ele>
      </trkpt>
      <trkpt lat="45.40774664841592" lon="6.158460108563304">
        <time>2023-05-03T13:15:48+00:00</time>
        <ele>985.0</ele>
      </trkpt>
      <trkpt lat="45.40780867449939" lon="6.158356005325913">
        <time>2023-05-03T13:15:50+00:00</time>
        <ele>983.0</ele>
      </trkpt>
      <trkpt lat="45.40783038362861" lon="6.158302864059806">
        <time>2023-05-03T13:15:51+00:00</time>
        <ele>982.0</ele>
      </trkpt>
      <trkpt lat="45.407969523221254" lon="6.158071020618081">
        <time>2023-05-03T13:15:58+00:00</time>
        <ele>979.0</ele>
      </trkpt>
      <trkpt lat="45.40798058733344" lon="6.158020393922925">
        <time>2023-05-03T13:15:59+00:00</time>
        <ele>977.0</ele>
      </trkpt>
      <trkpt lat="45.40800841525197" lon="6.157908495515585">
        <time>2023-05-03T13:16:01+00:00</time>
        <ele>976.0</ele>
      </trkpt>
      <trkpt lat="45.40805300697684" lon="6.157758040353656">
        <time>2023-05-03T13:16:03+00:00</time>
        <ele>975.0</ele>
      </trkpt>
      <trkpt lat="45.40807329118252" lon="6.157686458900571">
        <time>2023-05-03T13:16:04+00:00</time>
        <ele>975.0</ele>
      </trkpt>
      <trkpt lat="45.408098604530096" lon="6.157616889104247">
        <time>2023-05-03T13:16:05+00:00</time>
        <ele>975.0</ele>
      </trkpt>
      <trkpt lat="45.40823137387633" lon="6.157321678474546">
        <time>2023-05-03T13:16:09+00:00</time>
        <ele>974.0</ele>
      </trkpt>
      <trkpt lat="45.40839733555913" lon="6.15691876038909">
        <time>2023-05-03T13:16:16+00:00</time>
        <ele>971.0</ele>
      </trkpt>
      <trkpt lat="45.40847218595445" lon="6.156830918043852">
        <time>2023-05-03T13:16:18+00:00</time>
        <ele>971.0</ele>
      </trkpt>
      <trkpt lat="45.40851652622223" lon="6.156775765120983">
        <time>2023-05-03T13:16:19+00:00</time>
        <ele>971.0</ele>
      </trkpt>
      <trkpt lat="45.40856195613742" lon="6.156708542257547">
        <time>2023-05-03T13:16:20+00:00</time>
        <ele>970.0</ele>
      </trkpt>
      <trkpt lat="45.40860361419618" lon="6.156632183119655">
        <time>2023-05-03T13:16:21+00:00</time>
        <ele>969.0</ele>
      </trkpt>
      <trkpt lat="45.40864082984626" lon="6.156562278047204">
        <time>2023-05-03T13:16:22+00:00</time>
        <ele>967.0</ele>
      </trkpt>
      <trkpt lat="45.40867838077247" lon="6.156500168144703">
        <time>2023-05-03T13:16:23+00:00</time>
        <ele>966.0</ele>
      </trkpt>
      <trkpt lat="45.40875356644392" lon="6.156392293050885">
        <time>2023-05-03T13:16:25+00:00</time>
        <ele>965.0</ele>
      </trkpt>
      <trkpt lat="45.40878969244659" lon="6.156348120421171">
        <time>2023-05-03T13:16:26+00:00</time>
        <ele>966.0</ele>
      </trkpt>
      <trkpt lat="45.40882053785026" lon="6.156296655535698">
        <time>2023-05-03T13:16:27+00:00</time>
        <ele>965.0</ele>
      </trkpt>
      <trkpt lat="45.40886018425226" lon="6.156236976385117">
        <time>2023-05-03T13:16:28+00:00</time>
        <ele>965.0</ele>
      </trkpt>
      <trkpt lat="45.40890804491937" lon="6.156180901452899">
        <time>2023-05-03T13:16:29+00:00</time>
        <ele>964.0</ele>
      </trkpt>
      <trkpt lat="45.40896261110902" lon="6.156131867319346">
        <time>2023-05-03T13:16:30+00:00</time>
        <ele>964.0</ele>
      </trkpt>
      <trkpt lat="45.40901994332671" lon="6.156085012480617">
        <time>2023-05-03T13:16:31+00:00</time>
        <ele>963.0</ele>
      </trkpt>
      <trkpt lat="45.40907953865826" lon="6.156041594222188">
        <time>2023-05-03T13:16:32+00:00</time>
        <ele>963.0</ele>
      </trkpt>
      <trkpt lat="45.40931875817478" lon="6.155859874561429">
        <time>2023-05-03T13:16:36+00:00</time>
        <ele>958.0</ele>
      </trkpt>
      <trkpt lat="45.4094419721514" lon="6.155807990580797">
        <time>2023-05-03T13:16:38+00:00</time>
        <ele>958.0</ele>
      </trkpt>
      <trkpt lat="45.40950357913971" lon="6.15579198114574">
        <time>2023-05-03T13:16:39+00:00</time>
        <ele>958.0</ele>
      </trkpt>
      <trkpt lat="45.40955889970064" lon="6.155759962275624">
        <time>2023-05-03T13:16:40+00:00</time>
        <ele>958.0</ele>
      </trkpt>
      <trkpt lat="45.409604497253895" lon="6.155710341408849">
        <time>2023-05-03T13:16:41+00:00</time>
        <ele>958.0</ele>
      </trkpt>
      <trkpt lat="45.409643640741706" lon="6.15565569140017">
        <time>2023-05-03T13:16:42+00:00</time>
        <ele>957.0</ele>
      </trkpt>
      <trkpt lat="45.40967616252601" lon="6.155598191544414">
        <time>2023-05-03T13:16:43+00:00</time>
        <ele>957.0</ele>
      </trkpt>
      <trkpt lat="45.40970399044454" lon="6.15553256124258">
        <time>2023-05-03T13:16:44+00:00</time>
        <ele>956.0</ele>
      </trkpt>
      <trkpt lat="45.409730141982436" lon="6.155469445511699">
        <time>2023-05-03T13:16:45+00:00</time>
        <ele>955.0</ele>
      </trkpt>
      <trkpt lat="45.40976073592901" lon="6.155410520732403">
        <time>2023-05-03T13:16:46+00:00</time>
        <ele>955.0</ele>
      </trkpt>
      <trkpt lat="45.4097940120846" lon="6.155352601781488">
        <time>2023-05-03T13:16:47+00:00</time>
        <ele>955.0</ele>
      </trkpt>
      <trkpt lat="45.40982804261148" lon="6.155294012278318">
        <time>2023-05-03T13:16:48+00:00</time>
        <ele>954.0</ele>
      </trkpt>
      <trkpt lat="45.40986768901348" lon="6.155241709202528">
        <time>2023-05-03T13:16:49+00:00</time>
        <ele>955.0</ele>
      </trkpt>
      <trkpt lat="45.40991152636707" lon="6.155197955667973">
        <time>2023-05-03T13:16:50+00:00</time>
        <ele>955.0</ele>
      </trkpt>
      <trkpt lat="45.40995863266289" lon="6.155174486339092">
        <time>2023-05-03T13:16:51+00:00</time>
        <ele>955.0</ele>
      </trkpt>
      <trkpt lat="45.410005236044526" lon="6.155167948454619">
        <time>2023-05-03T13:16:52+00:00</time>
        <ele>955.0</ele>
      </trkpt>
      <trkpt lat="45.410047145560384" lon="6.15515872836113">
        <time>2023-05-03T13:16:53+00:00</time>
        <ele>955.0</ele>
      </trkpt>
      <trkpt lat="45.41008645668626" lon="6.155151687562466">
        <time>2023-05-03T13:16:54+00:00</time>
        <ele>955.0</ele>
      </trkpt>
      <trkpt lat="45.41012501344085" lon="6.155144227668643">
        <time>2023-05-03T13:16:55+00:00</time>
        <ele>955.0</ele>
      </trkpt>
      <trkpt lat="45.410203551873565" lon="6.155114471912384">
        <time>2023-05-03T13:16:57+00:00</time>
        <ele>953.0</ele>
      </trkpt>
      <trkpt lat="45.410240767523646" lon="6.155099803581834">
        <time>2023-05-03T13:16:58+00:00</time>
        <ele>953.0</ele>
      </trkpt>
      <trkpt lat="45.41027706116438" lon="6.155077842995524">
        <time>2023-05-03T13:16:59+00:00</time>
        <ele>952.0</ele>
      </trkpt>
      <trkpt lat="45.410311594605446" lon="6.155048087239265">
        <time>2023-05-03T13:17:00+00:00</time>
        <ele>951.0</ele>
      </trkpt>
      <trkpt lat="45.41035635396838" lon="6.155012715607882">
        <time>2023-05-03T13:17:01+00:00</time>
        <ele>950.0</ele>
      </trkpt>
      <trkpt lat="45.410411171615124" lon="6.15496963262558">
        <time>2023-05-03T13:17:02+00:00</time>
        <ele>949.0</ele>
      </trkpt>
      <trkpt lat="45.41046615689993" lon="6.154929148033261">
        <time>2023-05-03T13:17:03+00:00</time>
        <ele>948.0</ele>
      </trkpt>
      <trkpt lat="45.41061166673899" lon="6.154817417263985">
        <time>2023-05-03T13:17:06+00:00</time>
        <ele>944.0</ele>
      </trkpt>
      <trkpt lat="45.41065282188356" lon="6.154799647629261">
        <time>2023-05-03T13:17:07+00:00</time>
        <ele>944.0</ele>
      </trkpt>
      <trkpt lat="45.410688277333975" lon="6.154781291261315">
        <time>2023-05-03T13:17:08+00:00</time>
        <ele>943.0</ele>
      </trkpt>
      <trkpt lat="45.41072532534599" lon="6.154764611274004">
        <time>2023-05-03T13:17:09+00:00</time>
        <ele>942.0</ele>
      </trkpt>
      <trkpt lat="45.410763965919614" lon="6.154756061732769">
        <time>2023-05-03T13:17:10+00:00</time>
        <ele>943.0</ele>
      </trkpt>
      <trkpt lat="45.41080587543547" lon="6.154743740335107">
        <time>2023-05-03T13:17:11+00:00</time>
        <ele>943.0</ele>
      </trkpt>
      <trkpt lat="45.41084736585617" lon="6.154716415330768">
        <time>2023-05-03T13:17:12+00:00</time>
        <ele>943.0</ele>
      </trkpt>
      <trkpt lat="45.410887096077204" lon="6.154676517471671">
        <time>2023-05-03T13:17:13+00:00</time>
        <ele>942.0</ele>
      </trkpt>
      <trkpt lat="45.41092640720308" lon="6.15463930182159">
        <time>2023-05-03T13:17:14+00:00</time>
        <ele>941.0</ele>
      </trkpt>
      <trkpt lat="45.410964796319604" lon="6.154590183869004">
        <time>2023-05-03T13:17:15+00:00</time>
        <ele>939.0</ele>
      </trkpt>
      <trkpt lat="45.41100041940808" lon="6.154531929641962">
        <time>2023-05-03T13:17:16+00:00</time>
        <ele>937.0</ele>
      </trkpt>
      <trkpt lat="45.41102137416601" lon="6.154464203864336">
        <time>2023-05-03T13:17:17+00:00</time>
        <ele>934.0</ele>
      </trkpt>
      <trkpt lat="45.41103537194431" lon="6.154392790049315">
        <time>2023-05-03T13:17:18+00:00</time>
        <ele>932.0</ele>
      </trkpt>
      <trkpt lat="45.41105104610324" lon="6.154305618256331">
        <time>2023-05-03T13:17:19+00:00</time>
        <ele>929.0</ele>
      </trkpt>
      <trkpt lat="45.41109748184681" lon="6.154075283557177">
        <time>2023-05-03T13:17:23+00:00</time>
        <ele>923.0</ele>
      </trkpt>
      <trkpt lat="45.41110938414931" lon="6.154013592749834">
        <time>2023-05-03T13:17:24+00:00</time>
        <ele>923.0</ele>
      </trkpt>
      <trkpt lat="45.41112698614597" lon="6.153949303552508">
        <time>2023-05-03T13:17:25+00:00</time>
        <ele>922.0</ele>
      </trkpt>
      <trkpt lat="45.41114240884781" lon="6.153887864202261">
        <time>2023-05-03T13:17:26+00:00</time>
        <ele>921.0</ele>
      </trkpt>
      <trkpt lat="45.41119437664747" lon="6.153603969141841">
        <time>2023-05-03T13:17:30+00:00</time>
        <ele>917.0</ele>
      </trkpt>
      <trkpt lat="45.41124206967652" lon="6.153288809582591">
        <time>2023-05-03T13:17:34+00:00</time>
        <ele>912.0</ele>
      </trkpt>
      <trkpt lat="45.41129495948553" lon="6.15306107327342">
        <time>2023-05-03T13:17:37+00:00</time>
        <ele>909.0</ele>
      </trkpt>
      <trkpt lat="45.41132085956633" lon="6.15291346795857">
        <time>2023-05-03T13:17:39+00:00</time>
        <ele>907.0</ele>
      </trkpt>
      <trkpt lat="45.4113413952291" lon="6.152786733582616">
        <time>2023-05-03T13:17:41+00:00</time>
        <ele>906.0</ele>
      </trkpt>
      <trkpt lat="45.411433009430766" lon="6.152575509622693">
        <time>2023-05-03T13:17:45+00:00</time>
        <ele>905.0</ele>
      </trkpt>
      <trkpt lat="45.41155647486448" lon="6.152319358661771">
        <time>2023-05-03T13:17:49+00:00</time>
        <ele>902.0</ele>
      </trkpt>
      <trkpt lat="45.411587404087186" lon="6.15225481800735">
        <time>2023-05-03T13:17:50+00:00</time>
        <ele>901.0</ele>
      </trkpt>
      <trkpt lat="45.411616237834096" lon="6.152178710326552">
        <time>2023-05-03T13:17:51+00:00</time>
        <ele>900.0</ele>
      </trkpt>
      <trkpt lat="45.411666193977" lon="6.152028758078814">
        <time>2023-05-03T13:17:53+00:00</time>
        <ele>897.0</ele>
      </trkpt>
      <trkpt lat="45.411682119593024" lon="6.151955332607031">
        <time>2023-05-03T13:17:54+00:00</time>
        <ele>896.0</ele>
      </trkpt>
      <trkpt lat="45.411730566993356" lon="6.151736062020063">
        <time>2023-05-03T13:17:57+00:00</time>
        <ele>891.0</ele>
      </trkpt>
      <trkpt lat="45.411753533408046" lon="6.15166649222374">
        <time>2023-05-03T13:17:58+00:00</time>
        <ele>890.0</ele>
      </trkpt>
      <trkpt lat="45.41182402521372" lon="6.151468846946955">
        <time>2023-05-03T13:18:01+00:00</time>
        <ele>889.0</ele>
      </trkpt>
      <trkpt lat="45.411837603896856" lon="6.151410760357976">
        <time>2023-05-03T13:18:02+00:00</time>
        <ele>888.0</ele>
      </trkpt>
      <trkpt lat="45.411876160651445" lon="6.151133989915252">
        <time>2023-05-03T13:18:06+00:00</time>
        <ele>882.0</ele>
      </trkpt>
      <trkpt lat="45.411879094317555" lon="6.151061486452818">
        <time>2023-05-03T13:18:07+00:00</time>
        <ele>880.0</ele>
      </trkpt>
      <trkpt lat="45.411886470392346" lon="6.150991749018431">
        <time>2023-05-03T13:18:08+00:00</time>
        <ele>878.0</ele>
      </trkpt>
      <trkpt lat="45.41191295720637" lon="6.150872642174363">
        <time>2023-05-03T13:18:10+00:00</time>
        <ele>877.0</ele>
      </trkpt>
      <trkpt lat="45.411927960813046" lon="6.150820087641478">
        <time>2023-05-03T13:18:11+00:00</time>
        <ele>877.0</ele>
      </trkpt>
      <trkpt lat="45.411997279152274" lon="6.150584220886231">
        <time>2023-05-03T13:18:15+00:00</time>
        <ele>874.0</ele>
      </trkpt>
      <trkpt lat="45.41201169602573" lon="6.15050065331161">
        <time>2023-05-03T13:18:16+00:00</time>
        <ele>872.0</ele>
      </trkpt>
      <trkpt lat="45.4120216704905" lon="6.15042588673532">
        <time>2023-05-03T13:18:17+00:00</time>
        <ele>870.0</ele>
      </trkpt>
      <trkpt lat="45.41202443651855" lon="6.150343911722302">
        <time>2023-05-03T13:18:18+00:00</time>
        <ele>868.0</ele>
      </trkpt>
      <trkpt lat="45.412035416811705" lon="6.150259003043175">
        <time>2023-05-03T13:18:19+00:00</time>
        <ele>867.0</ele>
      </trkpt>
      <trkpt lat="45.412060311064124" lon="6.150178033858538">
        <time>2023-05-03T13:18:20+00:00</time>
        <ele>867.0</ele>
      </trkpt>
      <trkpt lat="45.41209643706679" lon="6.150113744661212">
        <time>2023-05-03T13:18:21+00:00</time>
        <ele>868.0</ele>
      </trkpt>
      <trkpt lat="45.412134658545256" lon="6.150058759376407">
        <time>2023-05-03T13:18:22+00:00</time>
        <ele>869.0</ele>
      </trkpt>
      <trkpt lat="45.412297854200006" lon="6.14980629645288">
        <time>2023-05-03T13:18:27+00:00</time>
        <ele>870.0</ele>
      </trkpt>
      <trkpt lat="45.412406735122204" lon="6.149480072781444">
        <time>2023-05-03T13:18:33+00:00</time>
        <ele>865.0</ele>
      </trkpt>
      <trkpt lat="45.41242986917496" lon="6.149416621774435">
        <time>2023-05-03T13:18:34+00:00</time>
        <ele>864.0</ele>
      </trkpt>
      <trkpt lat="45.4124899674207" lon="6.149244206026197">
        <time>2023-05-03T13:18:37+00:00</time>
        <ele>861.0</ele>
      </trkpt>
      <trkpt lat="45.412536822259426" lon="6.14906894043088">
        <time>2023-05-03T13:18:40+00:00</time>
        <ele>858.0</ele>
      </trkpt>
      <trkpt lat="45.41254319250584" lon="6.149009177461267">
        <time>2023-05-03T13:18:41+00:00</time>
        <ele>856.0</ele>
      </trkpt>
      <trkpt lat="45.412551490589976" lon="6.148943798616529">
        <time>2023-05-03T13:18:42+00:00</time>
        <ele>855.0</ele>
      </trkpt>
      <trkpt lat="45.41259381920099" lon="6.148775406181812">
        <time>2023-05-03T13:18:45+00:00</time>
        <ele>851.0</ele>
      </trkpt>
      <trkpt lat="45.41263899765909" lon="6.148632159456611">
        <time>2023-05-03T13:18:48+00:00</time>
        <ele>849.0</ele>
      </trkpt>
      <trkpt lat="45.41269398294389" lon="6.148541383445263">
        <time>2023-05-03T13:18:50+00:00</time>
        <ele>847.0</ele>
      </trkpt>
      <trkpt lat="45.41273287497461" lon="6.14850165322423">
        <time>2023-05-03T13:18:51+00:00</time>
        <ele>847.0</ele>
      </trkpt>
      <trkpt lat="45.412774784490466" lon="6.148468796163797">
        <time>2023-05-03T13:18:52+00:00</time>
        <ele>847.0</ele>
      </trkpt>
      <trkpt lat="45.41282239370048" lon="6.148439794778824">
        <time>2023-05-03T13:18:53+00:00</time>
        <ele>846.0</ele>
      </trkpt>
      <trkpt lat="45.41286338120699" lon="6.148414649069309">
        <time>2023-05-03T13:18:54+00:00</time>
        <ele>846.0</ele>
      </trkpt>
      <trkpt lat="45.41289707645774" lon="6.148390341550112">
        <time>2023-05-03T13:18:55+00:00</time>
        <ele>846.0</ele>
      </trkpt>
      <trkpt lat="45.41293043643236" lon="6.148373996838927">
        <time>2023-05-03T13:18:56+00:00</time>
        <ele>846.0</ele>
      </trkpt>
      <trkpt lat="45.412961868569255" lon="6.148360837250948">
        <time>2023-05-03T13:18:57+00:00</time>
        <ele>846.0</ele>
      </trkpt>
      <trkpt lat="45.412996569648385" lon="6.148345917463303">
        <time>2023-05-03T13:18:58+00:00</time>
        <ele>846.0</ele>
      </trkpt>
      <trkpt lat="45.413092877715826" lon="6.148253548890352">
        <time>2023-05-03T13:19:01+00:00</time>
        <ele>842.0</ele>
      </trkpt>
      <trkpt lat="45.41314635425806" lon="6.14819428883493">
        <time>2023-05-03T13:19:03+00:00</time>
        <ele>840.0</ele>
      </trkpt>
      <trkpt lat="45.41315867565572" lon="6.148152379319072">
        <time>2023-05-03T13:19:04+00:00</time>
        <ele>838.0</ele>
      </trkpt>
      <trkpt lat="45.41316915303469" lon="6.148102590814233">
        <time>2023-05-03T13:19:05+00:00</time>
        <ele>836.0</ele>
      </trkpt>
      <trkpt lat="45.413188096135855" lon="6.148053640499711">
        <time>2023-05-03T13:19:06+00:00</time>
        <ele>835.0</ele>
      </trkpt>
      <trkpt lat="45.41321508586407" lon="6.148006618022919">
        <time>2023-05-03T13:19:07+00:00</time>
        <ele>834.0</ele>
      </trkpt>
      <trkpt lat="45.413240902125835" lon="6.147954231128097">
        <time>2023-05-03T13:19:08+00:00</time>
        <ele>833.0</ele>
      </trkpt>
      <trkpt lat="45.41326638311148" lon="6.147901676595211">
        <time>2023-05-03T13:19:09+00:00</time>
        <ele>832.0</ele>
      </trkpt>
      <trkpt lat="45.41328985244036" lon="6.147851636633277">
        <time>2023-05-03T13:19:10+00:00</time>
        <ele>832.0</ele>
      </trkpt>
      <trkpt lat="45.41330569423735" lon="6.147805033251643">
        <time>2023-05-03T13:19:11+00:00</time>
        <ele>831.0</ele>
      </trkpt>
      <trkpt lat="45.41331944055855" lon="6.147759687155485">
        <time>2023-05-03T13:19:12+00:00</time>
        <ele>830.0</ele>
      </trkpt>
      <trkpt lat="45.413332264870405" lon="6.147589702159166">
        <time>2023-05-03T13:19:16+00:00</time>
        <ele>826.0</ele>
      </trkpt>
      <trkpt lat="45.413324469700456" lon="6.147533124312758">
        <time>2023-05-03T13:19:21+00:00</time>
        <ele>825.0</ele>
      </trkpt>
    </trkseg>
  </trk>
</gpx>
